[[{"header":{"parameterUnit":"m.s-1","parameterCategory":1,"la1":30.6,"la2":28.766,"lo1":-90.7593,"lo2":-88.6598,"dy":0.0162,"dx":0.0183,"nx":116,"ny":114,"refTime":"2023-04-23T18:00:00:Z","depth":0,"parameterNumber":2,"parameterNumberName":"U-component_of_WINDS"},"data":[0.0,0.0,0.0,0.0,0.0,0.0,0.0,0.0,0.0,0.0,0.0,0.0,0.0,0.0,0.0,0.0,0.0,0.0,0.0,0.0,0.0,0.0,0.0,0.0,0.0,0.0,0.0,0.0,0.0,0.0,0.0,0.0,0.0,0.0,0.0,0.0,0.0,0.0,0.0,0.0,0.0,0.0,0.0,0.0,0.0,0.0,0.0,0.0,0.0,0.0,0.0,0.0,0.0,0.0,0.0,0.0,0.0,0.0,0.0,0.0,0.0,0.0,0.0,0.0,0.0,0.0,0.0,0.0,0.0,0.0,0.0,0.0,0.0,0.0,0.0,0.0,0.0,0.0,0.0,0.0,0.0,0.0,0.0,0.0,0.0,0.0,0.0,0.0,0.0,0.0,0.0,0.0,0.0,0.0,0.0,0.0,0.0,0.0,0.0,0.0,0.0,0.0,0.0,0.0,0.0,0.0,0.0,0.0,0.0,0.0,0.0,0.0,0.0,0.0,0.0,0.0,0.0,0.0,0.0,0.0,0.0,0.0,0.0,0.0,0.0,0.0,0.0,0.0,0.0,0.0,0.0,0.0,0.0,0.0,0.0,0.0,0.0,0.0,0.0,0.0,0.0,0.0,0.0,0.0,0.0,0.0,0.0,0.0,0.0,0.0,0.0,0.0,0.0,0.0,0.0,0.0,0.0,0.0,0.0,0.0,0.0,0.0,0.0,0.0,0.0,0.0,0.0,0.0,0.0,0.0,0.0,0.0,0.0,0.0,0.0,0.0,0.0,0.0,0.0,0.0,0.0,0.0,0.0,0.0,0.0,0.0,0.0,0.0,0.0,0.0,0.0,0.0,0.0,0.0,0.0,0.0,0.0,0.0,0.0,0.0,0.0,0.0,0.0,0.0,0.0,0.0,0.0,0.0,0.0,0.0,0.0,0.0,0.0,0.0,0.0,0.0,0.0,0.0,0.0,0.0,0.0,0.0,0.0,0.0,0.0,0.0,0.0,0.0,0.0,0.0,0.0,0.0,0.0,0.0,0.0,0.0,0.0,0.0,0.0,0.0,0.0,0.0,0.0,0.0,0.0,0.0,0.0,0.0,0.0,0.0,0.0,0.0,0.0,0.0,0.0,0.0,0.0,0.0,0.0,0.0,0.0,0.0,0.0,0.0,0.0,0.0,0.0,0.0,0.0,0.0,0.0,0.0,0.0,0.0,0.0,0.0,0.0,0.0,0.0,0.0,0.0,0.0,0.0,0.0,0.0,0.0,0.0,0.0,0.0,0.0,0.0,0.0,0.0,0.0,0.0,0.0,0.0,0.0,0.0,0.0,0.0,0.0,0.0,0.0,0.0,0.0,0.0,0.0,0.0,0.0,0.0,0.0,0.0,0.0,0.0,0.0,0.0,0.0,0.0,0.0,0.0,0.0,0.0,0.0,0.0,0.0,0.0,0.0,0.0,0.0,0.0,0.0,0.0,0.0,0.0,0.0,0.0,0.0,0.0,0.0,0.0,0.0,0.0,0.0,0.0,0.0,0.0,0.0,0.0,0.0,0.0,0.0,0.0,0.0,0.0,0.0,0.0,0.0,0.0,0.0,0.0,0.0,0.0,0.0,0.0,0.0,0.0,0.0,0.0,0.0,0.0,0.0,0.0,0.0,0.0,0.0,0.0,0.0,0.0,0.0,0.0,0.0,0.0,0.0,0.0,0.0,0.0,0.0,0.0,0.0,0.0,0.0,0.0,0.0,0.0,0.0,0.0,0.0,0.0,0.0,0.0,0.0,0.0,0.0,0.0,0.0,0.0,0.0,0.0,0.0,0.0,0.0,0.0,0.0,0.0,0.0,0.0,0.0,0.0,0.0,0.0,0.0,0.0,0.0,0.0,0.0,0.0,0.0,0.0,0.0,0.0,0.0,0.0,0.0,0.0,0.0,0.0,0.0,0.0,0.0,0.0,0.0,0.0,0.0,0.0,0.0,0.0,0.0,0.0,0.0,0.0,0.0,0.0,0.0,0.0,0.0,0.0,0.0,0.0,0.0,0.0,0.0,0.0,0.0,0.0,0.0,0.0,0.0,0.0,0.0,0.0,0.0,0.0,0.0,0.0,0.0,0.0,0.0,0.0,0.0,0.0,0.0,0.0,0.0,0.0,0.0,0.0,0.0,0.0,0.0,0.0,0.0,0.0,0.0,0.0,0.0,0.0,0.0,0.0,0.0,0.0,0.0,0.0,0.0,0.0,0.0,0.0,0.0,0.0,0.0,0.0,0.0,0.0,0.0,0.0,0.0,0.0,0.0,0.0,0.0,0.0,0.0,0.0,0.0,0.0,0.0,0.0,0.0,0.0,0.0,0.0,0.0,0.0,0.0,0.0,0.0,0.0,0.0,0.0,0.0,0.0,0.0,0.0,0.0,0.0,0.0,0.0,0.0,0.0,0.0,0.0,0.0,0.0,0.0,0.0,0.0,0.0,0.0,0.0,0.0,0.0,0.0,0.0,0.0,0.0,0.0,0.0,0.0,0.0,0.0,0.0,0.0,0.0,0.0,0.0,0.0,0.0,0.0,0.0,0.0,0.0,0.0,0.0,0.0,0.0,0.0,0.0,0.0,0.0,0.0,0.0,0.0,0.0,0.0,0.0,0.0,0.0,0.0,0.0,0.0,0.0,0.0,0.0,0.0,0.0,0.0,0.0,0.0,0.0,0.0,0.0,0.0,0.0,0.0,0.0,0.0,0.0,0.0,0.0,0.0,0.0,0.0,0.0,0.0,0.0,0.0,0.0,0.0,0.0,0.0,0.0,0.0,0.0,0.0,0.0,0.0,0.0,0.0,0.0,0.0,0.0,0.0,0.0,0.0,0.0,0.0,0.0,0.0,0.0,0.0,0.0,0.0,0.0,0.0,0.0,0.0,0.0,0.0,0.0,0.0,0.0,0.0,0.0,0.0,0.0,0.0,0.0,0.0,0.0,0.0,0.0,0.0,0.0,0.0,0.0,0.0,0.0,0.0,0.0,0.0,0.0,0.0,0.0,0.0,0.0,0.0,0.0,0.0,0.0,0.0,0.0,0.0,0.0,0.0,0.0,0.0,0.0,0.0,0.0,0.0,0.0,0.0,0.0,0.0,0.0,0.0,0.0,0.0,0.0,0.0,0.0,0.0,0.0,0.0,0.0,0.0,0.0,0.0,0.0,0.0,0.0,0.0,0.0,0.0,0.0,0.0,0.0,0.0,0.0,0.0,0.0,0.0,0.0,0.0,0.0,0.0,0.0,0.0,0.0,0.0,0.0,0.0,0.0,0.0,0.0,0.0,0.0,0.0,0.0,0.0,0.0,0.0,0.0,0.0,0.0,0.0,0.0,0.0,0.0,0.0,0.0,0.0,0.0,0.0,0.0,0.0,0.0,0.0,0.0,0.0,0.0,0.0,0.0,0.0,0.0,0.0,0.0,0.0,0.0,0.0,0.0,0.0,0.0,0.0,0.0,0.0,0.0,0.0,0.0,0.0,0.0,0.0,0.0,0.0,0.0,0.0,0.0,0.0,0.0,0.0,0.0,0.0,0.0,0.0,0.0,0.0,0.0,0.0,0.0,0.0,0.0,0.0,0.0,0.0,0.0,0.0,0.0,0.0,0.0,0.0,0.0,0.0,0.0,0.0,0.0,0.0,0.0,0.0,0.0,0.0,0.0,0.0,0.0,0.0,0.0,0.0,0.0,0.0,0.0,0.0,0.0,0.0,0.0,0.0,0.0,0.0,0.0,0.0,0.0,0.0,0.0,0.0,0.0,0.0,0.0,0.0,0.0,0.0,0.0,0.0,0.0,0.0,0.0,0.0,0.0,0.0,0.0,0.0,0.0,0.0,0.0,0.0,0.0,0.0,0.0,0.0,0.0,0.0,0.0,0.0,0.0,0.0,0.0,0.0,0.0,0.0,0.0,0.0,0.0,0.0,0.0,0.0,0.0,0.0,0.0,0.0,0.0,0.0,0.0,0.0,0.0,0.0,0.0,0.0,0.0,0.0,0.0,0.0,0.0,0.0,0.0,0.0,0.0,0.0,0.0,0.0,0.0,0.0,0.0,0.0,0.0,0.0,0.0,0.0,0.0,0.0,0.0,0.0,0.0,0.0,0.0,0.0,0.0,0.0,0.0,0.0,0.0,0.0,0.0,0.0,0.0,0.0,0.0,0.0,0.0,0.0,0.0,0.0,0.0,0.0,0.0,0.0,0.0,0.0,0.0,0.0,0.0,0.0,0.0,0.0,0.0,0.0,0.0,0.0,0.0,0.0,0.0,0.0,0.0,0.0,0.0,0.0,0.0,0.0,0.0,0.0,0.0,0.0,0.0,0.0,0.0,0.0,0.0,0.0,0.0,0.0,0.0,0.0,0.0,0.0,0.0,0.0,0.0,0.0,0.0,0.0,0.0,0.0,0.0,0.0,0.0,0.0,0.0,0.0,0.0,0.0,0.0,0.0,0.0,0.0,0.0,0.0,0.0,0.0,0.0,0.0,0.0,0.0,0.0,0.0,0.0,0.0,0.0,0.0,0.0,0.0,0.0,0.0,0.0,0.0,0.0,0.0,0.0,0.0,0.0,0.0,0.0,0.0,0.0,0.0,0.0,0.0,0.0,0.0,0.0,0.0,0.0,0.0,0.0,0.0,0.0,0.0,0.0,0.0,0.0,0.0,0.0,0.0,0.0,0.0,0.0,0.0,0.0,0.0,0.0,0.0,0.0,0.0,0.0,0.0,0.0,0.0,0.0,0.0,0.0,0.0,0.0,0.0,0.0,0.0,0.0,0.0,0.0,0.0,0.0,0.0,0.0,0.0,0.0,0.0,0.0,0.0,0.0,0.0,0.0,0.0,0.0,0.0,0.0,0.0,0.0,0.0,0.0,0.0,0.0,0.0,0.0,0.0,0.0,0.0,0.0,0.0,0.0,0.0,0.0,0.0,0.0,0.0,0.0,0.0,0.0,0.0,0.0,0.0,0.0,0.0,0.0,0.0,0.0,0.0,0.0,0.0,0.0,0.0,0.0,0.0,0.0,0.0,0.0,0.0,0.0,0.0,0.0,0.0,0.0,0.0,0.0,0.0,0.0,0.0,0.0,0.0,0.0,0.0,0.0,0.0,0.0,0.0,0.0,0.0,0.0,0.0,0.0,0.0,0.0,0.0,0.0,0.0,0.0,0.0,0.0,0.0,0.0,0.0,0.0,0.0,0.0,0.0,0.0,0.0,0.0,0.0,0.0,0.0,0.0,0.0,0.0,0.0,0.0,0.0,0.0,0.0,0.0,0.0,0.0,0.0,0.0,0.0,0.0,0.0,0.0,0.0,0.0,0.0,0.0,0.0,0.0,0.0,0.0,0.0,0.0,0.0,0.0,0.0,0.0,0.0,0.0,0.0,0.0,0.0,0.0,0.0,0.0,0.0,0.0,0.0,0.0,0.0,0.0,0.0,0.0,0.0,0.0,0.0,0.0,0.0,0.0,0.0,0.0,0.0,0.0,0.0,0.0,0.0,0.0,0.0,0.0,0.0,0.0,0.0,0.0,0.0,0.0,0.0,0.0,0.0,0.0,0.0,0.0,0.0,0.0,0.0,0.0,0.0,0.0,0.0,0.0,0.0,0.0,0.0,0.0,0.0,0.0,0.0,0.0,0.0,0.0,0.0,0.0,0.0,0.0,0.0,0.0,0.0,0.0,0.0,0.0,0.0,0.0,0.0,0.0,0.0,0.0,0.0,0.0,0.0,0.0,0.0,0.0,0.0,0.0,0.0,0.0,0.0,0.0,0.0,0.0,0.0,0.0,0.0,0.0,0.0,0.0,0.0,0.0,0.0,0.0,0.0,0.0,0.0,0.0,0.0,0.0,0.0,0.0,0.0,0.0,0.0,0.0,0.0,0.0,0.0,0.0,0.0,0.0,0.0,0.0,0.0,0.0,0.0,0.0,0.0,0.0,0.0,0.0,0.0,0.0,0.0,0.0,0.0,0.0,0.0,0.0,0.0,0.0,0.0,0.0,0.0,0.0,0.0,0.0,0.0,0.0,0.0,0.0,0.0,0.0,0.0,0.0,0.0,0.0,0.0,0.0,0.0,0.0,0.0,0.0,0.0,0.0,0.0,2.9625,0.0,0.0,0.0,0.0,0.0,0.0,0.0,0.0,0.0,0.0,0.0,0.0,0.0,0.0,0.0,0.0,0.0,0.0,0.0,0.0,0.0,0.0,0.0,0.0,0.0,0.0,0.0,0.0,0.0,0.0,0.0,0.0,0.0,0.0,0.0,0.0,0.0,0.0,2.1283,2.2253,2.3552,2.513,2.6045,2.4988,2.2333,0.0,0.0,0.0,0.0,0.0,0.0,0.0,0.0,0.0,0.0,0.0,0.0,0.0,0.0,0.0,0.0,0.0,0.0,0.0,0.0,0.0,0.0,0.0,0.0,0.0,0.0,0.0,0.0,0.0,0.0,0.0,0.0,0.0,0.0,0.0,0.0,0.0,0.0,0.0,0.0,0.0,0.0,0.0,0.0,0.0,0.0,0.0,0.0,0.0,0.0,0.0,0.0,0.0,0.0,0.0,0.0,0.0,0.0,0.0,0.0,0.0,0.0,0.0,0.0,0.0,0.0,0.0,0.0,0.0,0.0,0.0,3.135,0.0,0.0,0.0,0.0,0.0,0.0,0.0,0.0,0.0,0.0,0.0,0.0,0.0,0.0,0.0,0.0,0.0,0.0,0.0,0.0,0.0,0.0,0.0,2.0072,2.0082,2.0726,2.0195,1.9836,0.0,0.0,0.0,0.0,0.0,0.0,0.0,1.922,2.0215,2.1298,2.395,2.6363,2.8478,2.9253,2.6993,2.2341,2.3942,0.0,0.0,0.0,0.0,0.0,0.0,0.0,0.0,0.0,0.0,0.0,0.0,0.0,0.0,0.0,0.0,0.0,0.0,0.0,0.0,0.0,0.0,0.0,0.0,0.0,0.0,0.0,0.0,0.0,0.0,0.0,0.0,0.0,0.0,0.0,0.0,0.0,0.0,0.0,0.0,0.0,0.0,0.0,0.0,0.0,0.0,0.0,0.0,0.0,0.0,0.0,0.0,0.0,0.0,0.0,0.0,0.0,0.0,0.0,0.0,0.0,0.0,0.0,3.7401,3.8668,4.0486,4.0889,4.1039,4.0811,3.8824,3.7185,3.5743,3.3056,0.0,0.0,0.0,0.0,0.0,0.0,0.0,0.0,0.0,0.0,0.0,0.0,0.0,0.0,0.0,0.0,0.0,0.0,0.0,0.0,0.0,1.8901,1.956,2.0623,2.0152,2.0012,2.0541,0.0,0.0,0.0,0.0,0.0,1.8907,1.8577,2.0034,2.3312,2.6032,2.7571,2.794,2.9202,2.9045,2.7782,2.8497,2.8275,2.7296,0.0,0.0,0.0,0.0,0.0,0.0,0.0,0.0,0.0,0.0,0.0,0.0,0.0,0.0,0.0,0.0,0.0,0.0,0.0,0.0,0.0,0.0,0.0,0.0,0.0,0.0,0.0,0.0,0.0,0.0,0.0,0.0,0.0,0.0,0.0,0.0,0.0,0.0,0.0,0.0,0.0,3.0089,2.9069,0.0,0.0,0.0,0.0,0.0,0.0,0.0,0.0,0.0,0.0,0.0,0.0,0.0,3.4921,3.5595,3.7524,3.8331,3.8104,4.1355,4.3144,4.3587,4.5712,4.7377,4.8594,4.7631,0.0,3.7222,3.5651,0.0,0.0,0.0,0.0,0.0,0.0,0.0,0.0,0.0,0.0,0.0,0.0,0.0,0.0,0.0,0.0,0.0,0.0,0.0,0.0,0.0,2.032,2.2088,2.2874,2.4747,2.5048,2.3099,2.3046,0.0,0.0,0.0,1.8857,1.8568,1.9691,2.2689,2.7568,2.9508,3.1374,3.3211,3.4177,3.4676,3.4769,3.501,3.2817,2.8857,2.7355,0.0,0.0,0.0,0.0,0.0,0.0,0.0,0.0,0.0,0.0,0.0,0.0,0.0,0.0,0.0,0.0,0.0,0.0,0.0,0.0,0.0,0.0,0.0,0.0,0.0,0.0,0.0,0.0,0.0,0.0,0.0,0.0,0.0,0.0,0.0,0.0,0.0,0.0,0.0,2.8624,3.0179,2.8141,2.9295,2.9105,0.0,0.0,0.0,0.0,0.0,0.0,0.0,0.0,0.0,3.4352,3.6896,3.8931,4.0318,4.2293,4.3498,4.3933,4.5202,4.636,4.7331,4.8007,4.9343,5.1058,5.0175,4.7659,4.3962,4.0588,3.7465,3.4659,0.0,0.0,0.0,0.0,3.3182,3.3563,0.0,0.0,0.0,0.0,0.0,0.0,0.0,0.0,0.0,0.0,0.0,0.0,1.9589,2.2817,2.5366,2.6581,2.8911,2.8939,2.5605,2.5132,2.3082,1.8805,1.8744,1.8657,1.8418,2.169,2.5995,3.1356,3.2942,3.5195,3.7926,3.8422,3.8931,3.9391,3.9391,3.6462,3.1379,2.9739,2.7554,2.5058,0.0,0.0,0.0,0.0,0.0,0.0,0.0,0.0,0.0,0.0,0.0,0.0,0.0,0.0,0.0,0.0,0.0,0.0,0.0,0.0,0.0,0.0,0.0,0.0,0.0,0.0,0.0,0.0,0.0,0.0,0.0,0.0,0.0,0.0,0.0,0.0,0.0,2.9486,3.136,2.8218,3.0927,3.1465,0.0,0.0,0.0,0.0,0.0,0.0,3.2946,3.525,3.7332,3.9092,4.1294,4.321,4.4805,4.63,4.7578,4.8558,4.8153,4.859,4.9791,4.9386,5.0036,5.1469,5.0722,4.9943,4.8898,4.451,4.065,3.7356,3.5794,3.5107,3.5037,3.5559,3.5748,3.5875,0.0,0.0,0.0,0.0,0.0,0.0,0.0,0.0,0.0,0.0,0.0,2.1081,2.3554,2.6078,2.8795,3.1751,3.0556,2.896,2.7359,2.4603,2.2049,1.9824,1.8781,1.8468,1.8958,2.4518,2.9377,3.3339,3.5904,3.7908,3.9302,3.9331,3.9361,3.9391,3.9391,3.8368,3.6472,3.4172,3.155,2.8577,2.449,0.0,0.0,0.0,0.0,0.0,0.0,0.0,0.0,0.0,0.0,0.0,0.0,0.0,0.0,0.0,0.0,0.0,0.0,0.0,0.0,0.0,0.0,0.0,0.0,0.0,0.0,0.0,0.0,0.0,0.0,0.0,0.0,0.0,0.0,0.0,0.0,0.0,0.0,3.178,3.4725,0.0,0.0,0.0,0.0,3.3949,3.5356,3.6417,3.7075,4.0206,4.2601,4.3908,4.6531,4.8259,4.8977,4.9097,4.9187,4.9239,4.9537,4.9697,4.9801,5.0169,5.0378,5.0474,5.0416,4.9781,4.8621,4.5818,4.3221,4.0843,3.8873,3.769,3.7151,3.7183,3.7183,3.7215,0.0,0.0,0.0,0.0,0.0,0.0,0.0,0.0,1.605,1.6457,1.9425,2.2166,2.392,2.9654,3.383,3.4952,3.6757,3.6178,3.2233,2.9072,2.5849,2.2443,2.0322,2.1082,2.5047,2.927,3.3148,3.6649,3.8018,3.9589,4.1313,4.0457,4.0487,4.1313,4.0894,4.0141,3.8977,3.5968,3.3173,3.0536,2.7296,2.4271,0.0,0.0,0.0,0.0,0.0,0.0,0.0,0.0,0.0,0.0,0.0,0.0,0.0,0.0,0.0,0.0,0.0,0.0,0.0,0.0,0.0,0.0,0.0,0.0,0.0,0.0,0.0,0.0,0.0,0.0,0.0,0.0,0.0,0.0,0.0,0.0,0.0,3.5503,3.9182,0.0,3.6327,3.655,3.7148,3.7614,3.9679,4.1384,4.2432,4.5265,4.7241,4.8065,4.9441,5.0272,5.0511,5.0511,5.0511,5.0511,5.0231,4.9857,4.9477,4.9188,4.9171,4.9336,4.8708,4.8563,4.8686,4.7068,4.5414,4.3754,4.261,4.1504,4.0627,4.0999,4.0926,4.0639,0.0,0.0,0.0,0.0,0.0,0.0,0.0,0.0,1.5893,1.7555,2.1118,2.4582,2.7378,3.3757,3.8071,3.8719,4.0382,3.918,3.4008,3.0378,2.6459,2.2068,2.1197,2.3667,2.9774,3.2706,3.5886,3.9427,3.9858,4.0756,4.2051,4.0905,4.0876,4.1722,4.1254,4.0834,4.024,3.7984,3.5604,3.3089,3.0397,2.7241,2.3918,0.0,0.0,0.0,0.0,0.0,0.0,0.0,0.0,0.0,0.0,0.0,0.0,0.0,0.0,0.0,0.0,0.0,0.0,0.0,0.0,0.0,0.0,0.0,0.0,0.0,0.0,0.0,0.0,0.0,0.0,0.0,0.0,0.0,0.0,3.4787,3.8841,3.8165,4.2352,4.4107,4.1025,4.1743,4.2562,4.301,4.4895,4.6279,4.6882,4.9058,5.0332,5.0484,5.1149,5.1558,5.1558,5.1295,5.1206,5.1176,5.0308,4.9673,4.9247,4.8379,4.808,4.8252,4.7602,4.7679,4.8231,4.7581,4.677,4.5903,4.5244,4.4317,4.3409,4.3579,4.3389,4.308,0.0,0.0,0.0,0.0,0.0,0.0,0.0,1.5062,1.6033,1.9809,2.369,2.8309,3.4076,3.8151,4.1235,4.313,4.0947,3.7342,3.2371,2.8071,2.3563,1.8679,2.1478,2.618,3.2677,3.4698,3.7576,4.1433,4.1433,4.1433,4.1433,4.0756,4.0427,4.0457,4.0427,4.0427,4.0427,4.0427,3.896,3.6384,3.3699,3.0948,2.8039,0.0,0.0,0.0,0.0,0.0,0.0,0.0,0.0,0.0,0.0,0.0,0.0,0.0,0.0,0.0,0.0,0.0,0.0,0.0,0.0,0.0,0.0,0.0,0.0,0.0,0.0,0.0,0.0,0.0,0.0,0.0,0.0,0.0,2.9966,3.7139,4.1822,3.9989,4.4326,4.698,4.5663,4.7331,4.8933,5.015,5.0837,5.0833,5.0008,5.1341,5.1783,5.1011,5.1763,5.2169,5.2187,5.1558,5.1176,5.1146,4.9935,4.9307,4.9239,4.7938,4.7339,4.7309,4.7309,4.7309,4.7309,4.7309,4.7309,4.7249,4.657,4.5912,4.5214,4.4566,4.4296,4.4177,0.0,0.0,0.0,0.0,0.0,0.0,0.0,1.4445,1.5538,1.9759,2.4111,2.8839,3.413,3.9368,4.2532,4.2631,4.1553,3.862,3.3346,2.8864,2.5149,2.2264,2.7966,3.2508,3.5246,3.8256,4.0565,4.2141,4.2141,4.2361,4.2741,4.1654,4.1373,4.1841,4.1343,4.1134,4.1134,4.1134,4.0445,3.914,3.6948,3.4055,3.0797,0.0,0.0,0.0,0.0,0.0,0.0,0.0,0.0,0.0,0.0,0.0,0.0,0.0,0.0,0.0,0.0,0.0,0.0,0.0,0.0,0.0,0.0,0.0,0.0,0.0,0.0,0.0,0.0,0.0,0.0,0.0,3.2591,3.7133,3.6797,4.1638,4.5933,4.7736,5.0092,5.1432,5.1073,5.1522,5.1541,5.0809,5.0963,5.0503,4.9225,4.9932,5.0571,5.0989,5.1197,5.1605,5.2187,5.1558,5.0966,5.0488,5.0607,4.9942,4.8588,4.8708,4.8207,4.7309,4.7309,4.7309,4.7309,4.7309,4.7309,4.7279,4.71,4.6322,4.5274,4.5095,4.4416,4.3489,0.0,0.0,0.0,0.0,0.0,0.0,0.0,1.3948,1.5652,2.1211,2.5134,2.9658,3.5604,3.9735,4.1953,4.1583,3.9332,3.5916,3.1192,2.6875,2.5131,2.6649,3.1651,3.5665,3.8366,4.0658,4.2122,4.2761,4.2761,4.2821,4.291,4.2182,4.2021,4.2381,4.1991,4.1822,4.1822,4.1822,4.1583,4.1066,3.9125,3.6518,3.363,3.1873,2.9969,2.8192,2.752,2.8275,2.9302,2.7679,0.0,0.0,0.0,0.0,0.0,0.0,0.0,0.0,0.0,0.0,0.0,0.0,0.0,0.0,0.0,0.0,0.0,0.0,0.0,0.0,0.0,0.0,0.0,0.0,3.7198,4.2486,4.4567,4.6893,4.9471,5.2516,5.3563,5.4246,5.4785,5.4018,5.3242,5.2646,5.1524,5.0341,4.9057,4.9721,5.021,5.0449,5.0821,5.1383,5.2193,5.1558,5.0996,5.0637,5.0727,5.0062,4.8708,4.8828,4.8319,4.7309,4.7309,4.716,4.6869,4.6869,4.6869,0.0,0.0,0.0,0.0,0.0,4.4207,4.325,0.0,0.0,0.0,0.0,0.0,0.0,0.0,1.3575,1.6073,2.3265,2.6287,3.0471,3.7508,3.9559,4.03,4.004,3.5772,3.148,2.7617,2.4295,2.5172,3.1247,3.3945,3.7325,4.1654,4.2361,4.296,4.3409,4.3409,4.31,4.25,4.25,4.25,4.25,4.25,4.25,4.25,4.25,4.247,4.2254,4.0526,3.8439,3.6279,3.4751,3.3576,3.2573,3.1352,3.1363,3.1887,3.1561,0.0,0.0,0.0,0.0,0.0,0.0,0.0,0.0,0.0,0.0,0.0,0.0,0.0,0.0,0.0,0.0,0.0,0.0,0.0,0.0,0.0,0.0,0.0,0.0,4.1776,4.7081,5.171,5.2077,5.2755,5.5119,5.5262,5.5577,5.6646,5.4907,5.3874,5.414,5.1961,5.017,4.9114,5.0001,0.0,0.0,0.0,5.1412,5.2282,5.1565,5.1146,5.1086,5.0465,4.983,4.9179,4.8588,4.7938,4.7309,4.7309,4.6958,4.642,4.642,4.633,4.6181,4.6181,4.6151,4.5912,4.4655,4.3818,4.329,0.0,0.0,0.0,0.0,0.0,0.0,0.0,1.333,1.6073,2.3265,2.6287,3.0289,3.6884,3.926,3.9654,3.7827,3.4864,3.1412,2.7403,2.8403,3.0761,3.4405,3.8599,4.1741,4.3698,4.4407,4.4526,4.4117,4.4117,4.3758,4.313,4.313,4.313,4.313,4.313,4.313,4.313,4.313,4.2851,4.2314,4.1526,3.9844,3.7715,3.6864,3.6089,3.5589,3.6807,3.8481,3.9769,3.7554,3.6711,3.5888,3.1797,2.8416,0.0,0.0,0.0,0.0,0.0,0.0,0.0,0.0,0.0,0.0,0.0,0.0,0.0,0.0,0.0,0.0,0.0,0.0,0.0,3.7369,4.4153,4.993,5.2296,5.4563,5.6137,5.6675,5.5621,5.478,5.4543,5.3413,5.2033,5.0499,5.0335,4.9475,4.7623,4.8829,4.9855,5.0492,5.0831,5.1641,5.2995,5.1828,5.0936,5.0398,0.0,0.0,4.8498,4.8379,4.7938,4.7309,4.7309,4.7249,4.713,4.713,4.6471,4.5484,4.5484,4.5155,4.4596,4.3788,4.3409,4.325,0.0,0.0,0.0,0.0,0.0,0.0,0.0,1.3418,1.5839,2.1515,2.4193,2.7338,3.194,3.3396,3.3333,3.1551,2.9242,2.7594,2.6901,2.9872,3.3612,3.7949,4.1469,4.3828,4.4796,4.5125,4.5125,4.4796,4.4796,4.4646,4.4296,4.4296,4.4296,4.4296,4.4296,4.4296,4.4267,4.3938,4.3298,4.2406,4.1211,3.9886,3.8558,3.8913,3.8608,3.8339,4.0515,4.1772,4.2293,4.1566,4.0285,3.8486,3.5498,3.2298,2.8961,0.0,0.0,0.0,0.0,0.0,0.0,0.0,0.0,0.0,0.0,0.0,0.0,0.0,0.0,2.9498,3.1283,0.0,3.907,4.2342,4.7946,5.2347,5.3667,5.5907,5.7298,5.6948,5.594,5.4963,5.4205,5.2715,5.1478,5.0699,4.9646,4.859,4.7562,4.8639,4.9593,5.0161,5.0717,5.1554,5.2695,5.1708,5.1026,5.0697,5.0345,4.971,4.8798,4.8468,4.7938,4.7309,4.7309,4.713,4.6779,4.6441,4.5723,4.4796,4.4796,4.4386,4.3758,4.3409,4.31,4.2851,0.0,0.0,0.0,0.0,0.0,0.0,0.0,1.3618,1.5635,1.9749,2.2041,2.4279,2.6915,2.7416,2.6796,2.4918,2.4111,2.4723,2.711,3.1361,3.6184,4.1508,4.3632,4.5005,4.5663,4.5693,4.5633,4.5484,4.5484,4.5424,4.5304,4.5304,4.5304,4.5304,4.5304,4.515,4.4882,4.4356,4.3437,4.2245,4.057,3.9563,3.9183,4.0237,4.0242,3.9991,4.2247,4.227,4.147,4.3239,4.1628,3.8726,3.7765,3.5375,3.1877,2.6676,2.5375,0.0,0.0,0.0,0.0,0.0,0.0,0.0,0.0,2.7691,2.861,3.1096,3.3019,3.4814,3.6775,3.9505,4.2846,4.7059,5.0986,5.3807,5.4603,5.6164,5.6907,5.6047,5.5366,5.4651,5.3867,5.2033,5.1026,5.134,4.9422,4.8134,4.7908,4.9173,4.9879,4.9913,5.1007,5.1862,5.2396,5.1738,5.1325,5.1176,5.0398,4.9763,4.9247,4.8468,4.7818,4.7287,4.704,4.6705,4.6219,4.5293,4.4679,4.4296,4.4147,4.3788,4.329,4.329,4.3,4.2631,0.0,0.0,0.0,0.0,0.0,0.0,0.0,0.0,1.5778,1.9767,2.1808,2.3698,2.5838,2.6615,2.5379,2.1347,2.4884,2.7971,2.952,3.5573,4.084,4.464,4.563,4.639,4.707,4.707,4.6779,4.6181,4.6181,4.5882,4.5304,4.5304,4.5304,4.5304,4.5304,4.468,4.3589,4.3531,4.2776,4.152,4.0298,3.9764,3.9723,3.9932,3.9585,3.9222,4.0596,3.9342,3.7497,4.0922,3.9661,3.6793,3.7449,3.5661,3.2209,2.6514,2.3539,2.1247,1.7455,1.9277,2.2633,2.4173,2.6559,2.9401,0.0,3.3025,3.3445,3.6349,3.7623,3.8923,4.1087,4.3385,4.5581,4.7576,5.0685,5.3111,5.3652,5.4746,5.4913,5.3414,5.2726,5.2189,5.1611,5.0487,4.9602,4.9179,4.9316,4.8962,4.7958,5.0555,5.1589,5.0602,5.2685,5.3595,5.3109,5.2426,5.1798,5.1176,4.9995,4.9366,4.9247,4.7967,4.7369,4.7244,4.6099,4.5852,4.6156,4.4362,4.3889,4.4237,4.3618,4.3369,4.329,4.329,4.326,4.322,0.0,0.0,0.0,0.0,0.0,0.0,0.0,0.0,0.0,1.7189,1.8326,1.9255,2.016,1.9765,1.8723,1.6877,2.2333,2.7104,3.0051,3.6702,4.214,4.5741,4.651,4.6988,4.7309,4.7309,4.716,4.6869,4.6869,4.6741,4.6471,4.6471,4.6471,4.645,4.5703,4.5054,4.4486,4.3353,4.2182,4.1012,4.015,3.9609,3.9234,3.859,3.795,3.7573,3.8405,3.7424,0.0,3.764,3.6146,3.396,3.5881,3.3749,2.976,2.5735,2.3736,2.3019,2.3851,2.4679,2.6109,2.9622,3.2182,3.4291,3.618,3.6901,3.8161,4.1594,4.3029,4.4243,4.6165,4.7506,4.8786,5.0142,5.2291,5.3686,5.3258,5.3883,5.3644,5.1634,5.0652,5.0164,5.0267,4.9856,4.949,4.9264,4.9464,4.9088,4.7958,5.0756,5.187,5.074,5.2985,5.3892,5.3228,5.2546,5.1858,5.1176,4.9905,4.9277,4.9247,4.7908,4.6909,4.6121,4.4863,4.444,4.4567,4.337,4.2838,4.2725,4.2074,4.1588,4.1491,4.282,4.307,4.2821,0.0,0.0,0.0,0.0,0.0,0.0,0.0,0.0,0.0,0.0,1.6071,1.6255,1.614,1.491,1.4153,1.427,2.0075,2.554,2.982,3.6297,4.179,4.5861,4.6839,4.7309,4.7309,4.7489,4.7489,4.7309,4.7309,4.7309,4.7309,4.7309,4.7309,4.7244,4.5958,4.5207,4.4737,4.301,4.1563,4.0443,3.9979,3.9414,3.8743,3.7462,3.6095,3.4885,3.5353,3.4035,3.2135,3.2489,3.0656,2.871,3.1219,2.967,2.6391,2.3463,2.188,2.1946,2.5825,2.6996,2.8226,3.2801,3.5818,3.7942,3.8858,4.0378,4.2433,4.5447,4.7209,4.8636,4.9841,5.0519,5.1147,5.1975,5.3261,5.3834,5.3026,5.2884,5.2188,5.0406,4.9088,4.8535,4.9088,4.9264,4.9439,4.959,4.959,4.9163,4.8209,5.0836,5.1952,5.0961,5.3072,5.3892,5.3228,5.2546,5.1768,5.0907,4.9816,4.9187,4.8977,4.7458,4.6099,4.4817,4.3527,4.306,4.3153,4.2148,4.1616,4.1354,4.0747,4.025,4.008,4.174,4.2093,4.183,0.0,0.0,0.0,0.0,0.0,0.0,0.0,0.0,0.0,0.0,0.0,0.0,0.0,1.4827,1.427,1.474,1.9186,2.4111,2.9095,3.4565,3.9928,4.5104,4.6591,4.7309,4.7309,4.7938,4.7938,4.7309,4.7309,4.7309,4.7309,4.7309,4.7309,4.7244,4.5958,4.4697,4.348,4.2179,4.0894,3.9749,3.9724,3.9372,3.8718,3.7059,3.4101,3.0903,3.1196,2.816,2.4145,2.4825,2.2649,2.0043,2.2217,2.3036,2.2479,1.9009,1.6286,1.511,1.8349,2.215,2.6212,3.0442,3.5023,3.8961,4.0872,4.364,4.6114,4.7207,4.9407,5.1205,5.1255,5.1674,5.2076,5.2101,5.2587,5.2939,5.2895,5.1532,5.0283,4.969,4.8153,4.735,4.7908,4.846,4.9044,4.9565,4.959,4.9339,4.8818,5.1076,5.2145,5.1595,5.3279,5.3892,5.3228,5.2546,5.1558,5.0226,4.9583,4.8947,4.8274,4.6346,4.4771,4.3504,4.223,4.2006,4.2406,4.0588,4.0233,4.0669,4.0161,3.9913,3.9913,4.0,3.9994,4.0118,0.0,0.0,0.0,0.0,0.0,0.0,0.0,0.0,0.0,0.0,0.0,0.0,0.0,0.0,0.0,0.0,1.9694,2.3619,2.6684,3.3566,3.8652,4.1283,4.4769,4.6839,4.7309,4.7519,4.7728,4.7967,4.7519,4.7309,4.7309,4.7309,4.7309,4.7222,4.5092,4.3905,4.3361,4.1244,4.0286,4.0174,3.9472,3.9271,3.8968,3.4604,3.1581,2.9036,0.0,2.1862,2.0423,1.9887,1.8626,1.7637,1.9855,1.9313,1.7446,1.5561,1.5502,1.7104,2.2019,2.6263,3.0538,3.5788,3.9075,4.1449,4.3161,4.5609,4.7634,4.7956,4.7391,4.6848,4.6848,4.67,4.6823,4.7592,5.0041,5.2101,5.2795,5.2126,5.1046,4.9741,4.8786,4.8008,4.7425,4.755,4.8209,4.949,4.9264,4.8843,4.8234,5.0863,5.198,5.1016,5.3506,5.4311,5.3228,5.2989,5.1977,5.0166,4.8303,4.6593,4.5055,4.3563,4.2641,4.2181,4.0895,4.0438,4.0583,3.9593,3.9308,3.9414,3.8477,3.8088,3.8088,3.8088,3.7878,3.7952,0.0,0.0,0.0,0.0,0.0,0.0,0.0,0.0,0.0,0.0,0.0,0.0,0.0,0.0,0.0,0.0,0.0,2.2137,2.4435,3.0042,3.4174,3.6239,3.9825,4.1981,4.2413,4.26,4.3022,4.3599,4.3789,4.4182,4.4791,4.585,4.6204,4.5869,4.4233,4.3242,4.2689,4.0386,3.9145,3.8617,3.7419,3.6356,3.4989,3.062,2.7334,0.0,1.9145,1.6597,1.5647,1.5355,1.4916,1.4754,1.635,1.5826,1.4681,1.5013,1.6438,1.9228,2.526,2.9174,3.279,3.7966,4.0214,4.1536,4.2841,4.5319,4.7284,4.7028,4.572,4.4426,4.3869,4.2966,4.2505,4.3068,4.6062,4.8912,5.0586,5.0393,4.9916,4.9615,4.8937,4.8184,4.745,4.7375,4.7826,4.8912,4.9038,4.8843,4.8234,5.0863,5.2063,5.132,5.3597,5.4311,5.3228,5.2959,5.1637,4.9178,4.6782,4.4657,4.2786,4.1985,4.1344,4.0895,4.0057,3.9697,3.9647,3.912,3.8768,3.8517,3.7764,3.7386,3.7235,3.7436,3.716,3.7131,0.0,0.0,0.0,0.0,0.0,0.0,0.0,0.0,0.0,0.0,0.0,0.0,0.0,0.0,0.0,0.0,0.0,0.0,2.2485,2.4548,2.7128,3.0391,3.2442,3.3522,3.3607,3.4164,3.4707,3.5157,3.6717,3.8277,3.9934,4.2732,4.368,4.3026,4.2955,4.2273,4.1042,3.9267,3.7262,3.5167,3.3743,3.1056,2.7621,2.5409,2.1747,1.7507,1.5225,1.2436,1.0006,1.1221,1.1565,1.1549,1.1944,1.2885,1.4399,1.7167,1.895,2.1398,2.7669,3.0711,3.3044,3.7038,3.8652,3.9492,4.0294,4.3047,4.5194,4.4429,4.4138,4.3512,4.1866,4.0339,3.9173,3.8764,4.1232,4.4152,4.6876,4.6887,4.7405,4.9439,4.8736,4.8058,4.8008,4.7983,4.7983,4.7958,4.8937,4.9314,4.8818,5.1043,5.2306,5.2365,5.3524,5.3848,5.3258,5.2438,5.0425,4.7223,4.5124,4.3234,4.1544,4.1518,4.0844,3.9697,3.9697,3.9697,3.9647,3.912,3.8592,3.809,3.804,3.7713,3.7361,3.7864,3.7762,3.7667,0.0,0.0,0.0,0.0,0.0,0.0,0.0,0.0,0.0,0.0,0.0,0.0,0.0,0.0,0.0,0.0,0.0,0.0,2.0482,2.3399,2.5688,2.6931,3.0363,3.2674,3.3578,3.3766,3.4136,3.4743,3.47,3.4854,3.5299,3.6039,3.6533,3.6669,3.5718,3.5365,3.5328,3.3922,3.2869,3.2035,3.0828,2.923,2.697,2.1848,1.8611,1.6209,1.1859,0.9647,0.8852,0.9262,1.0758,1.2675,1.4064,1.5691,1.7572,1.9872,2.3052,2.6625,3.0585,3.3946,3.6836,3.8872,3.9785,4.0254,4.043,4.1842,4.2428,4.0213,3.7806,3.5446,3.3335,3.3594,3.4532,3.5859,4.1642,4.6754,4.8946,5.0401,5.1147,5.087,5.0594,5.0092,4.9238,4.9163,4.8987,4.8617,4.8843,4.8944,4.8818,5.0046,5.1098,5.1787,5.2766,5.351,5.3927,5.0851,4.7856,4.4999,4.3166,4.1761,4.077,4.0363,4.0006,3.9697,3.9697,3.9697,3.9647,3.912,3.9044,3.917,3.8341,3.8191,3.8492,3.8617,3.8908,3.9478,0.0,0.0,0.0,0.0,0.0,0.0,0.0,0.0,0.0,0.0,0.0,0.0,0.0,0.0,0.0,0.0,0.0,0.0,0.0,2.1471,2.2694,2.2746,2.5174,2.6854,2.7537,2.7795,2.8231,2.8864,2.9671,3.0211,3.051,3.2063,3.2617,3.2378,3.2442,3.2364,3.2032,3.0753,2.9665,0.0,0.0,2.429,2.2105,1.7855,1.5551,1.4098,1.0364,0.9086,0.9425,1.0974,1.2943,1.4959,1.6315,1.7774,1.9677,2.331,2.6389,2.9471,3.3726,3.6768,3.9004,3.9941,4.0351,4.0234,3.9082,3.9658,3.9513,3.6337,3.355,3.1107,2.9147,2.9664,3.0964,3.291,3.8937,4.4577,4.7911,4.9711,5.0946,5.1574,5.1649,5.1297,5.0419,5.0343,5.0092,4.954,4.9264,4.9069,4.8818,4.9908,5.0681,5.0976,5.1906,5.2233,5.1866,4.8539,4.5949,4.4177,4.2346,4.1131,4.0474,3.9948,3.9697,3.9697,0.0,3.9697,3.9672,3.9396,3.9296,3.9321,3.8894,3.8793,3.8919,3.917,3.9346,3.967,0.0,0.0,0.0,0.0,0.0,0.0,0.0,0.0,0.0,0.0,0.0,0.0,0.0,0.0,0.0,0.0,0.0,0.0,0.0,0.0,1.956,1.9245,1.9522,1.9774,1.9914,2.0354,2.0817,2.1281,2.3653,2.51,2.5678,2.8708,2.9578,2.8655,3.0226,3.031,2.9161,2.8069,2.6529,2.4551,2.1343,1.8449,1.5844,0.0,1.292,1.1848,0.997,0.9832,1.0997,1.4195,1.6214,1.7622,1.873,2.0076,2.2205,2.7182,2.9578,3.1748,3.6866,3.9101,4.0078,4.0508,4.0527,3.9766,3.7168,3.701,3.6311,3.2553,3.0329,2.8623,2.7124,2.7314,2.8479,3.0878,3.5607,4.0813,4.595,4.7702,4.9389,5.1925,5.2226,5.2026,5.1548,5.1456,5.1147,5.0569,5.0017,4.9464,4.8944,5.0054,5.0524,5.0108,5.099,5.0602,4.876,4.633,4.4809,4.4123,4.2223,4.1102,4.0701,4.0099,3.9798,3.9798,3.9722,3.9697,3.9697,3.9697,3.9446,3.9044,3.9522,3.9421,3.907,3.9521,3.9498,3.9398,0.0,0.0,0.0,0.0,0.0,0.0,0.0,0.0,0.0,0.0,2.0242,2.0462,0.0,0.0,0.0,0.0,0.0,0.0,0.0,0.0,0.0,2.044,1.9621,1.9609,2.0609,2.0182,1.9987,2.0087,2.0564,2.0865,2.098,2.1591,2.2009,2.229,2.2596,2.2524,2.2145,2.1942,2.0633,1.8671,1.8032,1.6326,1.4032,1.2896,0.0,0.0,0.9725,1.0542,1.2535,1.4774,1.6891,1.9017,2.141,2.5128,2.9049,3.1018,3.4162,3.7436,3.9498,4.0196,4.0527,4.0957,4.0527,3.9316,3.6719,3.4871,3.2514,2.8337,2.6322,2.4937,2.362,2.4878,2.7789,3.287,3.7321,4.2087,4.781,5.0201,5.1724,5.2644,5.2744,5.2719,5.2619,5.2226,5.1724,5.1172,5.0594,5.0042,4.949,4.9299,4.9261,4.9446,5.0366,4.991,4.7925,4.6534,4.5187,4.383,4.2114,4.1503,4.1858,4.0827,4.0349,4.035,3.9898,0.0,3.9697,3.9697,3.9647,3.9572,3.9647,3.9647,3.9572,3.9672,4.0313,4.1162,0.0,0.0,0.0,0.0,0.0,0.0,0.0,1.9756,2.0778,2.2236,2.2663,2.2598,2.197,2.1432,2.0993,0.0,0.0,0.0,0.0,0.0,0.0,0.0,2.0263,2.0212,2.0795,2.0745,2.0437,1.9811,0.0,2.0388,1.9811,2.0125,2.0251,2.0238,2.0165,2.0079,1.9904,1.8678,1.78,1.7057,1.5477,1.4386,1.3593,0.0,0.0,0.0,1.0851,1.1781,1.3276,1.4938,1.7431,2.0264,2.2767,2.6416,3.0166,3.2413,3.5266,3.816,4.055,4.1016,4.0957,4.1387,4.0508,3.8574,3.4863,3.2519,2.9844,2.5312,2.3867,2.3142,2.2344,2.4316,2.7347,3.1317,3.5741,4.0654,4.6353,4.9002,5.1021,5.2694,5.2895,5.2895,5.2895,5.2176,5.1574,5.1331,5.0469,4.9866,4.9615,4.8786,4.8432,4.8557,4.8195,4.7521,4.6563,4.5433,4.4502,4.379,4.2409,4.1934,4.2187,4.1304,4.075,4.0501,4.0249,3.9948,3.9697,3.9697,3.9697,3.9697,3.9697,3.9697,3.9697,3.9697,4.0109,4.0592,0.0,0.0,0.0,0.0,0.0,0.0,0.0,2.0968,2.1834,2.4054,2.4616,2.434,2.315,2.2422,2.1758,0.0,0.0,0.0,0.0,0.0,0.0,0.0,0.0,0.0,2.1005,0.0,0.0,1.9987,2.1005,0.0,0.0,0.0,0.0,0.0,1.9451,1.914,1.856,1.6717,1.6058,0.0,0.0,1.2979,1.3335,0.0,0.0,0.0,0.0,1.2833,1.3498,1.5006,1.7422,2.0227,2.2539,2.6056,2.9864,3.2627,3.5253,3.7945,4.0859,4.1426,4.1289,4.1582,4.0293,3.7734,3.3234,3.0713,2.8034,2.3457,2.2441,2.2305,2.207,2.3987,2.6512,2.9464,3.3157,3.7862,4.4227,4.6826,4.9207,5.2368,5.282,5.2895,5.2895,5.2151,5.1548,5.1331,5.0243,4.954,4.9414,4.846,4.7857,4.7732,4.6401,4.5673,4.5673,4.4669,4.4166,4.4141,4.2703,4.2041,4.2016,4.129,4.0668,4.0174,4.0392,4.0199,3.9697,3.9697,3.9697,3.9697,3.9697,3.9697,3.9697,3.9697,3.9697,3.9697,0.0,0.0,0.0,0.0,0.0,0.0,0.0,2.1845,2.2949,2.5159,2.5067,2.4917,2.5259,2.4381,2.3326,0.0,0.0,0.0,0.0,0.0,0.0,0.0,0.0,0.0,0.0,0.0,0.0,2.0616,2.1206,0.0,0.0,0.0,0.0,0.0,0.0,1.7619,1.5669,1.5467,0.0,0.0,0.0,0.0,0.0,0.0,0.0,0.0,0.0,1.2994,1.316,1.5105,1.6328,1.7435,1.9546,2.4874,3.0607,3.1822,3.5409,3.9326,4.084,4.125,4.123,4.1269,3.9629,3.7012,3.3098,3.0243,2.7285,2.332,2.2207,2.2051,2.2362,2.2676,2.4496,2.9525,3.0709,3.4209,4.3288,4.5171,4.7268,5.164,5.2594,5.2895,5.2895,5.2795,5.2352,5.1348,5.0243,4.9364,4.8894,4.8259,4.7682,4.7199,4.6547,4.6225,4.6225,4.5623,4.5321,4.5321,4.2725,4.1468,4.1444,4.0411,3.9619,3.9097,4.0065,4.0199,0.0,3.9697,3.9697,3.9697,3.9697,3.9697,3.9697,3.9697,3.9697,3.9697,0.0,0.0,0.0,0.0,0.0,0.0,2.1727,2.2157,2.3226,2.5804,2.6231,2.6264,2.6155,2.5753,2.4648,2.2483,0.0,0.0,0.0,0.0,0.0,0.0,0.0,0.0,0.0,0.0,2.1458,2.1181,2.1407,0.0,0.0,0.0,0.0,0.0,0.0,1.6139,1.4521,1.3754,0.0,0.0,0.0,0.0,0.0,0.0,0.0,0.0,0.0,0.0,1.3487,1.4754,1.6082,1.7352,1.8301,2.2441,2.7517,3.0258,3.423,3.8184,4.0585,4.1211,4.1269,4.1484,3.9141,3.5976,3.2902,2.9598,2.6269,2.3123,2.2383,2.2305,2.2459,2.2693,2.3718,2.6351,2.7693,3.0767,3.7483,3.9502,4.2618,4.8828,4.9766,5.0662,5.2694,5.2628,5.1975,5.0845,5.0343,4.9715,4.8843,4.8592,4.8184,4.7575,4.7048,4.6116,4.4767,4.4202,4.3289,4.1986,4.0574,3.9737,3.9446,3.9026,3.8844,3.8943,3.933,3.9603,0.0,3.9697,3.9697,3.9697,3.9697,3.9697,3.9697,3.9697,3.9697,3.9697,0.0,0.0,0.0,0.0,0.0,2.0313,2.1845,2.2196,2.3251,2.5896,2.6432,2.6557,2.6499,2.6072,2.4949,2.2975,2.2633,0.0,0.0,0.0,0.0,0.0,0.0,0.0,0.0,0.0,2.1854,2.1339,2.1527,2.0928,0.0,0.0,1.8516,1.6442,0.0,0.0,0.0,0.0,0.0,0.0,0.0,0.0,0.0,0.0,0.0,0.0,0.0,0.0,0.0,0.0,0.0,1.7479,1.7712,2.048,2.4374,2.8133,3.2431,3.6538,3.9314,4.0488,4.1074,4.1504,3.8691,3.5215,3.2891,2.9285,2.5723,2.3379,2.2771,2.2674,2.2674,2.3025,2.3513,2.4118,2.5525,2.8251,3.3243,3.5279,3.8695,4.542,4.6351,4.7757,5.1088,5.1699,5.1523,5.0745,5.0368,4.9766,4.8843,4.8323,4.7936,4.7676,4.6637,4.5342,4.3731,4.2691,4.1414,3.9904,3.8785,3.8086,3.7734,3.7572,3.7751,3.8246,3.8693,3.9213,0.0,3.9697,3.9697,3.9697,3.9697,3.9697,3.9697,3.9697,3.9697,3.9697,0.0,0.0,0.0,0.0,0.0,0.0,2.1331,2.197,2.31,2.531,2.5143,2.5243,2.6373,2.5025,2.4004,2.3979,2.3436,0.0,0.0,0.0,0.0,0.0,0.0,0.0,0.0,0.0,2.2537,2.1024,2.1592,2.067,1.8327,1.8327,1.7141,1.5003,0.0,0.0,0.0,0.0,0.0,0.0,0.0,0.0,1.324,0.0,0.0,0.0,0.0,0.0,0.0,0.0,0.0,0.0,0.0,1.9436,2.2005,2.5374,3.0022,3.4603,3.6758,3.8906,4.0644,4.1074,3.8262,3.4941,3.3184,2.9473,2.5898,2.4163,2.3415,2.3081,2.3081,2.3496,2.3811,2.3789,2.4558,2.6941,3.2191,3.3771,3.6379,4.1638,4.2738,4.4317,4.7631,4.9992,5.1306,5.1306,5.0243,4.9364,4.8843,4.7158,4.6512,4.7087,4.4911,4.3731,4.37,4.1602,4.0514,4.0451,3.7914,3.6738,3.6717,3.6108,3.6114,3.6687,3.8246,3.9213,0.0,3.9697,3.9697,3.9697,3.9697,3.9697,3.9697,3.9697,3.9697,3.9697,0.0,0.0,0.0,0.0,0.0,0.0,0.0,2.1094,2.201,2.4205,2.4356,2.4682,2.5778,2.5084,2.4611,2.4734,2.4224,0.0,0.0,0.0,0.0,0.0,0.0,0.0,0.0,0.0,2.1685,2.1616,2.0577,1.936,1.8002,1.7314,1.5868,1.3835,1.3741,1.2974,0.0,0.0,0.0,0.0,0.0,1.312,1.322,0.0,0.0,0.0,0.0,0.0,0.0,0.0,0.0,0.0,0.0,0.0,0.0,2.3732,2.6969,3.0586,3.2754,3.4277,3.5273,3.541,3.3418,3.1221,3.0332,2.75,2.4805,2.3965,2.3415,2.3101,2.3101,2.322,2.3513,2.4098,2.4453,2.5698,2.8852,3.1887,3.5706,4.0901,4.642,5.0193,5.1214,5.1649,5.1674,5.1331,4.9427,4.8046,4.7456,4.5402,4.4584,4.5375,4.3557,4.1808,4.0246,3.9217,3.7995,3.6541,3.5457,3.4779,3.4447,3.4255,3.5051,3.6573,3.6055,3.7303,3.962,3.8608,3.8792,3.9697,3.9697,3.9697,3.9697,3.9697,3.9697,3.9697,0.0,0.0,0.0,0.0,0.0,0.0,0.0,2.0911,2.1691,2.3503,2.3733,2.4121,2.5175,2.4616,2.4378,2.4942,2.4562,0.0,0.0,0.0,0.0,0.0,0.0,0.0,0.0,2.1686,2.0708,2.0554,1.9064,1.7764,1.6634,1.6008,1.4796,1.3111,1.2981,1.2469,0.0,0.0,0.0,0.0,1.3039,1.3133,1.3086,0.0,0.0,0.0,0.0,0.0,0.0,0.0,0.0,0.0,0.0,0.0,0.0,0.0,2.4508,2.6953,2.9737,3.1523,3.2637,3.2949,3.1289,2.9481,2.9023,2.6557,2.4297,2.3867,2.3415,2.3101,2.3101,2.3237,2.3474,2.3845,2.4313,2.5621,2.8344,3.1669,3.5852,4.1257,4.7296,5.1013,5.1013,5.0983,5.0783,5.0275,4.795,4.626,4.5505,4.332,4.2226,4.2561,4.1505,4.0201,3.8618,3.7315,3.6005,3.4687,3.4101,3.3989,3.4289,3.3682,3.4584,3.6573,3.562,3.6606,0.0,3.8504,3.8868,3.9697,3.9697,3.9697,3.9697,3.9697,3.9697,3.9697,0.0,0.0,0.0,0.0,0.0,0.0,0.0,2.1206,2.1944,2.3035,2.3177,2.3543,2.4504,2.3722,2.3562,2.4721,0.0,0.0,0.0,0.0,0.0,0.0,0.0,0.0,2.1799,2.0758,1.9566,1.82,1.7224,1.6015,1.4618,1.4589,1.3943,1.2811,1.251,1.2345,0.0,0.0,0.0,0.0,1.2959,1.3032,0.0,0.0,0.0,0.0,0.0,0.0,0.0,0.0,0.0,0.0,0.0,0.0,0.0,0.0,0.0,0.0,0.0,3.0039,3.1788,3.2539,3.0957,2.9129,2.8691,2.6381,0.0,2.3867,2.3415,2.3101,2.314,2.3474,2.3633,2.3237,2.4238,2.6334,3.0,3.3136,3.717,4.2784,4.6301,4.8171,4.7946,4.8612,4.8845,4.8336,4.5918,4.4073,4.3195,4.1135,3.9678,3.9083,3.9041,3.8825,3.842,3.5923,3.4707,3.4687,3.3828,3.4164,3.556,3.407,3.4574,0.0,3.6409,3.673,3.7545,3.889,3.9489,3.9567,3.9671,3.9697,3.9697,3.9697,3.9697,3.9697,0.0,0.0,0.0,0.0,0.0,0.0,0.0,0.0,0.0,0.0,2.1932,2.2181,2.2839,2.302,2.3614,0.0,0.0,0.0,0.0,0.0,0.0,0.0,0.0,0.0,2.0767,1.9272,1.8078,1.7223,1.5837,1.5084,1.4974,1.4446,1.3811,1.3093,1.3026,1.2732,0.0,0.0,0.0,0.0,1.2912,1.2979,0.0,0.0,0.0,0.0,1.613,1.7592,0.0,0.0,0.0,0.0,0.0,0.0,0.0,0.0,2.3045,2.3396,2.4648,0.0,2.5825,2.5996,2.584,2.5605,0.0,2.4687,2.3906,2.3809,2.3415,2.322,2.3574,2.3415,2.3454,2.4001,2.4352,2.5762,2.9203,3.6464,4.3076,4.7527,5.0243,5.0803,4.8426,4.8465,4.7992,4.6408,4.3678,4.1989,4.1776,3.9657,3.8231,3.7758,3.7455,3.7078,3.6606,3.5336,3.4707,3.4687,3.3828,3.3607,3.3965,3.3576,3.4112,3.5346,3.4195,3.4889,3.6787,3.6814,3.745,3.8562,3.9381,3.9697,3.9697,3.9697,3.9697,3.9697,0.0,0.0,0.0,0.0,0.0,0.0,0.0,0.0,0.0,0.0,0.0,2.2005,2.2261,2.2769,0.0,0.0,0.0,0.0,0.0,0.0,0.0,0.0,0.0,1.9588,1.9246,1.7647,1.6561,1.607,1.4914,1.4604,1.5036,1.4525,1.3954,1.3367,1.2973,1.2612,0.0,0.0,0.0,1.3058,1.3699,0.0,0.0,0.0,0.0,0.0,1.6888,1.8233,0.0,2.0876,2.1368,2.166,0.0,0.0,0.0,0.0,2.2967,2.3162,2.3415,2.3769,2.4121,2.4339,2.4574,2.4668,2.4449,2.4102,2.373,2.3513,2.3279,2.3181,2.3415,2.3435,2.3571,2.4062,2.4961,2.723,3.1893,3.8335,4.3762,4.7098,4.8542,4.886,4.7794,4.6793,4.5676,4.4415,4.1844,4.0135,3.9765,3.8422,3.7441,3.7031,3.6601,3.625,3.5982,3.5137,3.4707,3.4687,3.3828,3.3776,3.4456,3.3745,3.4037,3.5035,3.4177,3.4882,3.6643,3.6853,3.7805,3.9236,3.9561,3.9697,3.9697,3.9697,3.9284,3.8687,0.0,0.0,0.0,0.0,0.0,0.0,0.0,0.0,0.0,0.0,0.0,0.0,0.0,0.0,0.0,0.0,0.0,0.0,0.0,0.0,0.0,0.0,1.9597,1.8006,1.7539,1.6013,1.5103,1.4871,1.4296,1.4322,1.4919,1.4683,1.4234,1.356,1.2726,1.2345,0.0,0.0,1.313,1.3237,1.4643,0.0,0.0,0.0,0.0,0.0,0.0,0.0,0.0,2.1446,2.1484,2.1327,2.2069,0.0,0.0,0.0,0.0,0.0,2.3062,2.3884,2.4727,2.4789,2.4848,2.4789,2.4316,2.3945,2.3574,2.3179,2.3101,2.314,2.3257,2.361,2.3926,2.4062,2.6335,3.0062,3.5871,3.9637,4.2593,4.4689,4.5169,4.5561,4.6217,4.4546,4.3115,4.2407,4.0355,3.8769,3.7933,3.7519,3.7109,3.6714,3.625,3.5982,3.5982,3.5215,3.4766,3.4687,3.3906,3.4161,3.5376,3.4007,3.3964,3.4907,0.0,0.0,3.6207,3.7386,3.8632,3.9791,3.9742,3.9543,3.9362,3.9362,3.8451,3.716,0.0,0.0,0.0,0.0,0.0,0.0,0.0,0.0,0.0,0.0,0.0,0.0,0.0,0.0,0.0,0.0,0.0,0.0,0.0,0.0,0.0,1.7886,1.7915,1.7299,1.5899,1.4633,1.3937,1.3845,1.3722,1.3994,1.4567,1.4825,1.4442,1.3573,1.2992,1.2583,1.2318,0.0,1.3479,1.4514,1.4774,0.0,0.0,0.0,0.0,0.0,0.0,0.0,0.0,2.0762,2.0977,2.121,2.1346,0.0,0.0,0.0,0.0,0.0,2.2906,2.4567,2.5664,2.3864,2.3711,2.3867,2.3415,2.3237,2.3201,2.3101,2.3101,2.3337,2.4059,2.4254,2.4547,2.5289,2.9591,3.4148,3.7891,4.1706,4.4233,4.4637,4.5843,4.5753,4.333,4.2968,4.2212,4.0464,3.9306,3.8457,3.7913,3.7519,3.7109,3.6714,3.625,3.5982,3.5982,3.5527,3.5078,3.4687,3.4199,3.3897,3.3745,3.3513,3.3505,3.3677,0.0,3.3565,3.3568,3.5882,3.6725,3.6796,3.8881,3.8947,3.7822,3.7822,3.6892,3.5645,0.0,0.0,0.0,0.0,0.0,0.0,0.0,0.0,0.0,0.0,0.0,0.0,0.0,0.0,0.0,0.0,0.0,0.0,0.0,0.0,1.7786,1.6315,1.6167,1.5701,1.4819,1.3903,1.3648,1.41,1.4282,1.4656,1.5194,1.4883,1.4255,1.338,1.312,1.3157,1.3476,1.3944,1.4844,1.5998,0.0,0.0,0.0,0.0,0.0,0.0,0.0,0.0,0.0,0.0,2.0898,2.0879,2.0879,0.0,0.0,0.0,0.0,0.0,2.2363,2.3535,2.4593,2.4258,2.5371,2.6387,2.5723,2.5386,2.5074,2.4602,2.4504,2.4567,2.4746,2.5723,2.7402,3.0108,3.31,3.5768,3.7654,3.9702,4.1154,4.1572,4.2265,4.2367,4.1433,4.1312,4.0735,3.9606,3.8711,3.8027,3.7617,3.7187,3.6758,3.6328,3.6133,3.5918,3.5684,3.5488,3.5156,3.4687,3.4043,3.3613,3.3386,3.3386,3.3386,3.3386,0.0,3.3664,3.4166,3.5045,3.5654,3.61,3.6967,3.6915,3.6217,3.5403,3.4709,3.3985,0.0,0.0,0.0,0.0,0.0,0.0,0.0,0.0,0.0,0.0,0.0,0.0,0.0,0.0,0.0,0.0,0.0,0.0,0.0,0.0,1.6448,1.5171,1.4816,1.4621,1.4551,1.4022,1.4267,1.5318,1.5602,1.5813,1.5901,1.5503,1.4741,1.3691,1.3949,1.4374,1.4909,1.5455,1.6281,1.7374,0.0,0.0,0.0,0.0,0.0,0.0,0.0,0.0,0.0,0.0,0.0,0.0,0.0,0.0,0.0,2.0104,2.0462,2.0974,2.1202,2.2016,2.3131,2.4405,2.6231,2.7793,2.8073,2.7539,2.6967,2.6928,2.683,2.6596,2.6074,2.7578,3.0137,3.3945,3.5661,3.6861,3.7834,3.8383,3.89,3.953,3.9491,3.9706,4.0428,4.0039,3.959,3.9238,3.8496,3.7891,3.7461,3.7051,3.6621,3.6191,3.6074,3.5859,3.5547,3.5332,3.5,3.4551,3.3887,3.3516,3.3386,3.3386,3.3386,3.3386,3.3386,3.3862,3.4631,3.4473,3.4868,3.5511,3.5379,3.5096,3.4598,3.3134,3.2587,3.2436,0.0,0.0,0.0,0.0,0.0,0.0,0.0,0.0,0.0,0.0,0.0,0.0,0.0,0.0,0.0,0.0,0.0,0.0,0.0,0.0,1.4506,1.3426,1.4267,1.5033,1.5576,1.5423,1.6127,1.7753,1.7912,1.7397,1.6279,1.7281,1.6826,1.5188,1.6189,1.6486,1.6287,1.6627,1.7398,1.8417,1.8834,0.0,0.0,0.0,0.0,0.0,0.0,0.0,0.0,0.0,0.0,0.0,0.0,0.0,1.8092,1.8322,1.8249,1.8267,1.9087,2.0483,2.2018,2.3305,2.389,2.5102,2.866,2.8184,2.7676,3.0039,3.0176,2.9629,2.8762,2.9766,3.1475,3.3782,3.6162,3.8331,4.0015,4.0659,4.0972,4.1052,4.0642,4.0428,4.0508,3.9746,3.9238,3.9199,3.8789,3.834,3.7874,3.748,3.7051,3.6675,3.623,3.5996,3.5976,3.5156,3.4531,3.4153,3.4095,3.3809,3.3386,3.3386,3.3386,3.3386,3.3386,3.3246,3.3063,3.3996,3.4198,3.3966,3.4935,3.4459,3.3077,3.1594,3.1054,3.1113,0.0,0.0,0.0,0.0,0.0,0.0,0.0,0.0,0.0,0.0,0.0,0.0,0.0,0.0,0.0,0.0,0.0,0.0,0.0,1.3615,1.4084,1.4729,1.5135,1.6034,1.754,1.7041,1.7371,1.8686,1.8621,1.8229,1.7594,1.7788,1.7298,1.6316,1.6881,1.7355,1.7726,1.8055,1.882,1.9812,1.9944,2.0235,0.0,0.0,0.0,0.0,0.0,0.0,0.0,0.0,1.7423,1.7063,1.7112,1.7434,1.7746,1.7376,1.7528,1.7832,1.7945,1.9331,2.1174,2.3033,2.3614,2.4987,2.9686,3.0488,3.0644,3.2148,3.2754,3.2734,3.1845,3.3008,3.4512,3.5859,3.8027,3.9863,4.0801,4.1113,4.1211,4.1211,4.1035,4.0723,4.0176,3.9824,3.9414,3.8848,3.8164,3.7715,3.7539,3.6875,3.6426,3.6269,3.6079,3.5898,3.5625,3.5019,3.4492,3.4095,3.3789,3.3574,3.3386,3.3386,3.325,3.3027,3.3027,3.2637,3.2022,3.2426,3.2352,3.1989,3.2412,3.237,3.2024,3.1476,3.1269,3.1348,0.0,0.0,0.0,0.0,0.0,0.0,0.0,0.0,0.0,0.0,0.0,0.0,0.0,0.0,0.0,0.0,0.0,0.0,1.3093,1.3374,1.4236,1.5796,1.6283,1.7288,1.8939,1.8775,1.9021,1.9747,2.0027,1.9674,1.8774,1.9012,1.8548,1.7603,1.8099,1.8708,1.9346,1.9306,1.9695,2.0352,2.01,1.9964,0.0,0.0,0.0,0.0,0.0,0.0,0.0,0.0,1.6297,1.6012,1.6,1.6412,1.6819,1.6319,1.6576,1.6983,1.6649,1.7899,1.9827,2.2129,2.3434,2.5609,3.1069,3.2276,3.2785,3.4824,3.5078,3.4785,3.4316,3.5181,3.6309,3.7168,3.9219,4.084,4.1133,4.1211,4.1152,4.0976,4.0859,4.0488,3.9746,3.9434,3.9082,3.865,3.7773,3.7363,3.748,3.668,3.623,3.623,3.6094,3.582,3.5391,3.4922,3.4492,3.4095,3.3633,3.3386,3.3386,3.3386,3.3262,3.2988,3.2851,3.2461,3.1914,3.1777,3.1465,3.1094,3.123,3.1387,3.1513,3.168,3.1719,3.1777,0.0,0.0,0.0,0.0,0.0,0.0,0.0,0.0,0.0,0.0,0.0,0.0,0.0,0.0,0.0,0.0,0.0,0.0,1.3647,1.4015,1.4799,1.6154,1.7555,1.8703,1.9577,2.0628,2.119,2.119,2.2457,2.1867,1.9595,2.1148,2.0839,1.9036,2.0118,2.082,2.1112,2.0255,1.9884,1.979,1.8993,1.8528,0.0,0.0,0.0,0.0,0.0,0.0,0.0,0.0,1.4963,1.4135,1.4407,1.4723,1.5008,1.4995,1.5186,1.5347,1.5053,1.6077,1.7827,2.0377,2.3128,2.6798,3.2739,3.3137,3.3567,3.8242,3.7187,3.5547,3.5957,3.6001,3.6328,3.7168,3.9473,4.1211,4.1211,4.1211,4.1016,4.0586,4.0156,3.9707,3.9258,3.8437,3.8105,3.8571,3.7773,3.748,3.7855,3.7129,3.6695,3.6695,3.625,3.582,3.5391,3.4922,3.4492,3.4095,3.3633,3.3386,3.3386,3.3386,3.3386,3.3367,3.2969,3.2793,3.2754,3.2355,3.1894,3.1562,3.2022,3.1894,3.1552,3.2042,3.2198,3.2257,0.0,0.0,0.0,0.0,0.0,0.0,0.0,0.0,0.0,0.0,0.0,0.0,0.0,0.0,0.0,0.0,0.0,0.0,1.4691,1.5029,1.5846,1.7338,1.7974,1.876,1.9793,1.9724,1.9933,2.0509,2.0687,1.9875,1.8151,1.9425,1.9109,1.7643,1.9974,1.9954,1.8215,1.8703,1.8478,1.7765,1.7518,1.7646,1.7846,0.0,0.0,0.0,0.0,0.0,0.0,0.0,0.0,0.0,1.4055,1.4584,1.4928,1.4491,1.4718,1.5013,1.4504,1.6661,1.9527,2.1561,2.5152,2.9427,3.3992,3.4453,3.5039,3.8906,3.8594,3.7578,3.7402,3.7851,3.8144,3.7793,3.9414,4.082,4.1133,4.0918,4.0664,4.0508,4.0156,3.9707,3.9258,3.8711,3.8301,3.8125,3.7324,3.6949,3.7031,3.6523,3.6211,3.6211,3.6094,3.582,3.5391,3.4922,3.4492,3.4095,3.3633,3.3386,3.3386,3.3386,3.3262,3.2969,3.2539,3.2187,3.1855,3.1445,3.1191,3.1113,3.1543,3.1816,3.2031,3.2492,3.2598,3.2676,0.0,0.0,0.0,0.0,0.0,0.0,0.0,0.0,0.0,0.0,0.0,0.0,0.0,0.0,0.0,0.0,0.0,0.0,0.0,1.5907,1.6738,1.8378,1.862,1.9013,1.9693,1.8985,1.8541,1.8401,1.8932,1.8429,1.7082,1.8198,1.8118,1.714,1.914,1.9018,1.7346,1.7652,1.7332,1.6597,1.6311,1.6412,1.6623,0.0,0.0,0.0,0.0,0.0,0.0,0.0,0.0,0.0,1.378,1.4242,1.4611,1.4491,1.4785,1.5186,1.5294,1.7445,2.0363,2.3382,2.71,3.1167,3.5641,3.6836,3.7656,3.9941,3.9551,3.8848,3.8908,3.9082,3.9141,3.8947,3.998,4.082,4.0898,4.0684,4.0352,4.0039,3.9766,3.9375,3.875,3.832,3.7949,3.7695,3.6894,3.6484,3.6695,3.625,3.5982,3.5982,3.5982,3.5723,3.5117,3.4844,3.4394,3.3809,3.3555,3.3386,3.3386,3.3211,3.3027,3.2754,3.2168,3.1758,3.1474,3.125,3.125,3.1475,3.1855,3.2187,3.2511,3.2891,3.3047,3.3086,0.0,0.0,0.0,0.0,0.0,0.0,0.0,0.0,0.0,0.0,0.0,0.0,0.0,0.0,0.0,0.0,0.0,0.0,0.0,0.0,1.7361,1.9074,1.9136,1.9145,1.9217,1.8253,1.704,1.5627,1.7185,1.7315,1.61,1.7257,1.7524,1.6993,1.7844,1.7984,1.756,1.6821,1.6276,1.5831,1.5166,1.4913,1.4856,1.3926,0.0,0.0,0.0,0.0,0.0,0.0,0.0,0.0,1.36,1.3847,1.425,1.4758,1.5186,1.5725,1.6898,1.8426,2.0833,2.5608,2.9221,3.2877,3.7742,3.9726,4.0664,4.0996,4.0156,3.9629,4.043,3.9922,3.9648,4.0449,4.0879,4.0976,4.0586,4.0411,4.0098,3.9297,3.916,3.8828,3.7972,3.7539,3.7285,3.7246,3.6484,3.6191,3.6616,3.623,3.5982,3.5982,3.5942,3.5547,3.4707,3.4668,3.4238,3.3386,3.3386,3.3367,3.3328,3.2969,3.2754,3.2637,3.1855,3.1474,3.1465,3.1465,3.1719,3.2179,3.2609,3.2754,3.2851,3.323,3.3386,3.3386,0.0,0.0,0.0,0.0,0.0,0.0,0.0,0.0,0.0,0.0,0.0,0.0,0.0,0.0,0.0,0.0,0.0,0.0,0.0,0.0,1.7043,1.8008,1.784,1.774,1.7755,1.6524,1.5583,1.4993,1.5723,1.5216,1.3606,1.5478,1.5657,1.4507,1.7175,1.6942,1.459,1.5013,1.4558,1.3515,1.3369,1.3549,1.3879,1.3447,1.3247,0.0,0.0,0.0,0.0,0.0,0.0,0.0,1.3533,1.3959,1.4402,1.433,1.516,1.627,1.7005,1.9466,2.291,2.736,3.3244,3.8406,4.0217,4.084,4.0859,4.0293,4.0469,4.0839,4.0996,4.0917,4.082,4.0996,4.082,4.0625,4.0489,3.9922,3.9414,3.9219,3.8906,3.8496,3.7933,3.7539,3.7168,3.6871,3.6309,3.6021,3.6152,3.604,3.5982,3.5982,3.5703,3.5254,3.4707,3.4375,3.3945,3.3386,3.3386,3.3211,3.293,3.2832,3.2422,3.1777,3.1572,3.1328,3.1035,3.1035,3.1269,3.1699,3.2159,3.2531,3.2851,3.323,3.3386,3.3386,0.0,0.0,0.0,0.0,0.0,0.0,0.0,0.0,0.0,0.0,0.0,0.0,0.0,0.0,0.0,0.0,0.0,0.0,0.0,0.0,1.6023,1.6256,1.5965,1.5651,1.5316,1.389,1.3029,1.2781,1.2796,1.2798,1.283,1.4333,1.4601,1.3923,1.5886,1.5583,1.3627,1.3903,1.3557,1.2816,1.2945,1.316,1.342,1.3407,1.322,1.3032,1.316,0.0,0.0,0.0,0.0,0.0,0.0,0.0,1.3954,1.441,1.5173,1.623,1.7809,1.9913,2.3124,2.9316,3.5577,4.0371,4.1054,4.1211,4.1093,4.0644,4.0898,4.1211,4.1211,4.0996,4.0859,4.0859,4.0508,4.0137,3.9922,3.9492,3.9121,3.8926,3.8747,3.832,3.7695,3.7422,3.7031,3.6406,3.6152,3.5982,3.5982,3.5982,3.5903,3.5723,3.5508,3.5078,3.4394,3.4212,3.3848,3.3386,3.3386,3.3203,3.2793,3.2363,3.1836,3.1211,3.1211,3.1094,3.0898,3.1113,3.1445,3.1875,3.2335,3.2734,3.3125,3.3308,3.3386,3.3386,0.0,0.0,0.0,0.0,0.0,0.0,0.0,0.0,0.0,0.0,0.0,0.0,0.0,0.0,0.0,0.0,0.0,0.0,0.0,0.0,0.0,1.3936,1.3709,1.3339,1.2721,1.1419,1.0648,1.0473,1.0039,1.0704,1.2382,1.3306,1.3881,1.4129,1.4611,1.4402,1.3653,1.334,1.3066,1.2891,1.3106,1.3193,1.322,1.346,1.3253,1.2904,1.312,1.3072,1.2878,1.2918,0.0,0.0,0.0,0.0,1.3547,1.4544,1.5186,1.6046,1.8384,2.0582,2.4013,3.1489,3.6948,4.0644,4.1074,4.1211,4.1211,4.1211,4.1152,4.1055,4.1055,4.0703,4.043,4.0469,4.0098,3.9668,3.9355,3.9199,3.8965,3.865,3.8611,3.8278,3.7383,3.7305,3.6953,3.6094,3.5982,3.5982,3.5982,3.5923,3.5742,3.541,3.5234,3.4805,3.4114,3.3958,3.3711,3.3386,3.3308,3.3047,3.2559,3.1836,3.1367,3.1113,3.1035,3.0996,3.1035,3.1367,3.1777,3.2237,3.2589,3.2988,3.3386,3.3386,3.3347,3.332,0.0,0.0,0.0,0.0,0.0,0.0,0.0,0.0,0.0,0.0,1.6018,0.0,0.0,0.0,0.0,0.0,0.0,0.0,1.3866,0.0,0.0,1.0835,1.1088,1.1205,1.111,1.0678,1.0305,0.9988,0.9697,0.9897,1.0564,1.1792,1.2983,1.4095,1.4183,1.4156,1.3988,1.344,1.3186,1.316,1.32,1.3193,1.3193,1.3233,1.3213,1.316,1.32,1.3186,1.3186,1.342,1.348,0.0,0.0,0.0,1.4001,1.4183,1.5146,1.6364,1.7259,2.2852,2.9514,3.4027,3.7839,4.0644,4.1074,4.1211,4.1211,4.1211,4.0879,4.0567,4.0567,4.0254,4.0098,4.043,3.9824,3.9414,3.9766,3.9141,3.8669,3.8611,3.8611,3.8278,3.7383,3.7305,3.6953,3.6094,3.5982,3.5982,3.5982,3.5664,3.5449,3.5391,3.4681,3.4231,3.4114,3.334,3.3125,3.3386,3.3047,3.2461,3.165,3.1533,3.1699,3.2003,3.1601,3.1426,3.1416,3.1474,3.1777,3.2198,3.2257,3.2734,3.3386,3.3386,3.3184,3.293,0.0,0.0,0.0,0.0,0.0,0.0,0.0,0.0,0.0,0.0,0.0,1.5649,0.0,0.0,0.0,1.3567,1.3041,1.2311,1.1255,1.0782,1.0152,0.9232,0.9613,0.9592,0.9027,0.8704,0.8449,0.8217,0.7951,0.8427,0.959,1.0147,1.1511,1.3485,1.3337,1.3574,1.4063,1.3454,1.3193,1.3207,1.3367,1.3634,1.39,1.3761,1.3801,1.3874,0.0,0.0,1.3233,1.3507,1.3493,1.3407,1.3547,0.0,0.0,0.0,1.5704,1.7213,2.068,2.5709,3.0846,3.4576,3.7671,3.9902,4.0351,4.084,4.1152,4.0859,4.0664,4.0489,4.0489,4.0176,3.9863,3.9805,3.9258,3.8926,3.9121,3.8865,3.8611,3.8611,3.8611,3.8278,3.7383,3.7305,3.6953,3.6094,3.5801,3.5664,3.5664,3.5254,3.4902,3.4701,3.431,3.388,3.3359,3.2988,3.2891,3.3066,3.3125,3.2949,3.2578,3.2344,3.1953,3.1475,3.1504,3.1494,3.1562,3.2031,3.2207,3.2237,3.2695,3.2949,3.3105,3.3308,3.3301,3.3164,0.0,0.0,0.0,0.0,0.0,0.0,0.0,0.0,0.0,0.0,0.0,0.0,0.0,0.0,0.0,0.0,1.1199,1.026,0.8998,0.8996,0.8723,0.8055,0.8392,0.8253,0.7559,0.7256,0.7011,0.685,0.6681,0.7338,0.8709,0.8797,1.0333,1.308,1.2803,1.3196,1.4013,1.3611,1.3561,1.3788,1.398,1.4327,1.4701,1.4589,1.4669,0.0,0.0,1.37,1.354,1.3687,1.3594,1.3467,1.3674,1.3912,0.0,0.0,0.0,1.793,2.3211,2.6685,2.9785,3.3927,3.6698,3.8652,3.9668,4.0469,4.0918,4.0586,4.0489,4.0411,4.0196,3.9922,3.9648,3.9414,3.8926,3.865,3.8747,3.8555,3.8418,3.8418,3.832,3.7949,3.7207,3.7148,3.6836,3.604,3.5625,3.5391,3.5391,3.4844,3.4394,3.4114,3.3965,3.3555,3.2793,3.2695,3.2637,3.2637,3.3066,3.3203,3.3086,3.2773,3.2051,3.1074,3.1621,3.1836,3.1894,3.2539,3.2617,3.2413,3.2891,3.3047,3.2988,3.3152,3.3262,3.325,0.0,0.0,0.0,0.0,0.0,0.0,0.0,0.0,0.0,0.0,0.0,0.0,1.2549,1.2402,1.1978,1.0951,1.082,0.9959,0.8008,0.712,0.6757,0.6976,0.7112,0.0,0.7403,0.7202,0.6979,0.6715,0.6823,0.7158,0.7684,0.7941,0.9925,1.3273,1.3067,1.3344,1.3921,1.4008,1.4522,1.5284,1.5297,1.5324,1.5378,1.5621,1.5728,1.5621,1.4767,1.4447,1.4394,1.4148,1.4055,1.4063,1.4076,1.4775,1.5619,0.0,0.0,0.0,2.228,2.4179,2.6353,3.21,3.4842,3.6836,3.9336,4.0234,4.0508,4.0489,4.0489,4.0273,3.9434,3.9258,3.9375,3.9785,3.9141,3.8747,3.9121,3.8476,3.7933,3.7933,3.7598,3.7187,3.6773,3.6734,3.6523,3.6055,3.5625,3.5391,3.5391,3.4603,3.4134,3.4114,3.3672,3.3242,3.2793,3.2433,3.2237,3.2237,3.2617,3.2617,3.2257,3.2237,3.1934,3.1523,3.2363,3.2734,3.2734,3.2773,3.2793,3.2734,3.2413,3.2715,3.334,3.2969,3.2832,3.2891,0.0,0.0,0.0,0.0,0.0,0.0,0.0,0.0,0.0,0.0,0.0,0.0,0.0,1.2149,1.1455,0.9978,0.874,0.7702,0.6899,0.6705,0.662,0.6634,0.6776,0.6911,0.7082,0.6837,0.7125,0.7989,0.7095,0.7397,0.8799,0.8181,0.9264,1.1772,1.2133,1.3477,1.5406,1.4876,1.4852,1.516,1.5324,1.5845,1.6458,1.5615,1.6099,1.701,1.5581,1.5181,1.5354,1.5458,1.5133,1.4796,0.0,1.5826,1.6196,1.7461,1.8973,2.0815,2.3335,2.4674,2.6314,3.0353,3.284,3.4713,3.623,3.8164,3.959,3.9336,3.9726,4.0019,3.9707,3.9394,3.916,3.9062,3.8826,3.8669,3.8769,3.8301,3.7894,3.7894,3.7559,3.7129,3.6753,3.6426,3.6074,3.5644,3.4941,3.4583,3.4583,3.3984,3.3652,3.3652,3.3496,3.3086,3.2433,3.2276,3.2061,3.1758,3.2187,3.2355,3.2198,3.2198,3.212,3.1973,3.2539,3.2637,3.2452,3.2676,3.2793,3.2812,3.293,3.2988,3.3027,3.3144,3.3203,3.3223,0.0,0.0,0.0,0.0,0.0,0.0,0.0,0.0,0.0,0.0,0.0,0.0,0.0,0.0,1.0785,0.9253,0.7467,0.6402,0.6306,0.6464,0.6546,0.6491,0.662,0.6895,0.7331,0.7274,0.7856,0.9111,0.8284,0.8671,1.0144,0.9397,1.023,1.2358,1.2425,1.3739,1.5905,1.5467,1.5334,1.5454,1.5855,1.6538,1.7273,1.6578,1.7088,1.7982,1.662,1.6126,1.6128,1.6353,1.6286,1.6176,0.0,1.6891,1.7404,1.9049,2.0554,2.1914,2.3025,2.3962,2.5386,2.8567,3.0449,3.209,3.4414,3.6484,3.8008,3.8301,3.8945,3.9453,3.9453,3.9199,3.8945,3.8809,3.8708,3.8611,3.8611,3.8086,3.7715,3.7715,3.7207,3.6758,3.6484,3.6191,3.584,3.543,3.4844,3.4427,3.4114,3.3789,3.3516,3.3223,3.3066,3.2734,3.2198,3.1905,3.1738,3.1738,3.1875,3.2061,3.2198,3.2198,3.2198,3.2198,3.2305,3.2363,3.2452,3.2832,3.3008,3.3008,3.3164,3.3125,3.3027,3.3164,3.3269,3.3386,0.0,0.0,0.0,0.0,0.0,0.0,0.0,0.0,0.0,1.1167,0.0,0.0,0.0,0.0,0.0,0.8868,0.7285,0.6339,0.6352,0.6371,0.6433,0.6611,0.6743,0.7253,0.8234,0.8568,0.9132,0.9979,1.0383,1.0907,1.1529,1.1496,1.2788,1.509,1.3985,1.4147,1.5235,1.5645,1.5992,1.6351,1.6965,1.7354,1.7729,1.8571,1.8758,1.8477,1.7876,1.7275,1.6807,1.6844,1.7531,1.8222,0.0,0.0,0.0,0.0,2.0898,2.121,0.0,0.0,0.0,2.6705,2.7585,2.8953,3.3984,3.5195,3.5723,3.7461,3.8164,3.8513,3.8591,3.8611,3.8747,3.9121,3.8848,3.8611,3.8591,3.7832,3.7285,3.7285,3.6523,3.5982,3.5982,3.5982,3.582,3.541,3.5351,3.498,3.4134,3.4095,3.3704,3.2832,3.2433,3.2198,3.2179,3.1328,3.1358,3.2159,3.1699,3.1719,3.2159,3.2179,3.2179,3.2159,3.1719,3.2031,3.2832,3.3223,3.3367,3.3347,3.2969,3.3066,3.3347,3.2969,3.3066,3.3386,0.0,0.0,0.0,0.0,0.0,0.0,1.1248,1.0717,1.0386,0.0,0.0,0.0,0.972,0.9184,0.8722,0.853,0.7413,0.704,0.7781,0.7813,0.8213,0.9133,0.9219,0.9415,0.9787,0.9553,1.0152,1.1649,1.0595,1.0847,1.2282,1.1397,1.2041,1.3892,1.3577,1.4255,1.5619,1.5547,1.5805,1.6351,1.6965,1.7608,1.8237,1.8249,1.9025,2.0003,1.9187,1.9038,1.9385,2.0343,2.0192,1.9603,0.0,0.0,0.0,0.0,0.0,0.0,2.1288,0.0,0.0,0.0,0.0,0.0,2.8867,3.0527,3.2305,3.4648,3.5469,3.625,3.7812,3.8359,3.865,3.8767,3.8689,3.8457,3.8144,3.7637,3.7187,3.691,3.6348,3.5982,3.5982,3.5742,3.5371,3.4922,3.4609,3.4199,3.3633,3.3594,3.3359,3.2812,3.2676,3.2324,3.1699,3.1465,3.1309,3.125,3.1113,3.1133,3.125,3.1562,3.1699,3.1719,3.2226,3.2578,3.2773,3.2628,3.2871,3.3386,3.3269,3.3289,3.3386,3.3301,3.3289,3.3386,0.0,0.0,0.0,0.0,0.0,1.1381,1.0511,0.9971,0.9599,0.0,0.0,0.0,0.884,0.8471,0.8238,0.8302,0.7914,0.7845,0.8295,0.883,0.9403,0.9967,1.0172,1.0501,1.0923,1.0846,1.1403,1.2692,1.1996,1.2185,1.321,1.2608,1.3026,1.4218,1.4107,1.4699,1.5781,1.5524,1.5762,1.6377,1.7354,1.8197,1.8933,1.9345,2.0067,2.0802,2.0445,2.0525,2.1014,2.239,2.251,2.2121,0.0,0.0,0.0,0.0,0.0,0.0,0.0,0.0,2.2654,2.3398,0.0,0.0,2.7324,2.8633,3.0195,3.2969,3.3867,3.4726,3.6543,3.707,3.7363,3.775,3.7809,3.7812,3.7874,3.7402,3.6953,3.6734,3.6289,3.5982,3.5982,3.5644,3.5195,3.4726,3.4473,3.4141,3.3711,3.3516,3.3144,3.2589,3.257,3.2129,3.1269,3.125,3.1133,3.0898,3.0898,3.0976,3.1172,3.1601,3.1894,3.207,3.2578,3.2891,3.3027,3.2628,3.2832,3.3386,3.3386,3.3386,3.3386,3.3386,3.3386,3.3386,0.0,0.0,1.0269,0.9795,1.0102,1.0359,1.0102,0.9339,0.8788,0.0,0.7641,0.7126,0.795,0.8244,0.839,0.8392,0.8743,0.8894,0.8719,0.9814,1.0393,1.0202,1.0646,1.123,1.1938,1.2308,1.275,1.3307,1.3801,1.4055,1.4116,1.4367,1.4803,1.5284,1.5093,1.5294,1.5741,1.5538,1.5818,1.6565,1.7956,1.8906,1.9655,2.1087,2.1515,2.1336,2.1636,2.1756,2.2041,2.3593,2.4688,2.5399,2.528,0.0,0.0,0.0,2.2596,0.0,0.0,0.0,0.0,2.4515,2.4023,0.0,2.7474,2.8066,2.8691,3.1621,3.2559,3.3281,3.4707,3.5039,3.5332,3.6089,3.6362,3.6758,3.7656,3.7148,3.6695,3.6636,3.625,3.5982,3.5982,3.5644,3.5195,3.4726,3.4609,3.4394,3.4055,3.3633,3.3066,3.2296,3.2276,3.1885,3.1035,3.1035,3.1035,3.1035,3.1035,3.123,3.1601,3.2022,3.2433,3.2793,3.2793,3.3027,3.3367,3.3008,3.3086,3.3386,3.3386,3.3386,3.3386,3.3386,3.3386,3.3386,0.0,0.9826,0.9007,0.8009,0.8,0.7814,0.6882,0.7471,0.8053,0.8163,0.7825,0.7757,0.8199,0.8997,0.9539,0.9643,1.0245,1.0995,1.1858,1.2054,1.2455,1.3212,1.3792,1.3943,1.365,1.3699,1.3805,1.3921,1.3767,1.3834,1.4116,1.4367,1.4554,1.4696,1.4905,1.5173,1.5498,1.5648,1.6353,1.7421,1.8183,1.9118,2.017,2.143,2.2184,2.2559,2.2612,2.28,2.329,2.5428,2.7482,2.8801,2.6779,0.0,0.0,2.3401,0.0,0.0,0.0,0.0,0.0,0.0,2.3616,0.0,2.4157,2.4723,2.584,2.821,2.9031,2.9902,3.1884,3.2832,3.3242,3.3098,3.4231,3.5508,3.6773,3.6812,3.6577,3.6191,3.6074,3.5982,3.5982,3.5644,3.5195,3.4726,3.4062,3.3601,3.3555,3.3445,3.3184,3.2695,3.2676,3.2452,3.1964,3.1944,3.1944,3.1944,3.1944,3.2003,3.2081,3.2159,3.2433,3.2793,3.2793,3.3027,3.3386,3.334,3.3308,3.3386,3.3386,3.3386,3.3386,3.3386,3.3386,3.3386,0.823,0.7674,0.6926,0.5769,0.623,0.6583,0.6113,0.7197,0.8065,0.8147,0.8085,0.8339,0.907,0.9657,1.0255,1.0901,1.1747,1.2383,1.2667,1.3392,1.3879,1.4095,1.4509,1.4691,1.4544,1.4263,1.4103,1.4103,1.3767,1.362,1.3654,1.4095,1.4207,1.4066,1.4856,1.52,1.5227,1.5621,1.6513,1.7702,1.8718,1.976,2.0784,2.2151,2.2739,2.292,2.3033,2.4363,2.6235,2.7469,2.9071,3.0176,2.8008,2.7187,2.6719,0.0,2.5215,2.5503,0.0,0.0,0.0,2.4144,0.0,0.0,0.0,2.441,2.4957,2.6934,2.7168,2.7539,2.9277,2.9941,3.0449,3.1094,3.2285,3.3418,3.4329,3.5385,3.5957,3.5742,3.5508,3.5351,3.5351,3.498,3.4551,3.4101,3.3672,3.3386,3.3386,3.3386,3.3125,3.2531,3.2695,3.248,3.1855,3.2101,3.2198,3.2198,3.2198,3.2316,3.2511,3.2511,3.2715,3.3105,3.3105,3.3191,3.3386,3.3386,3.3386,3.3386,3.3386,3.3386,3.3386,3.3386,3.3386,3.3425,0.6269,0.5847,0.5374,0.4399,0.5258,0.6154,0.6306,0.7487,0.8389,0.8423,0.8451,0.8853,0.9828,1.0518,1.1388,1.257,1.3613,1.4064,1.3751,1.463,1.4865,1.4202,1.4456,1.4669,1.4812,1.441,1.4148,1.4103,1.3767,1.3507,1.3387,1.3921,1.4068,1.3927,1.507,1.5454,1.5303,1.5832,1.6767,1.7956,1.9332,2.0374,2.1269,2.2699,2.3086,2.2968,2.3589,2.5991,2.886,2.9238,3.0099,3.0723,2.9062,2.8535,0.0,0.0,0.0,0.0,0.0,0.0,0.0,0.0,0.0,2.4473,0.0,0.0,0.0,2.625,2.5932,2.5776,2.6881,2.7135,2.7624,2.8879,3.0089,3.0996,3.1299,3.3086,3.4512,3.4844,3.4629,3.4492,3.457,3.4075,3.3633,3.3437,3.3172,3.3133,3.3386,3.3308,3.2988,3.2335,3.2617,3.2422,3.1641,3.2148,3.2394,3.2316,3.2394,3.257,3.2793,3.2793,3.2988,3.3269,3.3269,3.3308,3.3386,3.3386,3.3386,3.3386,3.3386,3.3386,3.3386,3.3386,3.3386,3.3464,0.7715,0.6765,0.5922,0.5777,0.6138,0.6464,0.6463,0.7724,0.871,0.8818,0.8974,0.9235,0.9605,1.1933,1.4009,1.534,1.6458,1.7318,1.7807,1.6494,1.5328,1.4487,1.4772,1.4705,1.4223,1.4376,1.4349,1.4103,1.3767,1.374,1.4001,1.4322,1.4589,1.4879,1.5789,1.6177,1.619,1.6804,1.7715,1.8823,1.977,2.0517,2.1243,2.2492,2.2934,2.3139,2.5016,2.7019,2.896,0.0,3.0891,3.1211,0.0,2.9461,2.9129,2.7441,0.0,0.0,0.0,0.0,0.0,0.0,2.561,0.0,2.4336,0.0,2.4965,2.4723,0.0,2.4586,2.4766,0.0,0.0,2.5117,2.709,2.8555,2.8249,2.9715,3.1348,3.291,3.3379,3.3711,3.4134,3.3117,3.2707,3.3347,3.2333,3.2196,3.3328,3.3066,3.2832,3.2734,3.2773,3.2578,3.212,3.2871,3.3086,3.2734,3.3105,3.3105,3.2793,3.2793,3.2812,3.2871,3.2871,3.3086,3.3386,3.3386,3.3386,3.3386,3.3386,3.3386,3.3386,3.3386,3.3386,3.3464,0.6915,0.6381,0.5746,0.4968,0.5707,0.6412,0.6493,0.7971,0.9123,0.9184,0.9327,0.9784,1.0672,1.174,1.3519,1.6291,1.6732,1.7182,1.7929,1.7261,1.6299,1.5084,1.515,1.5097,1.4856,1.4629,1.4434,1.4335,1.3847,1.3666,1.382,1.4114,1.4335,1.4531,1.5748,1.6391,1.6567,1.718,1.7983,1.8956,1.9663,2.0334,2.1029,2.2552,2.377,2.493,2.6654,2.8593,3.0384,0.0,3.1298,0.0,0.0,0.0,2.95,2.9004,0.0,0.0,0.0,0.0,0.0,0.0,0.0,0.0,2.5289,0.0,2.4707,0.0,0.0,0.0,0.0,0.0,0.0,0.0,2.6479,2.7402,2.7018,2.7995,2.9383,3.1074,3.123,3.1465,3.2148,3.1768,3.168,3.2235,3.1601,3.1601,3.2637,3.2519,3.2452,3.2452,3.2676,3.248,3.1797,3.2871,3.3203,3.2793,3.3223,3.3289,3.3164,3.3164,3.3164,3.3164,3.3164,3.323,3.3386,3.3386,3.3386,3.3406,3.3691,3.3652,3.3425,3.3711,3.3809,3.3906,0.6674,0.6528,0.6191,0.526,0.6067,0.6894,0.7093,0.8313,0.9239,0.9396,0.9517,1.0025,1.1171,1.1734,1.3305,1.6484,1.6656,1.6998,1.8033,1.7484,1.6806,1.6035,1.5561,1.5351,1.5511,1.4834,1.4461,1.4381,1.3853,1.368,1.384,1.4028,1.4236,1.4496,1.5829,1.6647,1.7114,1.7862,1.8704,1.9543,2.016,2.0686,2.1189,2.2552,2.4224,2.6084,2.7633,2.95,3.1302,3.1723,3.1719,0.0,3.1494,3.0859,3.0165,3.0332,3.0117,2.9492,2.8105,0.0,0.0,0.0,0.0,0.0,0.0,0.0,0.0,0.0,0.0,0.0,0.0,0.0,2.5093,2.562,0.0,2.6641,2.6118,2.6588,2.7565,2.9141,2.95,2.9891,3.0625,3.0391,3.0508,3.1289,3.0625,3.0703,3.1934,3.1905,3.1964,3.2198,3.2344,3.2148,3.1523,3.2559,3.293,3.2637,3.3047,3.3242,3.323,3.3347,3.3328,3.323,3.3347,3.3386,3.3386,3.3386,3.3386,3.3457,3.3938,3.3887,3.3652,3.4082,3.4271,3.4388,0.7905,0.7825,0.7764,0.7869,0.8066,0.8319,0.8582,0.8696,0.8886,0.9356,0.9517,0.9829,1.0463,1.2551,1.4561,1.6085,1.687,1.786,1.9265,1.7207,1.6416,1.7476,1.5909,1.5267,1.5781,1.4941,1.4367,1.4095,1.378,1.3893,1.4461,1.4215,1.4536,1.5391,1.6286,1.7168,1.805,1.9225,2.0241,2.1096,2.1683,2.1924,2.1977,2.2311,2.3705,2.5767,2.7536,0.0,0.0,3.231,3.2207,0.0,0.0,0.0,0.0,0.0,0.0,0.0,0.0,0.0,0.0,2.6939,0.0,0.0,0.0,0.0,2.6211,0.0,0.0,0.0,0.0,0.0,0.0,0.0,2.6089,0.0,0.0,2.5184,2.5669,2.6953,2.8574,2.9774,3.0176,2.9101,2.9082,3.0781,2.9336,2.9297,3.1396,3.1152,3.1338,3.2179,3.1777,3.1513,3.1494,3.1973,3.2237,3.2218,3.2648,3.2812,3.2832,3.3242,3.3203,3.2832,3.3242,3.3386,3.3386,3.3386,3.3386,3.3457,3.3938,3.4095,3.4134,3.4531,3.4668,3.4746,0.7986,0.7973,0.7952,0.7982,0.8054,0.8257,0.8757,0.9028,0.953,1.0575,1.0758,1.1206,1.2298,1.2957,1.4213,1.6333,1.6375,1.719,1.9261,1.8114,1.7947,1.9256,1.7635,1.6887,1.7262,1.6233,1.5374,1.4691,1.4584,1.4638,1.4839,1.491,1.5217,1.5701,1.6632,1.7742,1.8986,1.9746,2.0601,2.1545,2.2815,2.402,2.4852,2.288,2.4032,2.6842,2.7835,3.0077,0.0,3.3022,3.2832,3.2461,3.3027,3.2637,3.2031,3.2441,3.2578,0.0,0.0,0.0,3.3125,3.0117,0.0,0.0,0.0,0.0,0.0,0.0,0.0,0.0,0.0,0.0,0.0,0.0,0.0,2.5977,0.0,2.4418,2.4613,2.563,2.6783,2.7545,2.7656,2.7539,2.7812,2.8718,2.823,2.8601,3.0165,3.0351,3.0703,3.1338,3.1445,3.1494,3.1494,3.2226,3.2578,3.2578,3.2734,3.2949,3.3203,3.3066,3.3086,3.3223,3.3328,3.3386,3.3386,3.3386,3.3386,3.3464,3.4199,3.4492,3.4531,3.5,3.5156,3.5215,0.8088,0.8054,0.8033,0.8088,0.8135,0.8324,0.8764,0.9264,1.0025,1.12,1.1586,1.2196,1.3281,1.3471,1.4147,1.5694,1.562,1.6392,1.8407,1.8329,1.8993,2.0752,1.976,1.9239,1.941,1.8117,1.6913,1.5922,1.5494,1.5347,1.5454,1.532,1.5511,1.6019,1.6712,1.7903,1.9455,2.0321,2.1269,2.2317,2.3609,2.5143,2.6388,2.4387,2.5766,2.8783,0.0,3.1073,3.3652,3.3652,3.3574,3.3574,3.4153,3.3762,3.3215,3.3711,3.3906,3.3848,3.3379,3.4492,0.0,3.2285,3.2022,0.0,2.8613,0.0,2.8582,0.0,0.0,0.0,0.0,0.0,0.0,0.0,0.0,0.0,0.0,2.4102,2.4219,2.4766,2.5625,2.6348,2.6822,2.6523,2.6504,2.6953,2.6973,2.7428,2.8406,2.9442,3.0332,3.1094,3.123,3.1504,3.1973,3.2207,3.25,3.2793,3.2793,3.3008,3.3386,3.3144,3.3164,3.3386,3.3386,3.3386,3.3386,3.3386,3.3386,3.3484,3.4355,3.4707,3.4766,3.5391,3.5605,3.5664,0.8328,0.8167,0.8094,0.8294,0.8417,0.8533,0.8716,0.946,1.0312,1.1193,1.207,1.2827,1.3478,1.417,1.4529,1.438,1.4883,1.5769,1.7084,1.8106,1.9747,2.2171,2.2151,2.2111,2.2138,2.0391,1.8893,1.7742,1.6448,1.6019,1.6324,1.5441,1.5467,1.6284,1.658,1.7702,1.9468,2.0927,2.2271,2.3463,2.414,2.5356,2.6692,2.6657,2.859,3.1235,3.0836,3.205,3.3856,3.3837,3.416,3.4595,3.4595,3.468,3.4766,3.4785,3.541,3.582,3.459,3.4902,3.5137,3.3418,0.0,0.0,0.0,0.0,3.0527,0.0,0.0,0.0,0.0,0.0,0.0,0.0,0.0,0.0,2.4023,2.4121,2.4352,2.4391,2.5093,2.6069,2.737,2.6001,2.5219,2.562,2.5659,2.5874,2.6426,2.8425,3.0126,3.1406,3.1113,3.1523,3.2793,3.1992,3.1992,3.2832,3.2812,3.3008,3.3386,3.3367,3.3367,3.3386,3.3386,3.3386,3.3386,3.3406,3.3425,3.3503,3.4394,3.4746,3.4863,3.5669,3.6001,3.6021,0.8349,0.8411,0.8527,0.8587,0.8471,0.8553,0.9117,0.9716,1.071,1.2465,1.3288,1.415,1.5425,1.5628,1.5574,1.5269,1.706,1.8647,1.9758,2.1466,2.3482,2.5854,2.4449,2.3834,2.4275,2.1729,2.008,1.953,1.7488,1.6633,1.6951,1.6019,1.5701,1.5955,1.6739,1.7809,1.9118,2.0405,2.2429,2.4776,2.4782,2.6207,2.8294,0.0,2.8294,2.9699,2.909,2.9492,3.0273,3.0064,3.1367,3.3074,3.3074,3.4263,3.5742,3.6074,3.6543,3.6973,3.6934,3.7344,3.7422,3.605,3.5195,3.4238,0.0,0.0,0.0,0.0,0.0,0.0,0.0,0.0,0.0,2.6693,0.0,0.0,2.3848,2.3571,2.3688,2.4313,2.4062,2.4105,2.475,2.4398,2.4297,2.4703,2.4723,2.5508,2.7272,2.8171,2.9219,3.0488,3.1074,3.1816,3.2793,3.2578,3.2734,3.323,3.2949,3.3008,3.3386,3.3105,3.3125,3.3386,3.3386,3.3386,3.3406,3.3769,3.3906,3.3984,3.4883,3.541,3.5669,3.5937,3.623,3.6504,0.8506,0.8757,0.9001,0.9001,0.9191,0.9503,0.9992,1.0222,1.1002,1.288,1.3758,1.4543,1.552,1.704,1.7874,1.7543,1.9784,2.1546,2.2384,2.3917,2.558,2.7213,2.6533,2.6159,2.6226,2.3848,2.2138,2.1157,1.8796,1.7555,1.7341,1.6299,1.5875,1.6083,1.7521,1.8747,1.9794,2.1659,2.4083,2.6589,2.5667,2.67,0.0,2.8096,2.8541,2.9367,2.884,2.9362,3.036,3.0309,3.1965,3.4028,3.4028,3.4933,3.6094,3.6577,3.6973,3.7383,3.7777,3.8242,3.8396,3.7441,3.6855,3.5996,3.4062,3.3809,3.3691,0.0,0.0,0.0,0.0,0.0,0.0,2.5898,0.0,0.0,0.0,2.3708,2.3786,2.4102,2.4085,2.389,2.3535,2.3008,2.2852,2.3281,2.3652,2.4238,2.5121,2.7324,2.8887,2.9609,3.0859,3.2012,3.3066,3.2891,3.3008,3.3386,3.3184,3.3184,3.3386,3.3184,3.3203,3.3406,3.3633,3.3711,3.375,3.418,3.4336,3.4414,3.5117,3.5762,3.6309,3.6309,3.6465,3.6734,0.8798,0.913,0.9464,0.9415,1.0202,1.0894,1.1164,1.1144,1.164,1.3105,1.4,1.4787,1.5426,1.8411,2.0426,2.053,2.2838,2.4402,2.4833,2.6077,2.7068,2.7694,2.831,2.8417,2.7883,2.6039,2.4249,2.2505,2.0077,1.8424,1.7474,1.6275,1.5912,1.6276,1.8379,1.9873,2.1,2.3475,2.5815,2.7725,2.6076,2.6508,2.8133,2.8167,2.864,2.9349,2.9315,3.0412,3.1874,3.2092,3.3721,3.5621,3.5621,3.5811,3.6094,3.6577,3.6973,3.7383,3.7777,3.8203,3.8398,3.7991,3.7855,3.7344,3.5391,3.4961,3.4629,3.3457,3.3223,3.3125,0.0,0.0,0.0,2.5786,0.0,0.0,0.0,2.457,2.4586,2.418,2.4769,0.0,2.3337,2.2206,2.1679,2.2052,2.2717,2.2932,2.2521,2.6367,2.8742,2.916,3.0674,3.2098,3.3386,3.3066,3.3066,3.3386,3.3445,3.3476,3.3386,3.3503,3.3523,3.3535,3.3965,3.4192,3.4212,3.4609,3.4863,3.5,3.541,3.6089,3.6792,3.6851,3.6871,3.6929,0.9111,0.9435,0.9707,0.9591,1.0616,1.1762,1.2651,1.3071,1.3612,1.4665,1.5364,1.6806,1.9532,2.0092,2.1121,2.3365,2.5701,2.6999,2.6806,2.8812,2.9971,2.9847,2.9272,2.8868,2.8761,2.636,2.4449,2.3132,2.029,1.8183,1.6834,1.5912,1.5498,1.5648,1.7843,1.9855,2.1698,2.2969,2.4138,2.5008,2.3865,2.4681,2.6623,2.6816,2.7164,2.766,2.9212,3.016,3.0587,3.0422,3.1843,3.3709,3.3709,3.4727,3.6094,3.6577,3.6973,3.7383,3.7777,3.7969,3.7991,3.7913,3.7656,3.7226,3.6519,3.6362,3.6186,3.5566,3.5449,3.4902,3.3125,0.0,0.0,0.0,0.0,0.0,0.0,2.6738,2.6406,2.5977,2.5742,2.5093,2.3809,2.3477,2.3223,2.299,2.2775,2.3496,2.5488,0.0,2.7969,0.0,3.1172,0.0,0.0,0.0,3.3308,3.3386,3.3789,3.3769,3.3406,3.416,3.4277,3.4016,3.4414,3.459,3.4629,3.5078,3.5684,3.6362,3.6441,3.6792,3.7226,3.7578,3.7695,3.7715,0.975,0.991,1.0181,1.0582,1.1633,1.2807,1.3976,1.5954,1.732,1.7243,1.7537,1.8856,2.1655,2.3483,2.4919,2.613,2.8404,2.9766,2.958,3.0371,3.0728,3.0595,2.9593,2.9001,2.9001,2.7028,2.5024,2.3086,0.0,1.8758,1.6687,1.5941,1.5618,1.5705,1.8173,2.0838,2.3522,2.3548,2.4307,2.5337,2.4231,2.462,2.5932,2.6908,2.8095,2.9481,3.1039,3.2614,3.3675,3.2158,3.2973,3.4659,3.4659,3.528,3.6094,3.6577,3.6851,3.707,3.748,3.7598,3.7539,3.7324,3.7129,3.6855,3.6426,3.6328,3.6269,3.6055,3.5982,3.543,3.3476,3.0859,0.0,0.0,0.0,0.0,0.0,0.0,2.7773,2.7154,2.6465,2.5566,2.4238,2.4121,2.3574,2.2266,2.2383,2.3066,2.4316,0.0,2.7578,0.0,0.0,0.0,3.3386,0.0,0.0,3.4082,3.4297,3.4277,3.4101,3.4512,3.459,3.4446,3.4863,3.5059,3.5117,3.5781,3.6426,3.6992,3.6992,3.7246,3.7637,3.7816,3.8066,3.8262,1.0555,1.1028,1.1512,1.1821,1.3221,1.4678,1.5723,1.8614,2.0441,1.9647,2.0032,2.1395,2.4066,2.6681,2.8479,2.8933,3.0642,3.1684,3.1583,3.1089,3.0742,3.0608,2.9593,2.8961,2.8908,2.7507,2.5585,0.0,0.0,0.0,0.0,1.6072,1.6014,1.6636,1.9001,2.1818,0.0,0.0,2.4811,2.5995,2.555,2.566,2.6378,2.8512,3.0458,3.2229,3.3514,3.5363,3.6821,3.4557,3.4837,3.6152,3.6021,3.5982,3.6094,3.6426,3.6636,3.6773,3.707,3.7168,3.709,3.6792,3.6636,3.6465,3.6211,3.6094,3.604,3.625,3.6211,3.5644,3.4004,3.2305,0.0,0.0,0.0,0.0,0.0,0.0,2.9609,2.8503,2.7624,2.6523,2.5074,2.4606,2.3649,2.1893,2.2381,2.2871,2.3047,0.0,0.0,0.0,0.0,3.1855,3.3144,0.0,3.431,3.4707,3.4805,3.4805,3.4707,3.4902,3.4922,3.4863,3.5332,3.5527,3.5586,3.6401,3.6949,3.7305,3.7402,3.7695,3.8066,3.8066,3.8281,3.863,1.1516,1.3459,1.4574,1.313,1.5655,1.811,1.8649,2.0044,2.101,2.0934,2.274,2.5205,2.8392,2.8211,2.9007,3.1903,3.1888,3.1557,3.1289,3.0969,3.0555,3.002,2.9335,2.8868,2.8657,2.7442,2.5785,0.0,0.0,1.9481,0.0,1.5989,1.6661,1.8934,0.0,0.0,0.0,2.465,2.4909,2.4937,2.696,2.7978,2.8739,3.248,3.4019,3.4396,3.5867,3.6556,3.666,3.5967,3.6132,3.6577,3.6152,3.5982,3.6035,3.604,3.6367,3.6714,3.6753,3.6773,3.6753,3.6714,3.6367,3.6172,3.6558,3.6309,3.6196,3.7012,3.6875,3.6191,3.4824,3.4414,3.3652,0.0,0.0,0.0,0.0,0.0,3.2851,3.082,2.9833,2.864,2.6908,2.5328,2.418,2.3594,2.3633,2.4004,2.4809,0.0,0.0,2.8242,2.9609,3.0957,3.2296,3.3508,3.431,3.4707,3.5137,3.5117,3.4726,3.5527,3.5684,3.5351,3.5781,3.5923,3.5962,3.6484,3.6949,3.7344,3.7679,3.8125,3.8516,3.8516,3.8571,3.8669,1.2814,1.354,1.4112,1.4036,1.5209,1.7049,1.9615,2.1972,2.4041,2.5809,2.6844,2.8353,3.0987,3.0927,3.1057,3.1976,3.1858,3.1543,3.1203,3.0955,3.0528,2.994,2.9308,2.8855,2.8617,2.7776,2.6253,0.0,0.0,0.0,0.0,0.0,0.0,0.0,0.0,2.1589,2.2951,2.4094,2.5375,2.6819,2.8133,2.9554,3.1216,3.3788,3.4884,3.5267,3.6595,3.7207,3.7324,3.6641,3.6348,3.625,3.6074,3.5982,3.5982,3.5982,3.6152,3.6289,3.6289,3.6289,3.6348,3.6636,3.6577,3.6523,3.6953,3.6914,3.6894,3.7226,3.7168,3.6894,3.6348,3.541,3.4766,0.0,0.0,0.0,0.0,0.0,3.2988,3.1113,2.8758,2.6973,2.6284,2.4219,2.3381,2.4496,2.3828,2.363,0.0,0.0,0.0,2.748,0.0,3.1367,3.2198,3.3997,3.5078,3.5488,3.5684,3.5664,3.5508,3.5825,3.6074,3.6206,3.6328,3.6699,3.7133,3.7344,3.7676,3.8086,3.8262,3.8574,3.8945,3.8945,3.9121,3.9394,1.396,1.4366,1.4758,1.5104,1.5758,1.7541,2.1339,2.3717,2.6355,3.0004,3.0422,3.1002,3.2572,3.2487,3.2206,3.1872,3.1637,3.141,3.1116,3.0742,3.0274,2.9642,2.9135,0.0,2.8484,2.7963,2.68,2.497,2.3607,0.0,0.0,0.0,0.0,0.0,2.1315,2.2617,2.4345,2.5246,2.7119,2.9654,3.0555,3.1918,3.3552,3.5319,3.6183,3.6515,3.7215,3.7598,3.7637,3.6949,3.6465,3.6191,3.6021,3.5982,3.5982,3.5982,3.5982,3.6021,3.6172,3.6211,3.6309,3.6738,3.689,3.6973,3.7383,3.7383,3.7324,3.7461,3.748,3.7519,3.7656,3.6562,3.5918,3.6777,0.0,0.0,0.0,3.4902,0.0,3.1328,2.8457,2.6602,2.6479,2.4258,2.3733,2.5884,2.4824,2.4157,0.0,0.0,0.0,0.0,0.0,0.0,3.2374,3.4375,3.5605,3.5982,3.5982,3.5982,3.5982,3.6152,3.6387,3.6714,3.6832,3.7187,3.7754,3.7835,3.8105,3.8398,3.8571,3.8828,3.9199,3.9199,3.9492,3.9922,1.4753,1.6672,1.7762,1.6523,1.8317,2.1068,2.4447,2.5114,2.7159,3.2635,3.311,3.2986,3.2973,3.2246,3.1797,3.2078,3.157,3.1102,3.0822,3.0247,2.9615,0.0,0.0,2.847,2.8192,2.7856,2.7402,2.6787,0.0,0.0,2.2827,0.0,2.1537,2.2432,2.3362,2.5628,2.8709,2.8867,3.0529,3.316,3.4779,3.5422,3.5683,3.7768,3.8574,3.8516,3.803,3.7656,3.7246,3.6851,3.6695,3.6616,3.6152,3.5982,3.5982,3.5982,3.5982,3.6113,3.6577,3.6695,3.6792,3.7187,3.7285,3.7402,3.7777,3.7598,3.7422,3.7796,3.7874,3.8047,3.8513,3.8184,3.7445,3.6196,0.0,0.0,0.0,3.5195,0.0,3.1845,2.9961,2.8711,2.8301,2.6333,2.5942,2.8086,2.707,0.0,0.0,0.0,0.0,2.8242,3.0391,0.0,3.2773,3.4531,3.5605,3.5982,3.5982,3.5982,3.6035,3.6465,3.6695,3.6734,3.7109,3.7305,3.7344,3.7754,3.7894,3.7933,3.8418,3.8828,3.9199,3.9199,3.9492,3.9961,1.5798,1.6433,1.6804,1.6469,1.7144,1.8765,2.177,2.3762,2.6304,3.0105,3.1653,3.2452,3.2714,3.23,3.1917,3.1824,3.145,3.1102,0.0,3.0247,2.9615,2.9028,2.8721,2.8457,2.8192,2.8098,2.775,2.7121,0.0,0.0,0.0,2.3394,2.3688,2.4579,2.66,2.8293,2.9804,3.1564,3.3586,3.5663,3.619,3.7051,3.8096,3.8763,3.8828,3.8591,3.8418,3.8086,3.7695,3.7578,3.7344,3.707,3.6934,3.6894,3.6894,3.6894,3.6894,3.6914,3.707,3.709,3.7207,3.7617,3.7734,3.7832,3.8262,3.8262,3.8203,3.834,3.8359,3.8418,3.8591,3.8457,3.8242,3.7832,3.7734,0.0,3.5605,0.0,3.202,2.9609,2.7012,2.584,2.6894,2.5547,2.5527,2.7721,2.6953,0.0,0.0,0.0,0.0,0.0,3.1357,0.0,3.3684,3.5424,3.6484,3.6894,3.6894,3.6894,3.6894,3.7031,3.7246,3.7539,3.7676,3.7891,3.822,3.8301,3.8359,3.8379,3.8552,3.9023,3.9668,3.9668,4.0137,4.0781,1.6347,1.6347,1.6374,1.652,1.7396,1.9091,2.2081,2.4598,2.7248,3.0312,3.1532,3.2171,3.2407,3.2011,0.0,3.1724,3.1303,3.0982,3.0808,3.014,2.9539,2.9015,2.8721,2.8457,2.8192,2.8179,0.0,2.763,2.6867,2.6105,2.5358,2.5237,2.5952,2.7434,2.9125,3.1011,3.2992,3.448,3.6319,3.8153,3.7836,3.8424,3.9453,3.9277,3.9043,3.8845,3.8845,3.8437,3.7894,3.7894,3.7851,3.7754,3.7578,3.7754,3.793,3.7441,3.7305,3.7324,3.748,3.7656,3.7871,3.8301,3.8535,3.873,3.9004,3.9099,3.9023,3.8848,3.8845,3.8769,3.865,3.8611,3.8611,3.8611,3.7851,3.6777,3.5221,0.0,3.0694,0.0,0.0,0.0,0.0,2.7051,2.7402,0.0,2.8855,0.0,0.0,0.0,0.0,3.0332,3.2832,0.0,3.5072,3.6323,3.7031,3.7305,3.7305,3.7305,3.7305,3.7637,3.793,3.8184,3.8516,3.8828,3.9099,3.9099,3.9099,3.9099,3.9099,3.9512,4.0137,4.0137,4.0566,4.1211,1.6463,1.6422,1.648,1.692,1.8927,2.1502,2.4683,2.6997,2.9417,3.2327,3.2341,3.2078,3.2104,3.1597,3.137,3.1684,0.0,0.0,3.0768,2.9953,2.9366,2.9041,2.8791,2.8497,2.8219,2.8219,2.8205,2.8179,2.763,2.7444,2.7567,2.7284,2.8426,3.0816,3.1295,3.3716,3.7511,3.7568,3.8716,4.0488,3.9668,3.957,3.9883,3.9453,3.9258,3.9199,3.9199,3.8672,3.7933,3.7933,3.8242,3.8496,3.8105,3.8535,3.8965,3.7734,3.7402,3.7519,3.7874,3.8301,3.8747,3.9141,3.957,3.9902,3.9902,3.9902,3.9766,3.9336,3.9258,3.9121,3.8728,3.865,3.863,3.8571,3.7734,3.623,3.3691,0.0,3.0605,0.0,0.0,0.0,0.0,3.0176,3.0918,0.0,0.0,0.0,0.0,0.0,3.0391,3.2851,3.459,3.5898,3.6792,3.7168,3.7422,3.748,3.748,3.748,3.75,3.8337,3.8708,3.8747,3.9531,3.9902,3.9902,3.9902,3.9902,3.9902,3.9902,4.0156,4.0489,4.0489,4.0801,4.1211,0.0,0.0,1.7313,1.9664,2.0536,2.1922,2.4733,2.6997,2.8774,2.9744,3.0979,3.1851,3.2078,3.1784,3.1597,3.1711,3.0975,3.0507,3.0507,2.9847,2.9459,2.9379,2.9098,2.8804,2.8497,2.8497,2.8419,2.8179,2.8045,2.8827,3.0442,3.0369,3.1543,3.3799,3.5491,3.6821,3.7928,3.9556,4.0569,4.0996,4.082,4.0566,4.0371,4.0216,3.9785,3.9199,3.9199,3.8867,3.8418,3.8418,3.8496,3.8591,3.8493,3.8789,3.9082,3.8457,3.8496,3.8769,3.8867,3.8984,3.916,3.9609,3.9824,3.9902,3.9902,3.9902,3.9863,3.9766,3.9726,3.959,3.9141,3.9062,3.8848,3.8184,3.6523,3.4648,3.2734,3.1084,2.95,0.0,2.8379,2.9199,3.0312,3.0703,3.1289,0.0,0.0,3.207,3.2617,3.2773,3.3281,3.4219,3.5625,3.6777,3.7617,3.8066,3.8613,3.9277,3.9277,3.9277,3.9297,3.9492,3.959,3.959,3.9805,3.9902,3.9902,3.9902,3.9902,3.9902,3.9902,4.0156,4.0489,4.0489,4.0801,4.1211,1.6533,1.7711,1.9148,2.0818,2.2947,2.4982,2.6619,2.859,3.0005,3.0328,3.1159,3.1778,3.1891,3.1637,3.1463,3.1463,3.1036,3.0755,3.0755,3.0207,2.982,2.9686,2.9406,2.9098,2.8775,2.8761,2.8657,2.8393,2.9229,3.026,3.1433,3.2463,3.4083,3.6201,3.7361,3.8469,3.9492,4.0685,4.1211,4.1191,4.0957,4.0859,4.0801,4.0605,3.9586,3.8349,3.8349,3.7424,3.6376,3.7353,3.7821,3.8141,3.8922,3.9473,3.9726,3.9297,3.9336,3.9512,3.9512,3.9648,3.9922,4.0371,4.0488,4.0488,4.0488,4.0488,4.043,4.0215,4.0176,4.0039,3.9609,3.918,3.8633,3.7773,3.5664,3.3516,3.1846,3.0254,0.0,2.9188,2.9883,3.0996,3.248,3.3184,3.3528,3.3379,3.3691,0.0,3.3672,3.5039,3.5664,3.5312,3.6758,3.7887,3.8496,3.8965,3.9414,3.9902,3.9902,3.9902,3.9902,4.0098,4.0176,4.0195,4.0391,4.0488,4.0488,4.0488,4.0488,4.0488,4.0488,4.0625,4.082,4.082,4.0976,4.1211,1.7191,1.9517,2.1687,2.2206,2.573,2.8758,2.9445,3.0859,3.1925,3.2078,3.1851,3.1711,3.1711,3.145,3.1289,3.1289,3.1289,3.1249,3.1169,3.0702,3.0314,3.006,2.9766,2.9472,2.9135,2.9001,2.8815,2.8604,3.046,3.1557,3.197,3.4164,3.6322,3.839,3.839,3.9453,4.1211,4.1211,4.1211,4.1191,4.0781,4.0647,4.0646,4.0279,3.8929,3.7319,3.7319,3.6035,3.4652,3.6492,3.7345,3.7931,3.9413,4.0195,4.0411,4.0098,4.0039,4.0078,4.0019,4.0293,4.0684,4.0996,4.1172,4.1211,4.1211,4.1211,4.1113,4.0703,4.0625,4.0488,4.0078,3.9277,3.8376,3.7363,3.4922,3.2547,3.0996,0.0,2.957,3.084,3.2061,3.3371,3.4844,3.605,3.6167,3.4877,3.603,3.6401,3.543,3.7129,3.7582,3.6543,3.7988,3.8984,3.9394,3.9785,4.0019,4.0098,4.0098,4.0098,4.0098,4.0449,4.0625,4.0644,4.1016,4.1211,4.1211,4.1211,4.1211,4.1211,4.1211,4.1211,4.1211,4.1211,4.1211,4.1211,1.9641,2.2104,2.4921,2.7297,2.8491,2.9898,3.2045,3.2407,3.238,3.2131,3.1851,3.1711,3.1711,3.1623,3.1597,3.1597,3.1597,3.1396,3.0889,3.0768,3.0702,3.0662,3.0381,3.0087,2.9793,2.9058,2.8657,2.8604,3.046,3.2381,3.4246,3.6402,3.8587,4.0685,4.0685,4.088,4.1211,4.1211,4.1211,4.1211,4.1094,4.0003,3.8411,3.8317,3.7883,3.7319,3.7319,3.7975,3.8937,3.9259,3.9431,3.9545,3.9809,4.0195,4.0469,4.0449,4.0684,4.0898,4.0527,4.0742,4.0996,4.0703,4.0898,4.1211,4.1211,4.1211,4.1191,4.1132,4.1074,4.0937,4.0508,3.9707,3.8594,3.7066,3.3984,3.1465,3.0449,0.0,3.0351,3.1309,3.3789,3.5664,3.6343,3.6577,3.7047,3.7848,3.7461,3.7578,3.8457,3.8828,3.8906,3.8711,3.9355,3.9902,4.0274,4.0352,4.0605,4.1015,4.1015,4.1015,4.1015,4.1035,4.1074,4.1113,4.1191,4.1211,4.1211,4.1211,4.1211,4.1211,4.1211,4.1211,4.1211,4.1211,4.1211,4.1211,2.2504,2.5041,2.7604,2.8879,3.0338,3.1664,3.2851,3.2781,3.2541,3.2407,3.2273,3.2126,3.1917,3.1904,3.1837,3.1724,3.181,3.1717,3.1289,3.1116,3.1022,3.1022,3.0595,3.0221,2.9927,2.9366,2.9585,3.0581,3.2479,3.4425,3.6482,3.8666,4.0217,4.1211,4.1211,4.1211,4.1211,4.1211,4.0509,3.9531,4.0724,3.9864,3.8015,3.9198,3.8811,3.7625,3.7625,3.7399,3.7294,3.8444,3.8812,3.9045,4.0221,4.0723,4.0879,4.0879,4.1016,4.1133,4.0918,4.1016,4.1172,4.0918,4.1035,4.1211,4.1211,4.1211,4.1211,4.1211,4.1211,4.1113,4.0918,3.9766,3.8457,3.7242,3.4121,0.0,0.0,3.1543,3.2042,3.4043,3.5918,3.7402,3.832,3.8418,3.8555,3.8887,3.8555,3.8574,3.918,3.9434,3.9687,3.9902,4.0117,4.0449,4.0879,4.0879,4.0976,4.1211,4.1211,4.1211,4.1211,4.1211,4.1211,4.1211,4.1211,4.1211,4.1211,4.1211,4.1211,4.1211,4.1211,4.1211,4.1211,4.1211,4.1211,4.1211,2.5351,2.7915,3.0073,3.0133,3.1815,3.3053,3.2986,3.2835,3.2674,3.2607,3.2594,3.25,3.2225,3.2211,3.2118,3.1938,3.2011,3.2011,3.1831,3.149,3.133,3.133,3.0768,3.0327,3.002,3.0179,3.0947,3.2293,3.4698,3.6604,3.7935,4.0138,4.1211,4.1211,4.1211,4.1211,4.1211,4.1211,4.0236,3.8843,4.0509,3.9864,3.8112,3.9786,3.9374,3.7896,3.7896,3.7179,3.6442,3.8112,3.8666,3.8961,4.0685,4.1211,4.1211,4.1211,4.1211,4.1211,4.1211,4.1211,4.1211,4.1211,4.1211,4.1211,4.1211,4.1211,4.1211,4.1211,4.1211,4.1211,4.1211,3.9959,3.8535,3.7461,0.0,0.0,0.0,3.3262,3.3958,3.6675,3.7695,3.8652,3.9785,3.998,3.9902,3.9531,3.9609,3.9668,3.9668,4.0,4.0332,4.0664,4.0684,4.084,4.1211,4.1211,4.1211,4.1211,4.1211,4.1211,4.1211,4.1211,4.1211,4.1211,4.1211,4.1211,4.1211,4.1211,4.1211,4.1211,4.1211,4.1211,4.1211,4.1211,4.1211,4.1211,2.7889,3.0301,3.2447,3.2663,3.3064,3.3293,3.3013,3.2959,3.2902,3.2634,3.2594,3.2581,3.2567,3.2567,3.2554,3.2527,3.2251,3.2091,3.2078,3.1797,3.1684,3.1684,3.1076,3.0621,3.0386,3.1884,3.2507,3.2293,3.631,3.8114,3.7935,4.0138,4.1211,4.1211,4.1211,4.1211,4.1211,4.1211,4.1094,4.0958,4.1133,3.9864,3.7935,3.8054,3.8015,3.7896,3.7896,3.9119,4.0763,4.088,4.0958,4.1016,4.1133,4.1211,4.1211,4.1211,4.1211,4.1211,4.1211,4.1211,4.1211,4.1211,4.1211,4.1211,4.1211,4.1211,4.1211,4.1211,4.1211,4.1211,4.1211,4.0468,3.9258,3.7578,0.0,0.0,3.4668,3.4922,3.582,3.7582,3.8594,3.9316,3.9844,4.0254,4.043,4.043,4.0801,4.1074,4.1074,4.1093,4.1132,4.1172,4.1172,4.1191,4.1211,4.1211,4.1211,4.1211,4.1211,4.1211,4.1211,4.1211,4.1211,4.1211,4.1211,4.1211,4.1211,4.1211,4.1211,4.1211,4.1211,4.1211,4.1211,4.1211,4.1211,4.1211,3.114,3.2225,3.312,3.3227,3.3334,3.3374,3.3267,3.324,3.32,3.3093,3.308,3.3013,3.2888,3.2862,3.2795,3.2607,3.2661,3.2492,3.2131,3.2219,3.2019,3.1423,3.1009,3.0662,3.0413,3.1986,3.3266,3.4298,3.7007,3.8194,3.7935,3.8764,3.9158,3.908,3.7737,3.8685,4.1094,3.9746,3.9158,3.9295,4.0646,3.9864,3.8054,3.9413,3.9943,3.9943,3.9943,4.047,4.1211,4.1211,4.1211,4.1211,4.1211,4.1211,4.0919,3.957,3.8231,3.7458,3.8803,4.0138,4.1211,4.1211,4.1211,4.1211,4.1211,4.1211,4.1211,4.1211,4.1211,4.1211,4.1211,4.0469,3.9668,3.9023,0.0,3.6699,3.7051,3.7012,3.75,3.8984,3.9668,4.0195,4.0644,4.084,4.0918,4.0918,4.1113,4.1211,4.1211,4.1211,4.1211,4.1211,4.1211,4.1211,4.1211,4.1211,4.1211,4.1211,4.1211,4.1211,4.1211,4.1211,4.1211,4.1211,4.1211,4.1211,4.1211,4.1211,4.1211,4.1211,4.1211,4.1211,4.1211,4.1211,4.1211,4.1211,3.2835,3.308,3.3307,3.34,3.3414,3.3414,3.3414,3.3414,3.3414,3.3414,3.3414,3.3334,3.3133,3.312,3.3026,3.2888,3.2919,3.2812,3.2398,3.2398,3.2139,3.1396,3.1089,3.115,3.1568,3.3264,3.4927,3.6599,3.7924,3.8361,3.7896,3.7201,3.7241,3.7816,3.5661,3.7139,4.1055,3.8843,3.831,3.908,4.0607,4.0314,3.908,4.0627,4.1211,4.1211,4.1211,4.1211,4.1094,4.0392,4.0138,4.006,3.9374,3.9177,3.8843,3.7339,3.5822,3.5177,3.7321,3.9001,4.0314,4.1055,4.1211,4.1211,4.1211,4.1211,4.1211,4.1211,4.1211,4.1211,4.1211,4.0684,4.0215,3.9941,3.9004,3.8476,3.8926,3.8848,3.9121,4.0176,4.0547,4.084,4.1191,4.1211,4.1211,4.1211,4.1211,4.1211,4.1211,4.1211,4.1211,4.1211,4.1211,4.1211,4.1211,4.1211,4.1211,4.1211,4.1211,4.1211,4.1211,4.1211,4.1211,4.1211,4.1211,4.1211,4.1211,4.1211,4.1211,4.1211,4.1211,4.1211,4.1211,4.1211,4.1211,4.1211,3.2541,3.2835,3.3066,3.336,3.3414,3.3414,3.3414,3.3414,3.3414,3.3414,3.3414,3.3414,3.3414,3.3414,3.3414,3.3414,3.3146,3.2973,3.2973,3.2425,3.1971,3.1724,3.1383,3.2117,3.414,3.619,3.7818,3.8945,3.9109,3.8712,3.7816,3.5678,3.5839,3.7777,3.5661,3.7139,4.1055,3.8843,3.9158,4.1211,4.1211,4.1211,4.1211,4.1211,4.1211,4.1211,4.1172,4.1172,4.0841,3.8627,3.7856,3.7498,3.5396,3.4708,3.4668,3.4668,3.4668,3.5113,3.7259,3.7874,3.8429,4.0646,4.1211,4.1211,4.1211,4.1211,4.1211,4.1211,4.1211,4.1211,4.1211,4.1211,4.0937,4.0039,4.0254,4.0391,3.9961,4.0273,4.0684,4.1152,4.1211,4.1211,4.1211,4.1211,4.1211,4.1211,4.1211,4.1211,4.1211,4.1211,4.1211,4.1211,4.1211,4.1211,4.1211,4.1211,4.1211,4.1211,4.1211,4.1211,4.1211,4.1211,4.1211,4.1211,4.1211,4.1211,4.1211,4.1211,4.1211,4.1211,4.1211,4.1211,4.1211,4.1211,4.1211,4.1211,3.3093,3.3227,3.3307,3.34,3.3414,3.3414,3.3414,3.3414,3.3414,3.3414,3.3414,3.3414,3.3414,3.3227,3.3187,3.3387,3.3146,3.2942,3.2741,3.2166,3.1757,3.1724,3.1196,3.1199,3.1813,3.3087,3.3948,3.4298,3.5476,3.511,3.3349,3.4286,3.5016,3.5638,3.4975,3.7139,4.1055,3.8843,3.9158,4.1211,4.1211,4.1211,4.1211,4.1211,4.1211,4.1016,3.9453,3.8882,3.8548,3.6402,3.5808,3.5858,3.5411,3.4247,3.3007,3.3007,3.1925,3.1192,3.3384,3.5146,3.7142,4.037,4.1211,4.1211,4.1211,4.1211,4.1211,4.1211,4.1211,4.1211,4.1211,4.1211,4.1094,4.084,4.0898,4.0937,4.0839,4.0937,4.1035,4.1191,4.1211,4.1211,4.1211,4.1211,4.1211,4.1211,4.1211,4.1211,4.1211,4.1211,4.1211,4.1211,4.1211,4.1211,4.1211,4.1211,4.1211,4.1211,4.1211,4.1211,4.1211,4.1211,4.1211,4.1211,4.1211,4.1211,4.1211,4.1211,4.1211,4.1211,4.1211,4.1211,4.1211,4.1211,4.1211,4.1211,3.3187,3.3334,3.3414,3.3414,3.3414,3.3414,3.3414,3.3414,3.3414,3.3414,3.3414,3.3374,3.3253,3.308,3.3,3.3066,3.2955,3.2728,3.2433,3.2038,3.1784,3.1724,3.1209,3.1318,3.2133,3.2747,3.3248,3.3622,3.3776,3.3429,3.2694,3.3186,3.4327,3.5903,3.5056,3.7139,4.1055,3.8843,3.9158,4.1133,4.0275,3.9903,3.9786,3.8961,3.8645,3.8429,3.7099,3.6642,3.6322,3.4124,3.301,3.256,3.2716,3.1948,3.0995,3.0995,3.058,3.0638,3.3014,3.5094,3.741,4.081,4.166,4.166,4.166,4.166,4.166,4.166,4.166,4.166,4.166,4.166,4.166,4.166,4.1523,4.1426,4.1426,4.1426,4.1367,4.123,4.1465,4.1601,4.1426,4.1426,4.1348,4.123,4.1211,4.1211,4.1211,4.1211,4.1211,4.1211,4.1211,4.1211,4.1211,4.1211,4.1211,4.1211,4.1211,4.1211,4.1211,4.1211,4.1211,4.1211,4.1211,4.1211,4.1211,4.1211,4.1211,4.1211,4.1211,4.1211,4.1211,4.1211,4.1211,4.1211,3.3009,3.3227,3.3414,3.3414,3.3414,3.3414,3.3414,3.3387,3.3374,3.3374,3.3347,3.324,3.2973,3.2919,3.2848,3.2621,3.2567,3.2433,3.2118,3.2078,3.1944,3.1724,3.141,3.2079,3.3912,3.3869,3.4268,3.5145,3.3372,3.3159,3.4416,3.2577,3.3952,3.7816,3.588,3.7179,4.0763,3.8764,3.8961,4.0431,3.8429,3.7618,3.7401,3.542,3.4692,3.4651,3.4489,3.4408,3.4099,3.1922,3.0071,2.8684,2.8711,2.8855,2.9112,2.933,3.0595,3.2501,3.5096,3.6908,3.8773,4.1543,4.2378,4.2479,4.2401,4.2382,4.2382,4.2382,4.2382,4.2382,4.2382,4.2382,4.2382,4.2382,4.2109,4.1855,4.1855,4.1855,4.1719,4.1328,4.1933,4.2187,4.1836,4.1758,4.1582,4.125,4.1211,4.123,4.1269,4.123,4.123,4.1269,4.123,4.1211,4.1211,4.1211,4.1211,4.1211,4.1211,4.1211,4.1211,4.1211,4.1211,4.1211,4.1211,4.1211,4.1211,4.1211,4.1211,4.1211,4.1211,4.1211,4.1211,4.1211,4.1211,4.1211,3.3307,3.3374,3.3414,3.3414,3.3414,3.3414,3.3414,3.3213,3.3066,3.3066,3.2929,3.2755,3.2701,3.2438,3.2358,3.2581,3.238,3.2171,3.2104,3.1891,3.1778,3.1724,3.161,3.1658,3.1861,3.1163,3.0815,3.0829,3.1942,3.2481,3.2475,3.3829,3.5689,3.7896,3.7419,3.7737,3.8587,3.8094,3.7219,3.6081,3.5598,3.5379,3.5339,3.4854,3.4692,3.4449,3.2735,3.2134,3.1854,3.0099,2.9423,2.9339,2.9566,2.9673,3.0069,3.1929,3.2733,3.3588,3.5924,3.8122,3.9956,4.0597,4.2102,4.3242,4.2578,4.2382,4.2382,4.2382,4.2382,4.2382,4.2382,4.2382,4.2382,4.2382,4.2304,4.2245,4.2245,4.2245,4.2266,4.2168,4.2031,4.1894,4.1816,4.1504,4.1308,4.1211,4.1211,4.1348,4.1641,4.1348,4.1328,4.166,4.1348,4.1211,4.1211,4.1211,4.1211,4.1211,4.1211,4.1211,4.1211,4.1211,4.1211,4.1211,4.1211,4.1211,4.1211,4.1211,4.1211,4.1211,4.1211,4.1211,4.1211,4.1211,4.1211,4.1211,3.3173,3.332,3.3414,3.3414,3.3293,3.32,3.32,3.2959,3.2822,3.2822,3.2688,3.2541,3.2393,3.2367,3.2318,3.238,3.2064,3.1891,3.1891,3.1805,3.1711,3.1711,3.1711,3.1463,3.1022,3.0702,3.0261,2.9686,3.0638,3.1881,3.3375,3.3525,3.5162,3.7856,3.6842,3.6362,3.6362,3.6362,3.5719,3.4611,3.3553,3.3104,3.3022,3.197,3.1614,3.1448,3.0301,2.9957,2.9958,2.9217,2.9232,2.972,3.0947,3.1441,3.1997,3.4329,3.5681,3.6685,3.8109,3.9862,4.1459,4.2101,4.2997,4.3652,4.3418,4.3359,4.3418,4.3572,4.3631,4.3572,4.3398,4.3359,4.3301,4.3066,4.2871,4.2734,4.2734,4.2734,4.2656,4.2421,4.2598,4.2637,4.2422,4.2207,4.1992,4.1797,4.1777,4.1777,4.1797,4.1777,4.168,4.1504,4.1484,4.1387,4.1211,4.1211,4.1211,4.1211,4.1211,4.1211,4.1211,4.1211,4.1211,4.1211,4.1211,4.1211,4.1211,4.1211,4.1211,4.1211,4.1211,4.1211,4.1211,4.1211,4.1211,4.1211,3.2982,3.3213,3.3414,3.3414,3.3213,3.304,3.2986,3.2822,3.2634,3.2527,3.2514,3.2407,3.2064,3.23,3.234,3.2051,3.181,3.1711,3.1711,3.1711,3.1711,3.1711,3.1711,3.1497,3.0955,3.1129,3.0749,2.9913,3.0113,3.1758,3.4576,3.2758,3.3854,3.7241,3.5097,3.4124,3.4124,3.4124,3.392,3.3447,3.1598,3.0827,3.0676,2.8935,2.8259,2.8272,2.8326,2.854,2.8791,2.8988,2.9312,2.9981,3.2252,3.3171,3.3951,3.6615,3.8524,3.9976,4.0782,4.1903,4.3084,4.4238,4.4219,4.4043,4.4512,4.4551,4.4609,4.4961,4.4977,4.4922,4.457,4.4453,4.4277,4.3887,4.3457,4.3183,4.3183,4.3183,4.3047,4.2695,4.3203,4.3437,4.3008,4.2969,4.2812,4.2421,4.2382,4.2305,4.2031,4.2207,4.2031,4.1406,4.1582,4.1523,4.1211,4.1211,4.1211,4.1211,4.1211,4.1211,4.1211,4.1211,4.1211,4.1211,4.1211,4.1211,4.1211,4.1211,4.1211,4.1211,4.1211,4.1211,4.1211,4.1211,4.1211,4.1211,3.2973,3.3213,3.3414,3.3414,3.3374,3.3267,3.3013,3.2946,3.2732,3.2225,3.2158,3.2051,3.1757,3.1805,3.1818,3.1778,3.1738,3.1711,3.1711,3.1711,3.1711,3.1711,3.1711,3.1684,3.1604,3.1343,3.0749,2.9913,3.2137,3.3027,3.2686,3.2489,3.3375,3.5016,3.2817,3.1846,3.1846,3.1846,3.0786,2.9048,2.8754,2.8628,2.8627,2.8572,2.8537,2.8577,2.8831,2.9112,2.9366,2.9406,2.9619,3.0249,3.2588,3.335,3.4257,3.857,4.0245,4.1196,4.3274,4.422,4.4684,4.486,4.486,4.4961,4.541,4.5215,4.4918,4.4977,4.4977,4.4957,4.4961,4.4648,4.4375,4.4316,4.3926,4.3613,4.3613,4.3613,4.3594,4.3535,4.332,4.2988,4.2558,4.2479,4.246,4.2382,4.2382,4.2558,4.2931,4.2266,4.1992,4.2246,4.1601,4.1269,4.1211,4.1211,4.1211,4.1211,4.1211,4.1211,4.1211,4.1211,4.1211,4.1211,4.1211,4.1211,4.1211,4.1211,4.1211,4.1211,4.1211,4.1211,4.1211,4.1211,4.1211,4.1211,3.2519,3.2853,3.312,3.2959,3.2933,3.2826,3.2532,3.2674,3.2581,3.1944,3.1998,3.2051,3.1931,3.1904,3.1984,3.2193,3.1912,3.1711,3.1711,3.1711,3.1711,3.1711,3.1711,3.1597,3.1423,3.145,3.1129,3.0408,3.1429,3.2113,3.249,3.1368,3.1609,3.2975,3.0827,2.9846,2.9846,2.9846,2.9364,2.8644,2.8644,2.8644,2.8657,2.8791,2.8801,2.8841,2.9179,2.9366,2.972,3.1181,3.1003,3.0817,3.4445,3.5743,3.6563,3.9919,4.199,4.3415,4.443,4.484,4.5035,4.5332,4.5391,4.5508,4.5937,4.5879,4.5742,4.5742,4.5742,4.5664,4.543,4.5039,4.4746,4.4746,4.4375,4.4082,4.4082,4.4297,4.4355,4.4121,4.3691,4.3359,4.3164,4.3144,4.3144,4.3144,4.3144,4.3125,4.3127,4.2755,4.2383,4.209,4.1719,4.1406,4.1211,4.1211,4.1211,4.1211,4.1211,4.1211,4.1211,4.1211,4.1211,4.1211,4.1211,4.1211,4.1211,4.1211,4.1211,4.1211,4.1211,4.1211,4.1211,4.1211,4.1211,4.1211]},{"header":{"parameterUnit":"m.s-1","parameterCategory":1,"la1":30.6,"la2":28.766,"lo1":-90.7593,"lo2":-88.6598,"dy":0.0162,"dx":0.0183,"nx":116,"ny":114,"refTime":"2023-04-23T18:00:00:Z","depth":0,"parameterNumber":3,"parameterNumberName":"V-component_of_WINDS"},"data":[0.0,0.0,0.0,0.0,0.0,0.0,0.0,0.0,0.0,0.0,0.0,0.0,0.0,0.0,0.0,0.0,0.0,0.0,0.0,0.0,0.0,0.0,0.0,0.0,0.0,0.0,0.0,0.0,0.0,0.0,0.0,0.0,0.0,0.0,0.0,0.0,0.0,0.0,0.0,0.0,0.0,0.0,0.0,0.0,0.0,0.0,0.0,0.0,0.0,0.0,0.0,0.0,0.0,0.0,0.0,0.0,0.0,0.0,0.0,0.0,0.0,0.0,0.0,0.0,0.0,0.0,0.0,0.0,0.0,0.0,0.0,0.0,0.0,0.0,0.0,0.0,0.0,0.0,0.0,0.0,0.0,0.0,0.0,0.0,0.0,0.0,0.0,0.0,0.0,0.0,0.0,0.0,0.0,0.0,0.0,0.0,0.0,0.0,0.0,0.0,0.0,0.0,0.0,0.0,0.0,0.0,0.0,0.0,0.0,0.0,0.0,0.0,0.0,0.0,0.0,0.0,0.0,0.0,0.0,0.0,0.0,0.0,0.0,0.0,0.0,0.0,0.0,0.0,0.0,0.0,0.0,0.0,0.0,0.0,0.0,0.0,0.0,0.0,0.0,0.0,0.0,0.0,0.0,0.0,0.0,0.0,0.0,0.0,0.0,0.0,0.0,0.0,0.0,0.0,0.0,0.0,0.0,0.0,0.0,0.0,0.0,0.0,0.0,0.0,0.0,0.0,0.0,0.0,0.0,0.0,0.0,0.0,0.0,0.0,0.0,0.0,0.0,0.0,0.0,0.0,0.0,0.0,0.0,0.0,0.0,0.0,0.0,0.0,0.0,0.0,0.0,0.0,0.0,0.0,0.0,0.0,0.0,0.0,0.0,0.0,0.0,0.0,0.0,0.0,0.0,0.0,0.0,0.0,0.0,0.0,0.0,0.0,0.0,0.0,0.0,0.0,0.0,0.0,0.0,0.0,0.0,0.0,0.0,0.0,0.0,0.0,0.0,0.0,0.0,0.0,0.0,0.0,0.0,0.0,0.0,0.0,0.0,0.0,0.0,0.0,0.0,0.0,0.0,0.0,0.0,0.0,0.0,0.0,0.0,0.0,0.0,0.0,0.0,0.0,0.0,0.0,0.0,0.0,0.0,0.0,0.0,0.0,0.0,0.0,0.0,0.0,0.0,0.0,0.0,0.0,0.0,0.0,0.0,0.0,0.0,0.0,0.0,0.0,0.0,0.0,0.0,0.0,0.0,0.0,0.0,0.0,0.0,0.0,0.0,0.0,0.0,0.0,0.0,0.0,0.0,0.0,0.0,0.0,0.0,0.0,0.0,0.0,0.0,0.0,0.0,0.0,0.0,0.0,0.0,0.0,0.0,0.0,0.0,0.0,0.0,0.0,0.0,0.0,0.0,0.0,0.0,0.0,0.0,0.0,0.0,0.0,0.0,0.0,0.0,0.0,0.0,0.0,0.0,0.0,0.0,0.0,0.0,0.0,0.0,0.0,0.0,0.0,0.0,0.0,0.0,0.0,0.0,0.0,0.0,0.0,0.0,0.0,0.0,0.0,0.0,0.0,0.0,0.0,0.0,0.0,0.0,0.0,0.0,0.0,0.0,0.0,0.0,0.0,0.0,0.0,0.0,0.0,0.0,0.0,0.0,0.0,0.0,0.0,0.0,0.0,0.0,0.0,0.0,0.0,0.0,0.0,0.0,0.0,0.0,0.0,0.0,0.0,0.0,0.0,0.0,0.0,0.0,0.0,0.0,0.0,0.0,0.0,0.0,0.0,0.0,0.0,0.0,0.0,0.0,0.0,0.0,0.0,0.0,0.0,0.0,0.0,0.0,0.0,0.0,0.0,0.0,0.0,0.0,0.0,0.0,0.0,0.0,0.0,0.0,0.0,0.0,0.0,0.0,0.0,0.0,0.0,0.0,0.0,0.0,0.0,0.0,0.0,0.0,0.0,0.0,0.0,0.0,0.0,0.0,0.0,0.0,0.0,0.0,0.0,0.0,0.0,0.0,0.0,0.0,0.0,0.0,0.0,0.0,0.0,0.0,0.0,0.0,0.0,0.0,0.0,0.0,0.0,0.0,0.0,0.0,0.0,0.0,0.0,0.0,0.0,0.0,0.0,0.0,0.0,0.0,0.0,0.0,0.0,0.0,0.0,0.0,0.0,0.0,0.0,0.0,0.0,0.0,0.0,0.0,0.0,0.0,0.0,0.0,0.0,0.0,0.0,0.0,0.0,0.0,0.0,0.0,0.0,0.0,0.0,0.0,0.0,0.0,0.0,0.0,0.0,0.0,0.0,0.0,0.0,0.0,0.0,0.0,0.0,0.0,0.0,0.0,0.0,0.0,0.0,0.0,0.0,0.0,0.0,0.0,0.0,0.0,0.0,0.0,0.0,0.0,0.0,0.0,0.0,0.0,0.0,0.0,0.0,0.0,0.0,0.0,0.0,0.0,0.0,0.0,0.0,0.0,0.0,0.0,0.0,0.0,0.0,0.0,0.0,0.0,0.0,0.0,0.0,0.0,0.0,0.0,0.0,0.0,0.0,0.0,0.0,0.0,0.0,0.0,0.0,0.0,0.0,0.0,0.0,0.0,0.0,0.0,0.0,0.0,0.0,0.0,0.0,0.0,0.0,0.0,0.0,0.0,0.0,0.0,0.0,0.0,0.0,0.0,0.0,0.0,0.0,0.0,0.0,0.0,0.0,0.0,0.0,0.0,0.0,0.0,0.0,0.0,0.0,0.0,0.0,0.0,0.0,0.0,0.0,0.0,0.0,0.0,0.0,0.0,0.0,0.0,0.0,0.0,0.0,0.0,0.0,0.0,0.0,0.0,0.0,0.0,0.0,0.0,0.0,0.0,0.0,0.0,0.0,0.0,0.0,0.0,0.0,0.0,0.0,0.0,0.0,0.0,0.0,0.0,0.0,0.0,0.0,0.0,0.0,0.0,0.0,0.0,0.0,0.0,0.0,0.0,0.0,0.0,0.0,0.0,0.0,0.0,0.0,0.0,0.0,0.0,0.0,0.0,0.0,0.0,0.0,0.0,0.0,0.0,0.0,0.0,0.0,0.0,0.0,0.0,0.0,0.0,0.0,0.0,0.0,0.0,0.0,0.0,0.0,0.0,0.0,0.0,0.0,0.0,0.0,0.0,0.0,0.0,0.0,0.0,0.0,0.0,0.0,0.0,0.0,0.0,0.0,0.0,0.0,0.0,0.0,0.0,0.0,0.0,0.0,0.0,0.0,0.0,0.0,0.0,0.0,0.0,0.0,0.0,0.0,0.0,0.0,0.0,0.0,0.0,0.0,0.0,0.0,0.0,0.0,0.0,0.0,0.0,0.0,0.0,0.0,0.0,0.0,0.0,0.0,0.0,0.0,0.0,0.0,0.0,0.0,0.0,0.0,0.0,0.0,0.0,0.0,0.0,0.0,0.0,0.0,0.0,0.0,0.0,0.0,0.0,0.0,0.0,0.0,0.0,0.0,0.0,0.0,0.0,0.0,0.0,0.0,0.0,0.0,0.0,0.0,0.0,0.0,0.0,0.0,0.0,0.0,0.0,0.0,0.0,0.0,0.0,0.0,0.0,0.0,0.0,0.0,0.0,0.0,0.0,0.0,0.0,0.0,0.0,0.0,0.0,0.0,0.0,0.0,0.0,0.0,0.0,0.0,0.0,0.0,0.0,0.0,0.0,0.0,0.0,0.0,0.0,0.0,0.0,0.0,0.0,0.0,0.0,0.0,0.0,0.0,0.0,0.0,0.0,0.0,0.0,0.0,0.0,0.0,0.0,0.0,0.0,0.0,0.0,0.0,0.0,0.0,0.0,0.0,0.0,0.0,0.0,0.0,0.0,0.0,0.0,0.0,0.0,0.0,0.0,0.0,0.0,0.0,0.0,0.0,0.0,0.0,0.0,0.0,0.0,0.0,0.0,0.0,0.0,0.0,0.0,0.0,0.0,0.0,0.0,0.0,0.0,0.0,0.0,0.0,0.0,0.0,0.0,0.0,0.0,0.0,0.0,0.0,0.0,0.0,0.0,0.0,0.0,0.0,0.0,0.0,0.0,0.0,0.0,0.0,0.0,0.0,0.0,0.0,0.0,0.0,0.0,0.0,0.0,0.0,0.0,0.0,0.0,0.0,0.0,0.0,0.0,0.0,0.0,0.0,0.0,0.0,0.0,0.0,0.0,0.0,0.0,0.0,0.0,0.0,0.0,0.0,0.0,0.0,0.0,0.0,0.0,0.0,0.0,0.0,0.0,0.0,0.0,0.0,0.0,0.0,0.0,0.0,0.0,0.0,0.0,0.0,0.0,0.0,0.0,0.0,0.0,0.0,0.0,0.0,0.0,0.0,0.0,0.0,0.0,0.0,0.0,0.0,0.0,0.0,0.0,0.0,0.0,0.0,0.0,0.0,0.0,0.0,0.0,0.0,0.0,0.0,0.0,0.0,0.0,0.0,0.0,0.0,0.0,0.0,0.0,0.0,0.0,0.0,0.0,0.0,0.0,0.0,0.0,0.0,0.0,0.0,0.0,0.0,0.0,0.0,0.0,0.0,0.0,0.0,0.0,0.0,0.0,0.0,0.0,0.0,0.0,0.0,0.0,0.0,0.0,0.0,0.0,0.0,0.0,0.0,0.0,0.0,0.0,0.0,0.0,0.0,0.0,0.0,0.0,0.0,0.0,0.0,0.0,0.0,0.0,0.0,0.0,0.0,0.0,0.0,0.0,0.0,0.0,0.0,0.0,0.0,0.0,0.0,0.0,0.0,0.0,0.0,0.0,0.0,0.0,0.0,0.0,0.0,0.0,0.0,0.0,0.0,0.0,0.0,0.0,0.0,0.0,0.0,0.0,0.0,0.0,0.0,0.0,0.0,0.0,0.0,0.0,0.0,0.0,0.0,0.0,0.0,0.0,0.0,0.0,0.0,0.0,0.0,0.0,0.0,0.0,0.0,0.0,0.0,0.0,0.0,0.0,0.0,0.0,0.0,0.0,0.0,0.0,0.0,0.0,0.0,0.0,0.0,0.0,0.0,0.0,0.0,0.0,0.0,0.0,0.0,0.0,0.0,0.0,0.0,0.0,0.0,0.0,0.0,0.0,0.0,0.0,0.0,0.0,0.0,0.0,0.0,0.0,0.0,0.0,0.0,0.0,0.0,0.0,0.0,0.0,0.0,0.0,0.0,0.0,0.0,0.0,0.0,0.0,0.0,0.0,0.0,0.0,0.0,0.0,0.0,0.0,0.0,0.0,0.0,0.0,0.0,0.0,0.0,0.0,0.0,0.0,0.0,0.0,0.0,0.0,0.0,0.0,0.0,0.0,0.0,0.0,0.0,0.0,0.0,0.0,0.0,0.0,0.0,0.0,0.0,0.0,0.0,0.0,0.0,0.0,0.0,0.0,0.0,0.0,0.0,0.0,0.0,0.0,0.0,0.0,0.0,0.0,0.0,0.0,0.0,0.0,0.0,0.0,0.0,0.0,0.0,0.0,0.0,0.0,0.0,0.0,0.0,0.0,0.0,0.0,0.0,0.0,0.0,0.0,0.0,0.0,0.0,0.0,0.0,0.0,0.0,0.0,0.0,0.0,0.0,0.0,0.0,0.0,0.0,0.0,0.0,0.0,0.0,0.0,0.0,0.0,0.0,0.0,0.0,0.0,0.0,0.0,0.0,0.0,0.0,0.0,0.0,0.0,0.0,0.0,0.0,0.0,0.0,0.0,0.0,0.0,0.0,0.0,0.0,0.0,0.0,0.0,0.0,0.0,0.0,0.0,0.0,0.0,0.0,0.0,0.0,0.0,0.0,0.0,0.0,0.0,0.0,0.0,0.0,0.0,0.0,0.0,0.0,0.0,0.0,0.0,0.0,0.0,0.0,0.0,0.0,0.0,0.0,0.0,0.0,0.0,0.0,0.0,0.0,0.0,0.0,0.0,0.0,0.0,0.0,0.0,0.0,0.0,0.0,0.0,0.0,0.0,0.0,0.0,0.0,0.0,0.0,0.0,0.0,0.0,0.0,0.0,0.0,0.0,0.0,0.0,0.0,0.0,0.0,0.0,0.0,0.0,0.0,0.0,0.0,0.0,0.0,0.0,0.0,1.7125,0.0,0.0,0.0,0.0,0.0,0.0,0.0,0.0,0.0,0.0,0.0,0.0,0.0,0.0,0.0,0.0,0.0,0.0,0.0,0.0,0.0,0.0,0.0,0.0,0.0,0.0,0.0,0.0,0.0,0.0,0.0,0.0,0.0,0.0,0.0,0.0,0.0,0.0,2.2184,2.1773,2.1652,2.1821,2.2073,2.1507,2.0264,0.0,0.0,0.0,0.0,0.0,0.0,0.0,0.0,0.0,0.0,0.0,0.0,0.0,0.0,0.0,0.0,0.0,0.0,0.0,0.0,0.0,0.0,0.0,0.0,0.0,0.0,0.0,0.0,0.0,0.0,0.0,0.0,0.0,0.0,0.0,0.0,0.0,0.0,0.0,0.0,0.0,0.0,0.0,0.0,0.0,0.0,0.0,0.0,0.0,0.0,0.0,0.0,0.0,0.0,0.0,0.0,0.0,0.0,0.0,0.0,0.0,0.0,0.0,0.0,0.0,0.0,0.0,0.0,0.0,0.0,0.0,1.8123,0.0,0.0,0.0,0.0,0.0,0.0,0.0,0.0,0.0,0.0,0.0,0.0,0.0,0.0,0.0,0.0,0.0,0.0,0.0,0.0,0.0,0.0,0.0,2.1501,2.2182,2.2968,2.3386,2.364,0.0,0.0,0.0,0.0,0.0,0.0,0.0,2.1748,2.2061,2.2815,2.2827,2.3376,2.4457,2.4874,2.3961,2.1906,2.1043,0.0,0.0,0.0,0.0,0.0,0.0,0.0,0.0,0.0,0.0,0.0,0.0,0.0,0.0,0.0,0.0,0.0,0.0,0.0,0.0,0.0,0.0,0.0,0.0,0.0,0.0,0.0,0.0,0.0,0.0,0.0,0.0,0.0,0.0,0.0,0.0,0.0,0.0,0.0,0.0,0.0,0.0,0.0,0.0,0.0,0.0,0.0,0.0,0.0,0.0,0.0,0.0,0.0,0.0,0.0,0.0,0.0,0.0,0.0,0.0,0.0,0.0,0.0,2.9155,2.832,2.6449,2.6617,2.5582,2.3532,2.2443,2.1686,2.1133,1.9229,0.0,0.0,0.0,0.0,0.0,0.0,0.0,0.0,0.0,0.0,0.0,0.0,0.0,0.0,0.0,0.0,0.0,0.0,0.0,0.0,0.0,2.2179,2.3054,2.4253,2.3884,2.3849,2.4425,0.0,0.0,0.0,0.0,0.0,2.2583,2.1993,2.2225,2.3312,2.409,2.5071,2.6169,2.6179,2.6296,2.645,2.4854,2.4633,2.537,0.0,0.0,0.0,0.0,0.0,0.0,0.0,0.0,0.0,0.0,0.0,0.0,0.0,0.0,0.0,0.0,0.0,0.0,0.0,0.0,0.0,0.0,0.0,0.0,0.0,0.0,0.0,0.0,0.0,0.0,0.0,0.0,0.0,0.0,0.0,0.0,0.0,0.0,0.0,0.0,0.0,2.5276,2.4365,0.0,0.0,0.0,0.0,0.0,0.0,0.0,0.0,0.0,0.0,0.0,0.0,0.0,2.9302,2.9835,3.1486,3.1493,2.9904,3.1768,3.1131,2.8272,2.9157,2.8997,2.802,2.75,0.0,2.3799,2.1289,0.0,0.0,0.0,0.0,0.0,0.0,0.0,0.0,0.0,0.0,0.0,0.0,0.0,0.0,0.0,0.0,0.0,0.0,0.0,0.0,0.0,2.3069,2.437,2.5292,2.6221,2.6366,2.5458,2.54,0.0,0.0,0.0,2.2523,2.2154,2.2478,2.365,2.5651,2.6715,2.791,2.9254,2.9513,3.0011,3.0558,2.9802,2.8339,2.6327,2.4902,0.0,0.0,0.0,0.0,0.0,0.0,0.0,0.0,0.0,0.0,0.0,0.0,0.0,0.0,0.0,0.0,0.0,0.0,0.0,0.0,0.0,0.0,0.0,0.0,0.0,0.0,0.0,0.0,0.0,0.0,0.0,0.0,0.0,0.0,0.0,0.0,0.0,0.0,0.0,2.4045,2.5351,2.3587,2.4582,2.426,0.0,0.0,0.0,0.0,0.0,0.0,0.0,0.0,0.0,2.8825,3.0959,3.2667,3.3869,3.5527,3.6217,3.5935,3.6604,3.5896,3.4074,3.4203,3.3165,3.1289,3.1965,3.1395,2.9757,2.5857,2.4359,2.4325,0.0,0.0,0.0,0.0,2.2197,2.24,0.0,0.0,0.0,0.0,0.0,0.0,0.0,0.0,0.0,0.0,0.0,0.0,2.2411,2.4229,2.5897,2.7167,2.8318,2.8345,2.6806,2.634,2.4943,2.2312,2.2363,2.2283,2.1974,2.3464,2.5489,2.8048,2.9145,3.0426,3.1859,3.224,3.2667,3.309,3.309,3.1349,2.8315,2.6925,2.5666,2.4491,0.0,0.0,0.0,0.0,0.0,0.0,0.0,0.0,0.0,0.0,0.0,0.0,0.0,0.0,0.0,0.0,0.0,0.0,0.0,0.0,0.0,0.0,0.0,0.0,0.0,0.0,0.0,0.0,0.0,0.0,0.0,0.0,0.0,0.0,0.0,0.0,0.0,2.4962,2.6314,2.3678,2.5979,2.6432,0.0,0.0,0.0,0.0,0.0,0.0,2.7706,2.9578,3.129,3.2839,3.465,3.6257,3.7637,3.8894,3.9923,4.07,3.9783,3.8998,3.8292,3.7342,3.5731,3.3705,3.482,3.5255,3.4838,3.027,2.8232,2.7927,2.6426,2.5712,2.5543,2.5954,2.6092,2.6184,0.0,0.0,0.0,0.0,0.0,0.0,0.0,0.0,0.0,0.0,0.0,2.2215,2.4498,2.5739,2.7595,3.0495,2.9315,2.849,2.8642,2.5926,2.4089,2.3547,2.2383,2.2034,2.2643,2.5196,2.7605,2.9757,3.08,3.1879,3.3014,3.304,3.3065,3.309,3.309,3.3206,3.3165,3.0701,2.9228,2.8267,2.5277,0.0,0.0,0.0,0.0,0.0,0.0,0.0,0.0,0.0,0.0,0.0,0.0,0.0,0.0,0.0,0.0,0.0,0.0,0.0,0.0,0.0,0.0,0.0,0.0,0.0,0.0,0.0,0.0,0.0,0.0,0.0,0.0,0.0,0.0,0.0,0.0,0.0,0.0,2.6725,2.917,0.0,0.0,0.0,0.0,2.8455,2.9634,3.0557,3.111,3.3699,3.5707,3.6884,3.9044,4.0449,4.1051,4.1152,4.1227,4.1225,3.9315,3.835,3.8214,3.6283,3.5316,3.5178,3.5261,3.6085,3.7056,3.3365,3.2018,3.1982,2.9028,2.754,2.7085,2.7108,2.7108,2.7131,0.0,0.0,0.0,0.0,0.0,0.0,0.0,0.0,1.9976,1.9744,2.1931,2.3874,2.4796,2.811,3.0729,3.1818,3.2556,3.2149,3.0157,2.7983,2.6133,2.4681,2.3533,2.3855,2.588,2.7776,2.9619,3.1371,3.2113,3.3219,3.4628,3.3947,3.3972,3.4628,3.4276,3.4019,3.3696,3.1856,3.0,2.8196,2.6504,2.4672,0.0,0.0,0.0,0.0,0.0,0.0,0.0,0.0,0.0,0.0,0.0,0.0,0.0,0.0,0.0,0.0,0.0,0.0,0.0,0.0,0.0,0.0,0.0,0.0,0.0,0.0,0.0,0.0,0.0,0.0,0.0,0.0,0.0,0.0,0.0,0.0,0.0,2.9824,3.2914,0.0,3.0482,3.0703,3.1205,3.1562,3.3294,3.4726,3.5604,3.794,3.9596,4.0376,4.1532,4.2183,4.2384,4.2384,4.2384,4.2384,4.1315,4.0599,4.02,3.9126,3.7944,3.6757,3.7713,3.7899,3.7485,3.7147,3.6652,3.5908,3.4466,3.3348,3.257,3.2979,3.2883,3.2616,0.0,0.0,0.0,0.0,0.0,0.0,0.0,0.0,2.0596,2.076,2.3351,2.5623,2.67,3.0461,3.3131,3.3695,3.4338,3.376,3.1575,2.9049,2.7013,2.5639,2.4791,2.5519,2.8039,2.9643,3.1298,3.3047,3.3445,3.4198,3.5207,3.4324,3.4299,3.4931,3.4577,3.4226,3.384,3.2874,3.1087,2.8859,2.7885,2.6393,2.4526,0.0,0.0,0.0,0.0,0.0,0.0,0.0,0.0,0.0,0.0,0.0,0.0,0.0,0.0,0.0,0.0,0.0,0.0,0.0,0.0,0.0,0.0,0.0,0.0,0.0,0.0,0.0,0.0,0.0,0.0,0.0,0.0,0.0,0.0,3.024,3.2591,3.206,3.5577,3.701,3.4424,3.5027,3.5753,3.613,3.7713,3.9222,4.0619,4.1622,4.2656,4.374,4.3445,4.3263,4.3263,4.309,4.3014,4.2989,4.2261,4.1681,4.1277,4.0549,3.9502,3.8295,3.9284,3.9129,3.8321,3.931,3.9245,3.8517,3.7965,3.7186,3.6384,3.6607,3.6408,3.6108,0.0,0.0,0.0,0.0,0.0,0.0,0.0,2.0731,2.1471,2.2738,2.4855,2.7368,3.028,3.262,3.46,3.623,3.4396,3.3074,3.2869,2.8879,2.6458,2.6309,2.6084,2.6904,2.8973,3.0698,3.2629,3.4728,3.4728,3.4728,3.4728,3.4198,3.3922,3.3947,3.3922,3.3922,3.3922,3.3922,3.2692,3.0597,2.9586,2.8671,2.7644,0.0,0.0,0.0,0.0,0.0,0.0,0.0,0.0,0.0,0.0,0.0,0.0,0.0,0.0,0.0,0.0,0.0,0.0,0.0,0.0,0.0,0.0,0.0,0.0,0.0,0.0,0.0,0.0,0.0,0.0,0.0,0.0,0.0,2.8969,3.2713,3.5054,3.3592,3.7235,3.9421,3.8316,3.9671,4.1105,4.2267,4.2846,4.3994,4.5974,4.4778,4.4866,4.6845,4.4948,4.3872,4.379,4.3263,4.2989,4.2964,4.1854,4.1327,4.1225,4.0224,3.9722,3.9697,3.9697,3.9697,3.9697,3.9697,3.9697,3.9647,3.912,3.8567,3.7939,3.7436,3.721,3.711,0.0,0.0,0.0,0.0,0.0,0.0,0.0,2.1166,2.1784,2.2781,2.58,2.8557,3.0396,3.3661,3.5728,3.5732,3.4828,3.3572,3.1992,2.8864,2.6969,2.6651,2.8489,3.0148,3.1492,3.3037,3.4303,3.5282,3.5282,3.5506,3.5904,3.4951,3.4678,3.5031,3.4653,3.4477,3.4477,3.4477,3.39,3.2842,3.1382,3.0596,3.0132,0.0,0.0,0.0,0.0,0.0,0.0,0.0,0.0,0.0,0.0,0.0,0.0,0.0,0.0,0.0,0.0,0.0,0.0,0.0,0.0,0.0,0.0,0.0,0.0,0.0,0.0,0.0,0.0,0.0,0.0,0.0,3.4232,3.6055,3.5729,3.7001,3.8542,4.01,4.2032,4.3109,4.2808,4.3184,4.4069,4.5498,4.5736,4.6532,4.8162,4.8219,4.7833,4.6928,4.6352,4.5307,4.379,4.3263,4.2813,4.2411,4.2512,4.1907,4.0725,4.0826,4.045,3.9697,3.9697,3.9697,3.9697,3.9697,3.9697,3.9672,3.9521,3.8868,3.799,3.7839,3.7311,3.6532,0.0,0.0,0.0,0.0,0.0,0.0,0.0,2.1868,2.2801,2.4054,2.6982,2.9562,3.1087,3.3712,3.5203,3.4853,3.4003,3.2732,3.0955,2.8883,2.8095,2.8987,3.0598,3.2078,3.3388,3.4496,3.5305,3.5881,3.5881,3.5931,3.6006,3.5355,3.5182,3.5483,3.5157,3.5054,3.5054,3.5054,3.4853,3.4497,3.3824,3.3463,3.3157,3.1322,3.0464,3.0166,2.9351,2.8679,2.8082,2.7619,0.0,0.0,0.0,0.0,0.0,0.0,0.0,0.0,0.0,0.0,0.0,0.0,0.0,0.0,0.0,0.0,0.0,0.0,0.0,0.0,0.0,0.0,0.0,0.0,3.831,4.1028,4.2016,4.126,4.1557,4.4066,4.4945,4.5468,4.5919,4.634,4.7053,4.8241,4.8416,4.9255,5.1023,5.0541,4.9611,4.8189,4.7339,4.5911,4.3843,4.3263,4.2838,4.2537,4.2612,4.2007,4.0826,4.0926,4.0499,3.9697,3.9697,3.9572,3.9371,3.9371,3.9371,0.0,0.0,0.0,0.0,0.0,3.7135,3.6331,0.0,0.0,0.0,0.0,0.0,0.0,0.0,2.2649,2.4026,2.5781,2.8097,3.024,3.1929,3.3194,3.3891,3.3896,3.26,3.1275,3.0007,2.9179,2.9768,3.2111,3.2496,3.3387,3.4951,3.5506,3.6008,3.6505,3.6505,3.6205,3.5583,3.5583,3.5583,3.5583,3.5583,3.5583,3.5583,3.5583,3.5558,3.5573,3.637,3.6557,3.62,3.4412,3.4204,3.4626,3.2823,3.1227,2.9898,2.9787,0.0,0.0,0.0,0.0,0.0,0.0,0.0,0.0,0.0,0.0,0.0,0.0,0.0,0.0,0.0,0.0,0.0,0.0,0.0,0.0,0.0,0.0,0.0,0.0,4.2466,4.5267,4.7644,4.542,4.4267,4.625,4.6627,4.7101,4.7954,4.9061,4.9964,5.0652,5.1007,5.2066,5.407,5.2175,0.0,0.0,0.0,4.5937,4.3919,4.3316,4.2964,4.2914,4.2439,4.1858,4.1175,4.0725,4.0224,3.9697,3.9697,3.9446,3.8994,3.8994,3.8919,3.8793,3.8793,3.8768,3.8567,3.7512,3.6808,3.6405,0.0,0.0,0.0,0.0,0.0,0.0,0.0,2.2885,2.4026,2.5781,2.8097,3.0091,3.1397,3.2943,3.3868,3.3762,3.2547,3.1344,3.0202,3.0929,3.182,3.2863,3.4187,3.5454,3.6708,3.7262,3.7362,3.706,3.706,3.6758,3.623,3.623,3.623,3.623,3.623,3.623,3.623,3.623,3.5956,3.5623,3.7186,3.7687,3.7469,3.6664,3.6168,3.5784,3.4929,3.4497,3.4154,3.3482,3.3018,3.2705,3.2392,3.0009,0.0,0.0,0.0,0.0,0.0,0.0,0.0,0.0,0.0,0.0,0.0,0.0,0.0,0.0,0.0,0.0,0.0,0.0,0.0,4.3753,4.6578,4.9173,5.1167,4.886,4.7104,4.7556,4.8725,4.9378,4.9057,5.0854,5.2375,5.3157,5.3742,5.4587,5.5697,5.4171,5.2422,5.0602,4.8184,4.6091,4.4468,4.3489,4.2788,4.2336,0.0,0.0,4.065,4.0549,4.0224,3.9697,3.9697,3.9647,3.9546,3.9546,3.8994,3.8165,3.8165,3.7889,3.7462,3.6783,3.6505,3.6331,0.0,0.0,0.0,0.0,0.0,0.0,0.0,2.3241,2.4274,2.5135,2.7466,2.9253,2.9784,3.0568,3.0982,3.087,3.0083,3.0081,3.122,3.1964,3.3175,3.4965,3.589,3.6735,3.7588,3.7864,3.7864,3.7588,3.7588,3.7462,3.721,3.721,3.721,3.721,3.721,3.721,3.7185,3.6909,3.6939,3.7312,3.8514,3.9496,4.0147,3.9254,3.8566,3.8006,3.7657,3.6673,3.5527,3.5658,3.5524,3.5305,3.5267,3.3702,3.1848,0.0,0.0,0.0,0.0,0.0,0.0,0.0,0.0,0.0,0.0,0.0,0.0,0.0,0.0,3.6631,3.8502,0.0,4.61,4.8282,5.0194,5.2006,5.3725,5.185,5.0249,4.9997,5.0424,5.103,5.1777,5.3294,5.4544,5.5268,5.5746,5.6205,5.6619,5.4916,5.2777,5.038,4.8076,4.6013,4.4217,4.3388,4.2864,4.2587,4.2338,4.1758,4.0901,4.0625,4.0224,3.9697,3.9697,3.9546,3.9296,3.8969,3.8366,3.7588,3.7588,3.7286,3.6758,3.6505,3.6205,3.5956,0.0,0.0,0.0,0.0,0.0,0.0,0.0,2.3351,2.422,2.447,2.6531,2.7961,2.7932,2.799,2.7992,2.7919,2.8106,2.9431,3.2273,3.2976,3.445,3.7088,3.7389,3.7764,3.8316,3.8341,3.8291,3.8165,3.8165,3.8115,3.8015,3.8015,3.8015,3.8015,3.8015,3.8138,3.8333,3.7925,3.8387,3.9524,4.0305,4.1509,4.2667,4.1621,4.0906,4.0386,4.0091,3.8227,3.6128,3.7546,3.7482,3.6991,3.8137,3.7728,3.6469,3.4726,3.5207,0.0,0.0,0.0,0.0,0.0,0.0,0.0,0.0,3.6457,3.7328,3.9801,4.0866,4.2327,4.5566,4.7977,5.0222,5.261,5.3611,5.4576,5.5929,5.4474,5.3241,5.3129,5.2598,5.2892,5.4517,5.5737,5.6608,5.6956,5.7293,5.7363,5.7094,5.4912,5.2561,5.0131,4.7826,4.5783,4.3966,4.3413,4.3115,4.2989,4.2336,4.1756,4.1277,4.0625,4.0124,3.9723,3.9955,3.9626,3.8869,3.8513,3.7907,3.721,3.7085,3.6783,3.6405,3.6405,3.6081,3.5732,0.0,0.0,0.0,0.0,0.0,0.0,0.0,0.0,2.3282,2.4355,2.545,2.6233,2.6582,2.7024,2.7395,2.7539,2.9755,3.1581,3.2606,3.4578,3.6371,3.7833,3.8416,3.8969,3.9496,3.9496,3.9296,3.8793,3.8793,3.8542,3.8015,3.8015,3.8015,3.8015,3.8015,3.8627,3.968,3.9628,4.0328,4.1565,4.2697,4.33,4.3445,4.3199,4.2776,4.2153,4.0996,3.9213,3.7743,4.017,3.9446,3.8267,4.2702,4.2077,3.9864,4.0489,3.9175,3.7033,3.4771,3.5182,3.6754,3.9063,3.9145,4.0007,0.0,4.5196,4.4789,4.6998,4.7886,4.8551,4.9456,5.1761,5.4202,5.6199,5.6913,5.7455,5.8231,5.6444,5.5515,5.6905,5.648,5.5966,5.5649,5.7506,5.8527,5.7964,5.8513,5.8351,5.7154,5.4391,5.2155,5.0657,4.7385,4.5271,4.4514,4.3991,4.3463,4.2989,4.1904,4.1378,4.1277,4.0249,3.9747,3.9774,4.092,4.0433,3.8944,3.9464,3.8702,3.716,3.6681,3.6431,3.6405,3.6405,3.638,3.6306,0.0,0.0,0.0,0.0,0.0,0.0,0.0,0.0,0.0,2.3045,2.4292,2.5009,2.4538,2.5156,2.5652,2.5742,2.8553,3.094,3.2438,3.5096,3.72,3.8466,3.907,3.9472,3.9697,3.9697,3.9572,3.9371,3.9371,3.922,3.8994,3.8994,3.8994,3.9019,3.9773,4.0389,4.0898,4.1366,4.2228,4.3312,4.3529,4.4232,4.5084,4.4247,4.3561,4.2749,4.0294,3.8417,0.0,3.8261,3.8719,3.9369,4.2198,4.2334,4.1339,4.1035,4.1009,4.1103,4.1258,4.0174,3.9587,4.2109,4.3343,4.4638,4.7472,4.8199,4.8954,5.1364,5.2665,5.3791,5.514,5.6615,5.8141,5.9757,5.93,5.9363,6.0998,5.8867,5.7653,5.8942,5.814,5.758,5.7698,5.8567,5.8979,5.871,5.8949,5.8501,5.7154,5.431,5.2097,5.074,4.7343,4.5221,4.4614,4.4091,4.3514,4.2989,4.1829,4.1302,4.1277,4.0199,4.0109,4.0895,4.2157,4.2264,4.1559,4.1518,4.083,3.9754,3.9192,3.8739,3.827,3.6896,3.618,3.5931,0.0,0.0,0.0,0.0,0.0,0.0,0.0,0.0,0.0,0.0,2.3603,2.4327,2.365,2.4124,2.4575,2.4778,2.713,2.9608,3.2013,3.4558,3.677,3.8567,3.9346,3.9697,3.9697,3.9848,3.9848,3.9697,3.9697,3.9697,3.9697,3.9697,3.9697,3.9774,4.1019,4.1789,4.2177,4.3057,4.4135,4.5164,4.4792,4.529,4.6121,4.4596,4.3447,4.2319,3.9653,3.7635,3.6242,3.6241,3.7148,3.8623,4.0594,4.1548,4.1776,4.0896,4.1367,4.261,4.4674,4.3839,4.3104,4.5985,4.8185,5.0009,5.1275,5.2326,5.3645,5.5935,5.7015,5.7962,5.9398,6.0206,6.0954,6.1942,6.1203,6.1116,6.2845,6.0702,5.9183,5.974,5.8501,5.7842,5.8501,5.871,5.8919,5.9099,5.9099,5.859,5.7453,5.4396,5.218,5.1017,4.7421,4.5221,4.4614,4.4091,4.3438,4.2763,4.1754,4.1227,4.1051,4.0488,4.092,4.2206,4.348,4.3723,4.3247,4.3031,4.2349,4.1399,4.0791,4.0294,3.9689,3.7997,3.7077,3.6725,0.0,0.0,0.0,0.0,0.0,0.0,0.0,0.0,0.0,0.0,0.0,0.0,0.0,2.4586,2.4778,2.5499,2.6136,2.7952,3.1406,3.2694,3.4747,3.7889,3.9094,3.9697,3.9697,4.0224,4.0224,3.9697,3.9697,3.9697,3.9697,3.9697,3.9697,3.9774,4.1019,4.2277,4.3527,4.4789,4.607,4.7214,4.7184,4.6817,4.6091,4.4067,4.2252,4.064,3.9573,3.7327,3.4927,3.5454,3.5128,3.5112,3.8773,4.051,4.1133,4.1175,4.0058,3.9556,4.2709,4.4608,4.6746,5.1295,5.406,5.6359,5.9123,5.9791,6.0233,6.166,6.1423,6.0956,6.1016,6.1583,6.2061,6.2091,6.2601,6.302,6.3108,6.1345,5.9792,5.9219,5.745,5.6492,5.7094,5.7752,5.8384,5.9069,5.9099,5.88,5.8115,5.4653,5.2373,5.1708,4.7658,4.5221,4.4614,4.4091,4.3263,4.2238,4.1605,4.1026,4.0552,4.123,4.2255,4.3504,4.4794,4.4362,4.2777,4.3336,4.249,4.0758,4.0161,3.9913,3.9913,3.9826,3.9776,3.9596,0.0,0.0,0.0,0.0,0.0,0.0,0.0,0.0,0.0,0.0,0.0,0.0,0.0,0.0,0.0,0.0,2.6343,2.7807,2.9377,3.1818,3.4009,3.5808,3.7983,3.9346,3.9697,3.9873,4.0049,4.0249,3.9873,3.9697,3.9697,3.9697,3.9697,3.98,4.1912,4.3098,4.3646,4.5756,4.7169,4.7878,4.6988,4.6749,4.6646,4.3601,4.1203,3.9062,0.0,3.4565,3.3573,3.2893,3.3131,3.4108,3.638,3.7199,3.7465,3.8455,3.9991,4.2003,4.5021,4.8057,5.1329,5.524,5.7796,5.9958,6.2289,6.2417,6.2219,6.271,6.0182,5.7917,5.7917,5.7735,5.7886,5.8772,6.0503,6.2091,6.2988,6.2121,6.0835,5.9279,5.8141,5.7214,5.6581,5.6731,5.7453,5.8979,5.871,5.8145,5.7483,5.4425,5.2207,5.1072,4.7756,4.5573,4.4614,4.4414,4.3614,4.2187,4.2081,4.2183,4.2523,4.361,4.4349,4.484,4.6121,4.6315,4.5719,4.5497,4.502,4.4354,4.3253,4.2815,4.2815,4.2815,4.2532,4.1782,0.0,0.0,0.0,0.0,0.0,0.0,0.0,0.0,0.0,0.0,0.0,0.0,0.0,0.0,0.0,0.0,0.0,2.6705,2.7408,2.9619,3.1453,3.2666,3.5041,3.6493,3.6829,3.7031,3.7439,3.8025,3.8402,3.896,3.9628,3.9901,4.0387,4.1119,4.2762,4.3764,4.4303,4.6153,4.6651,4.6124,4.5242,4.4497,4.3693,4.1146,3.9038,0.0,3.4273,3.3016,3.2395,3.0755,3.1316,3.2897,3.4182,3.5285,3.6451,3.8295,4.1008,4.4287,4.846,5.2161,5.5806,5.9738,6.2147,6.4037,6.5891,6.5023,6.3754,6.3555,5.965,5.6102,5.5398,5.4319,5.3737,5.4387,5.6189,5.8291,6.0353,6.0057,5.9488,5.9129,5.8321,5.7423,5.6611,5.6521,5.706,5.8291,5.8441,5.8145,5.7483,5.4425,5.229,5.1432,4.7889,4.5573,4.4614,4.4389,4.3714,4.2562,4.2961,4.3503,4.421,4.5024,4.5666,4.6121,4.6953,4.7309,4.7249,4.657,4.6151,4.5852,4.5005,4.4506,4.4326,4.4566,4.4237,4.3236,0.0,0.0,0.0,0.0,0.0,0.0,0.0,0.0,0.0,0.0,0.0,0.0,0.0,0.0,0.0,0.0,0.0,0.0,2.5639,2.6353,2.7396,2.8808,3.0619,3.1637,3.1718,3.2209,3.2828,3.3546,3.5418,3.7288,3.9114,3.9804,4.1135,4.2932,4.3002,4.3727,4.4937,4.5572,4.4457,4.2237,4.2089,4.0473,3.8017,3.7187,3.6104,3.4876,3.3799,3.2716,3.1496,2.9375,3.008,3.2003,3.2816,3.5341,3.8447,4.0877,4.3258,4.6483,5.2799,5.671,6.0154,6.4722,6.6948,6.8402,6.9879,6.757,6.492,6.4119,5.9717,5.5381,5.3346,5.1515,5.0195,4.9672,5.0803,5.2852,5.6175,5.6064,5.6496,5.8919,5.8082,5.7274,5.7214,5.7184,5.7184,5.7154,5.8321,5.877,5.8115,5.4737,5.2764,5.2651,4.8088,4.5334,4.464,4.4098,4.3689,4.3462,4.4198,4.4917,4.5537,4.5508,4.6166,4.7309,4.7309,4.7309,4.7249,4.657,4.5942,4.5394,4.5334,4.4945,4.4476,4.5125,4.4904,4.3908,0.0,0.0,0.0,0.0,0.0,0.0,0.0,0.0,0.0,0.0,0.0,0.0,0.0,0.0,0.0,0.0,0.0,0.0,2.4168,2.5341,2.6456,2.7316,2.9289,3.0771,3.1691,3.1834,3.2182,3.279,3.2893,3.3184,3.368,3.3865,3.4479,3.5411,3.6426,3.7308,3.8093,3.9195,3.9829,4.0004,3.9017,3.8966,3.9196,3.7045,3.5847,3.5111,3.3841,3.2831,3.2123,3.217,3.478,3.8227,3.9442,4.1759,4.4466,4.6604,4.9505,5.2896,5.7221,6.1084,6.4612,6.7498,6.891,6.9722,7.0116,6.7864,6.4714,6.1262,5.5919,5.0858,4.7663,4.8483,5.0303,5.2236,5.5829,5.944,6.2437,6.1825,6.0954,6.0625,6.0296,5.9697,5.868,5.859,5.8381,5.7876,5.8145,5.8264,5.8115,5.5703,5.3612,5.2014,4.9205,4.6927,4.5301,4.4448,4.5019,4.6904,4.5737,4.6026,4.7526,4.7051,4.6997,4.7309,4.7309,4.7309,4.7249,4.657,4.648,4.6681,4.5693,4.5514,4.5822,4.5971,4.5005,4.3509,0.0,0.0,0.0,0.0,0.0,0.0,0.0,0.0,0.0,0.0,0.0,0.0,0.0,0.0,0.0,0.0,0.0,0.0,0.0,2.4242,2.4875,2.4986,2.6354,2.7446,2.8144,2.8439,2.8886,2.9469,3.0592,3.1319,3.1628,3.2239,3.301,3.3896,3.4374,3.5088,3.5968,3.661,3.6797,0.0,0.0,3.6011,3.6161,3.5138,3.4724,3.4622,3.4166,3.5133,3.6942,3.8587,4.0973,4.3599,4.5441,4.7777,5.0354,5.2819,5.5403,5.8154,6.1473,6.474,6.7557,6.918,6.9891,6.9688,6.7692,6.5034,6.1577,5.656,5.1477,4.7053,4.4088,4.557,4.7567,4.862,5.3165,5.7572,6.0368,6.0572,6.0715,6.1463,6.1553,6.1134,6.0086,5.9997,5.9697,5.9039,5.871,5.8414,5.8115,5.6349,5.4647,5.3134,5.1007,4.8975,4.7009,4.6568,4.6963,4.8211,4.7444,4.7524,4.8289,4.7608,4.7309,4.7309,0.0,4.7309,4.7279,4.6899,4.6779,4.6809,4.6352,4.6232,4.633,4.6629,4.5865,4.4544,0.0,0.0,0.0,0.0,0.0,0.0,0.0,0.0,0.0,0.0,0.0,0.0,0.0,0.0,0.0,0.0,0.0,0.0,0.0,0.0,2.3259,2.2708,2.3189,2.3488,2.3471,2.4123,2.4754,2.5334,2.8188,2.988,3.0466,3.1709,3.2922,3.4036,3.3496,3.3997,3.514,3.4973,3.4148,3.2953,3.3182,3.2692,3.1908,0.0,3.3493,3.3928,3.4486,3.7845,4.2426,4.5452,4.7339,4.8914,5.1546,5.3965,5.637,5.9387,6.1065,6.2562,6.5493,6.7726,6.9417,7.0161,7.0195,6.8876,6.4377,6.1066,5.7272,5.1283,4.7095,4.3918,4.1817,4.3134,4.4383,4.3996,4.8341,5.2829,5.5927,5.7165,5.886,6.1882,6.2241,6.2002,6.1433,6.1255,6.0954,6.0266,5.9608,5.8949,5.8264,5.695,5.5745,5.4803,5.2687,5.0823,4.9349,4.9304,4.9115,4.8736,4.911,4.9037,4.8506,4.7788,4.7429,4.7429,4.7339,4.7309,4.7309,4.7309,4.6958,4.648,4.7048,4.6929,4.651,4.71,4.6813,4.6027,0.0,0.0,0.0,0.0,0.0,0.0,0.0,0.0,0.0,0.0,2.442,2.4795,0.0,0.0,0.0,0.0,0.0,0.0,0.0,0.0,0.0,2.2701,2.2797,2.2859,2.2864,2.3448,2.3819,2.3939,2.4507,2.4866,2.4975,2.5224,2.5741,2.6476,2.6369,2.6993,2.8154,2.8116,2.8994,3.0432,3.0498,3.1488,3.2957,3.3377,0.0,0.0,3.4556,3.6842,4.0446,4.5555,5.0944,5.6123,5.9632,6.1806,6.3559,6.6048,6.6329,6.6337,6.8759,6.971,7.0195,7.0939,7.0195,6.8098,6.3599,5.9793,5.5198,4.8047,4.4519,4.2071,3.99,4.2287,4.5964,5.0195,5.3361,5.7007,6.1886,6.1786,6.1642,6.2808,6.2928,6.2898,6.2778,6.2241,6.1642,6.0984,6.0296,5.9638,5.8979,5.8169,5.6606,5.4138,5.1985,5.1067,5.1449,5.0395,5.0406,5.1488,5.0023,4.9516,4.983,4.8656,4.8139,4.8087,4.7549,0.0,4.7309,4.7309,4.7249,4.716,4.7249,4.7249,4.716,4.7279,4.6579,4.5515,0.0,0.0,0.0,0.0,0.0,0.0,0.0,2.3859,2.4735,2.647,2.6979,2.6931,2.6183,2.5513,2.4963,0.0,0.0,0.0,0.0,0.0,0.0,0.0,2.2702,2.2695,2.2694,2.3319,2.364,2.361,0.0,2.4298,2.361,2.3958,2.4107,2.4118,2.4736,2.5356,2.5939,2.6644,2.8075,2.9844,3.0212,3.1521,3.3225,0.0,0.0,0.0,3.4219,3.6874,4.0784,4.3771,5.0267,5.7925,6.3088,6.6004,6.7854,6.9708,6.9493,6.9109,7.0858,7.1041,7.0939,7.1684,7.0161,6.6812,6.0385,5.6325,5.1691,4.3842,4.1339,4.0134,3.87,4.2117,4.591,4.8223,5.17,5.5636,6.0001,6.0243,6.0805,6.2868,6.3108,6.3108,6.3108,6.2181,6.1463,6.1106,6.0146,5.9428,5.9129,5.8141,5.6958,5.5613,5.3585,5.272,5.3153,5.1806,5.1477,5.2187,5.0541,4.992,5.0166,4.9224,4.8618,4.8267,4.7967,4.7608,4.7309,4.7309,4.7309,4.7309,4.7309,4.7309,4.7309,4.7309,4.6909,4.6388,0.0,0.0,0.0,0.0,0.0,0.0,0.0,2.4933,2.5992,2.8667,2.9368,2.9039,2.759,2.6722,2.5902,0.0,0.0,0.0,0.0,0.0,0.0,0.0,0.0,0.0,2.25,0.0,0.0,2.3819,2.5005,0.0,0.0,0.0,0.0,0.0,2.4757,2.5342,2.5722,2.6818,2.8346,0.0,0.0,3.1873,3.3372,0.0,0.0,0.0,0.0,3.6812,4.0341,4.201,4.7865,5.5574,6.1924,6.6147,6.9095,7.047,7.0418,7.0251,7.1761,7.1751,7.1424,7.2022,6.9789,6.5358,5.7491,5.3129,4.8496,4.0629,3.887,3.8633,3.8227,4.1495,4.4452,4.5048,4.8357,5.2353,5.6607,5.7632,5.9165,6.2479,6.3018,6.3108,6.3108,6.2151,6.1433,6.1106,5.9877,5.9039,5.889,5.7752,5.7034,5.6885,5.5299,5.4431,5.4431,5.3234,5.2636,5.2606,5.1516,5.0999,5.0969,5.0201,4.9499,4.8843,4.8459,4.7908,4.7309,4.7309,4.7309,4.7309,4.7309,4.7309,4.7309,4.7309,4.7309,4.7309,0.0,0.0,0.0,0.0,0.0,0.0,0.0,2.6033,2.735,2.9983,2.9907,2.9728,3.0103,2.9056,2.7799,0.0,0.0,0.0,0.0,0.0,0.0,0.0,0.0,0.0,0.0,0.0,0.0,2.4515,2.5244,0.0,0.0,0.0,0.0,0.0,0.0,2.5192,2.6404,2.6522,0.0,0.0,0.0,0.0,0.0,0.0,0.0,0.0,0.0,3.5884,3.6405,4.1642,4.4938,4.7902,5.3702,6.0052,6.5636,6.7093,6.7838,6.8633,7.0826,7.1357,7.1323,7.1391,6.8639,6.4106,5.7255,5.2317,4.7259,4.0392,3.8464,3.8193,3.878,3.9276,4.097,4.5195,4.6286,4.8912,5.5655,5.7107,5.8632,6.1815,6.2748,6.3108,6.3108,6.2988,6.2391,6.1194,5.9877,5.883,5.8205,5.7513,5.6825,5.6312,5.5534,5.5089,5.5089,5.4371,5.4012,5.4012,5.3712,5.3557,5.3526,5.2251,5.1284,5.0551,4.8983,4.7908,0.0,4.7309,4.7309,4.7309,4.7309,4.7309,4.7309,4.7309,4.7309,4.7309,0.0,0.0,0.0,0.0,0.0,0.0,2.5979,2.6435,2.7679,3.0717,3.1226,3.13,3.1136,3.0658,2.9342,2.6824,0.0,0.0,0.0,0.0,0.0,0.0,0.0,0.0,0.0,0.0,2.4201,2.5214,2.5483,0.0,0.0,0.0,0.0,0.0,0.0,2.6531,2.6919,2.793,0.0,0.0,0.0,0.0,0.0,0.0,0.0,0.0,0.0,0.0,3.6743,3.8186,4.1023,4.4049,4.4594,4.9314,5.6029,6.2906,6.506,6.6136,7.0207,7.1289,7.1391,7.1853,6.7793,6.2313,5.6916,5.1201,4.55,4.01,3.8768,3.8633,3.8949,3.9356,4.0568,4.3318,4.368,4.54,5.0597,5.1422,5.3398,5.8514,5.9308,6.0443,6.2868,6.272,6.1942,6.0595,5.9997,5.9249,5.8145,5.7846,5.7423,5.6761,5.6132,5.5943,5.628,5.5632,5.5407,5.5717,5.521,5.4757,5.4292,5.3777,5.2554,5.0867,5.0171,4.8905,0.0,4.7309,4.7309,4.7309,4.7309,4.7309,4.7309,4.7309,4.7309,4.7309,0.0,0.0,0.0,0.0,0.0,2.4208,2.6033,2.6452,2.7709,3.0793,3.1465,3.1615,3.1511,3.1002,2.97,2.738,2.7003,0.0,0.0,0.0,0.0,0.0,0.0,0.0,0.0,0.0,2.4893,2.6147,2.6347,2.6726,0.0,0.0,2.7419,2.7671,0.0,0.0,0.0,0.0,0.0,0.0,0.0,0.0,0.0,0.0,0.0,0.0,0.0,0.0,0.0,0.0,0.0,4.0745,3.8977,4.1817,4.7643,5.6814,6.0753,6.3207,6.8009,7.0128,7.1142,7.1887,6.7015,6.0994,5.6968,5.066,4.4553,4.0493,3.9491,3.9322,3.9322,3.9931,4.0777,4.1826,4.222,4.3554,4.6821,4.7514,4.9528,5.449,5.5239,5.6915,6.0952,6.1613,6.1403,6.0475,6.0027,5.9308,5.8145,5.8426,5.8087,5.6881,5.6576,5.6621,5.6991,5.6653,5.6676,5.6989,5.6433,5.5871,5.5354,5.5181,5.3727,5.1393,5.1057,4.9518,0.0,4.7309,4.7309,4.7309,4.7309,4.7309,4.7309,4.7309,4.7309,4.7309,0.0,0.0,0.0,0.0,0.0,0.0,2.5393,2.6183,2.753,3.0163,2.9997,3.0117,3.1361,2.979,2.8607,2.8577,2.7961,0.0,0.0,0.0,0.0,0.0,0.0,0.0,0.0,0.0,2.6214,2.7492,2.8139,2.8679,2.9082,2.9082,2.9209,2.9445,0.0,0.0,0.0,0.0,0.0,0.0,0.0,0.0,3.6376,0.0,0.0,0.0,0.0,0.0,0.0,0.0,0.0,0.0,0.0,3.9631,4.2272,4.8356,5.4371,5.9859,6.3666,6.7387,7.0398,7.1142,6.6271,6.052,5.7476,5.1048,4.4857,4.18,4.0608,4.0079,4.0079,4.0696,4.1191,4.1204,4.2429,4.3964,4.5603,4.7019,4.8497,5.0065,5.0877,5.2815,5.6765,5.9578,6.1076,6.1076,5.9877,5.883,5.8145,5.922,5.8736,5.6303,5.6715,5.6991,5.7015,5.7458,5.7658,5.7702,5.735,5.7184,5.7151,5.6474,5.4887,5.2517,5.1393,4.9518,0.0,4.7309,4.7309,4.7309,4.7309,4.7309,4.7309,4.7309,4.7309,4.7309,0.0,0.0,0.0,0.0,0.0,0.0,0.0,2.5083,2.6201,2.8846,2.9026,2.9415,3.0687,2.9894,2.8912,2.7926,2.723,0.0,0.0,0.0,0.0,0.0,0.0,0.0,0.0,0.0,2.7323,2.817,2.9082,2.9812,3.0334,3.0642,3.0933,3.1212,3.0954,3.0987,0.0,0.0,0.0,0.0,0.0,3.6046,3.6384,0.0,0.0,0.0,0.0,0.0,0.0,0.0,0.0,0.0,0.0,0.0,0.0,4.2539,4.7485,5.2976,5.6731,5.937,6.1095,6.1332,5.7881,5.4008,5.2536,4.7631,4.2963,4.1508,4.0608,4.0113,4.0113,4.0269,4.0777,4.1792,4.2354,4.2981,4.3955,4.5911,4.8364,5.142,5.6249,5.9817,6.1102,6.1553,6.1583,6.1106,6.1106,6.081,6.013,6.087,6.0115,5.7493,5.8396,5.9088,5.9456,5.9111,5.907,5.9339,5.8719,5.8169,5.7685,5.7435,5.5619,5.2597,5.2953,5.0875,4.7374,4.8051,4.7904,4.7309,4.7309,4.7309,4.7309,4.7309,4.7309,4.7309,0.0,0.0,0.0,0.0,0.0,0.0,0.0,2.4109,2.5035,2.7187,2.7452,2.8149,2.997,2.9368,2.8701,2.8316,2.7189,0.0,0.0,0.0,0.0,0.0,0.0,0.0,0.0,2.7819,2.8699,2.9907,3.0694,3.1599,3.2691,3.2959,3.3136,3.3125,3.2798,3.2536,0.0,0.0,0.0,0.0,3.5826,3.6083,3.5892,0.0,0.0,0.0,0.0,0.0,0.0,0.0,0.0,0.0,0.0,0.0,0.0,0.0,4.2503,4.6684,5.1572,5.46,5.6528,5.707,5.4194,5.0998,5.027,4.6056,4.2083,4.1339,4.0608,4.0113,4.0113,4.035,4.0709,4.1352,4.2164,4.28,4.3027,4.5492,4.8451,5.1635,5.7247,6.0862,6.0862,6.2054,6.2572,6.1877,6.2419,6.2374,6.1426,6.194,6.1368,5.9462,6.0109,6.0521,6.0619,6.0008,5.9848,6.008,5.9066,5.8137,5.7279,5.7683,5.5956,5.2597,5.3246,5.1379,0.0,4.8136,4.7892,4.7309,4.7309,4.7309,4.7309,4.7309,4.7309,4.7309,0.0,0.0,0.0,0.0,0.0,0.0,0.0,2.3219,2.4079,2.5304,2.5544,2.6581,2.9105,2.8334,2.8111,2.9331,0.0,0.0,0.0,0.0,0.0,0.0,0.0,0.0,2.8473,2.9001,3.0237,3.225,3.2738,3.3908,3.5676,3.5772,3.5568,3.5078,3.4314,3.3917,0.0,0.0,0.0,0.0,3.5605,3.5745,0.0,0.0,0.0,0.0,0.0,0.0,0.0,0.0,0.0,0.0,0.0,0.0,0.0,0.0,0.0,0.0,0.0,5.2029,5.4989,5.6359,5.3619,5.0389,4.9695,4.5751,0.0,4.1339,4.0608,4.0113,4.018,4.0709,4.0933,4.035,4.1982,4.3237,4.2894,4.6081,4.927,5.15,5.5179,5.7536,5.7521,6.1457,6.38,6.3206,6.3784,6.3605,6.2265,6.2666,6.2583,6.1943,6.1877,6.1459,6.0745,6.0307,6.0114,6.008,5.8592,5.7353,5.636,5.7409,5.6008,0.0,5.2852,5.1434,4.8985,4.8025,4.7533,4.7469,4.7331,4.7309,4.7309,4.7309,4.7309,4.7309,0.0,0.0,0.0,0.0,0.0,0.0,0.0,0.0,0.0,0.0,2.4981,2.6056,2.7188,2.7495,2.7709,0.0,0.0,0.0,0.0,0.0,0.0,0.0,0.0,0.0,2.8946,2.9962,3.1195,3.265,3.4207,3.5481,3.6543,3.751,3.7248,3.5973,3.5789,3.4981,0.0,0.0,0.0,0.0,3.5415,3.5598,0.0,0.0,0.0,0.0,3.519,3.5575,0.0,0.0,0.0,0.0,0.0,0.0,0.0,0.0,3.9965,4.0574,4.2692,0.0,4.4674,4.5026,4.4756,4.435,0.0,4.276,4.1407,4.1238,4.0608,4.0269,4.0832,4.0608,4.0675,4.1623,4.2232,4.3034,4.4331,4.9844,5.458,5.6955,5.9877,6.1697,6.1704,6.2664,6.3615,6.4539,6.468,6.4581,6.4253,6.4714,6.4661,6.3941,6.3349,6.271,6.1991,6.0743,6.0114,6.008,5.8592,5.7772,5.7517,5.779,5.6702,5.4689,5.5462,5.424,5.1634,5.0845,5.0037,4.9136,4.7826,4.7309,4.7309,4.7309,4.7309,4.7309,0.0,0.0,0.0,0.0,0.0,0.0,0.0,0.0,0.0,0.0,0.0,2.5538,2.65,2.7195,0.0,0.0,0.0,0.0,0.0,0.0,0.0,0.0,0.0,2.8769,2.9886,3.1351,3.2947,3.4659,3.623,3.7616,3.8789,3.9108,3.8403,3.6787,3.5642,3.4651,0.0,0.0,0.0,3.5694,3.5746,0.0,0.0,0.0,0.0,0.0,3.4529,3.5119,0.0,3.6525,3.6963,3.7516,0.0,0.0,0.0,0.0,3.9829,4.0168,4.0608,4.117,4.1779,4.2104,4.251,4.2726,4.2401,4.1745,4.1102,4.0777,4.0371,4.0202,4.0608,4.0641,4.0878,4.1677,4.3234,4.5206,4.7562,5.0642,5.4283,5.8618,6.0414,6.2257,6.4737,6.5224,6.5536,6.5926,6.6159,6.5978,6.5289,6.5228,6.485,6.414,6.3396,6.2787,6.24,6.0858,6.0114,6.008,5.8592,5.7628,5.7133,5.7646,5.6929,5.5259,5.584,5.4754,5.2453,5.1251,5.0112,4.9051,4.7779,4.7309,4.7309,4.7309,4.7602,4.7988,0.0,0.0,0.0,0.0,0.0,0.0,0.0,0.0,0.0,0.0,0.0,0.0,0.0,0.0,0.0,0.0,0.0,0.0,0.0,0.0,0.0,0.0,2.8952,2.9967,3.1278,3.2695,3.458,3.6922,3.7985,3.935,4.092,4.0341,3.9174,3.7382,3.5025,3.3917,0.0,0.0,3.571,3.517,3.613,0.0,0.0,0.0,0.0,0.0,0.0,0.0,0.0,3.7099,3.7212,3.7032,3.8273,0.0,0.0,0.0,0.0,0.0,4.0045,4.142,4.2828,4.2882,4.2983,4.2882,4.2117,4.1474,4.0832,4.0248,4.0113,4.018,4.0383,4.0946,4.1441,4.1677,4.5101,4.8878,5.2132,5.2008,5.3667,5.9305,6.0215,6.2209,6.6777,6.7622,6.7758,6.7374,6.7579,6.7151,6.5784,6.4986,6.4275,6.3511,6.2787,6.24,6.24,6.0994,6.0216,6.008,5.8727,5.7491,5.6476,5.7446,5.7018,5.5525,0.0,0.0,5.2991,5.1105,4.9725,4.8702,4.7679,4.7387,4.7538,4.7538,4.8177,4.9034,0.0,0.0,0.0,0.0,0.0,0.0,0.0,0.0,0.0,0.0,0.0,0.0,0.0,0.0,0.0,0.0,0.0,0.0,0.0,0.0,0.0,3.1978,3.1108,3.1411,3.3055,3.3208,3.4603,3.7403,3.7573,3.8513,4.0092,4.0663,3.968,3.7419,3.5635,3.4454,3.3844,0.0,3.5287,3.5423,3.5612,0.0,0.0,0.0,0.0,0.0,0.0,0.0,0.0,3.587,3.6332,3.6829,3.7066,0.0,0.0,0.0,0.0,0.0,3.9774,4.2604,4.4451,4.1386,4.1068,4.1339,4.0608,4.035,4.0235,4.0113,4.0113,4.0472,4.1724,4.2063,4.257,4.3856,4.8525,5.3601,5.8346,6.0683,6.23,6.3306,6.4941,6.6338,6.7203,6.7203,6.7635,6.8695,6.7653,6.6609,6.5751,6.4986,6.4275,6.3511,6.2787,6.24,6.24,6.1535,6.0757,6.008,5.9235,5.8417,5.7646,5.7827,5.7741,5.7459,0.0,5.6982,5.5935,5.3259,5.1726,5.0762,4.8283,4.7828,4.8574,4.8574,4.9235,5.0145,0.0,0.0,0.0,0.0,0.0,0.0,0.0,0.0,0.0,0.0,0.0,0.0,0.0,0.0,0.0,0.0,0.0,0.0,0.0,0.0,3.4075,3.5492,3.4182,3.3624,3.3979,3.4575,3.6142,3.8807,3.9239,4.0267,4.1817,4.0891,3.9166,3.6824,3.6046,3.5074,3.4156,3.5399,3.5836,3.5722,0.0,0.0,0.0,0.0,0.0,0.0,0.0,0.0,0.0,0.0,3.6197,3.6163,3.6163,0.0,0.0,0.0,0.0,0.0,3.8734,4.0764,4.2544,4.2016,4.3944,4.5703,4.4553,4.4025,4.3484,4.2719,4.255,4.2604,4.2861,4.4553,4.7462,5.2215,5.4346,5.6552,5.975,6.0055,6.087,6.3407,6.4541,6.6104,6.8617,6.8416,6.8216,6.8427,6.7049,6.5865,6.5155,6.441,6.3666,6.2922,6.2584,6.2212,6.1806,6.1467,6.0892,6.008,5.8964,5.822,5.79,5.79,5.79,5.79,0.0,5.715,5.5755,5.4093,5.2611,5.1259,4.9618,4.9267,4.9734,5.0269,5.0798,5.1285,0.0,0.0,0.0,0.0,0.0,0.0,0.0,0.0,0.0,0.0,0.0,0.0,0.0,0.0,0.0,0.0,0.0,0.0,0.0,0.0,3.5172,3.7433,3.627,3.5463,3.5239,3.5998,3.7411,3.9518,4.012,4.1127,4.2389,4.0451,3.8401,3.6376,3.6278,3.5522,3.4494,3.5918,3.6194,3.5769,0.0,0.0,0.0,0.0,0.0,0.0,0.0,0.0,0.0,0.0,0.0,0.0,0.0,0.0,0.0,3.6644,3.725,3.8083,3.8448,3.9872,4.1622,4.3191,4.5837,4.8139,4.8563,4.7699,4.6766,4.6699,4.653,4.6123,4.5162,4.7767,5.2198,5.8795,5.9644,6.0151,6.212,6.0907,6.1134,6.4745,6.4998,6.6328,6.9847,6.935,6.8571,6.7963,6.6677,6.5628,6.4884,6.4174,6.3429,6.2685,6.2482,6.211,6.1569,6.1197,6.0622,5.9844,5.8693,5.8051,5.79,5.79,5.79,5.79,5.79,5.6988,5.5421,5.4505,5.3182,5.1669,5.0762,5.0531,5.0873,5.1885,5.2277,5.2416,0.0,0.0,0.0,0.0,0.0,0.0,0.0,0.0,0.0,0.0,0.0,0.0,0.0,0.0,0.0,0.0,0.0,0.0,0.0,0.0,3.5679,3.6391,3.5818,3.6181,3.7605,3.6949,3.7201,3.8399,3.8412,3.8733,3.9301,3.87,3.7791,3.6666,3.615,3.5456,3.473,3.5606,3.5671,3.5332,3.6084,0.0,0.0,0.0,0.0,0.0,0.0,0.0,0.0,0.0,0.0,0.0,0.0,0.0,3.8414,3.9125,3.8858,3.8677,4.0017,4.2466,4.4586,4.4237,4.2987,4.3423,4.9578,4.8815,4.7936,5.2029,5.2266,5.1319,4.988,5.1555,5.4448,5.8438,6.2477,6.6141,6.9047,6.9893,7.0344,7.0659,7.0129,6.9847,7.0161,6.8842,6.7963,6.7895,6.7184,6.6406,6.5683,6.4918,6.4174,6.3443,6.2753,6.2347,6.2313,6.0892,5.981,5.9081,5.8979,5.8558,5.79,5.79,5.79,5.79,5.79,5.7439,5.6552,5.4804,5.3616,5.2743,5.1069,5.0968,5.1921,5.2973,5.3382,5.3484,0.0,0.0,0.0,0.0,0.0,0.0,0.0,0.0,0.0,0.0,0.0,0.0,0.0,0.0,0.0,0.0,0.0,0.0,0.0,3.5527,3.6393,3.7273,3.711,3.6986,3.7033,3.6964,3.7844,3.9732,3.9762,3.9599,3.9287,3.8641,3.7577,3.6221,3.6565,3.6082,3.5072,3.5868,3.5914,3.5467,3.5795,3.5766,0.0,0.0,0.0,0.0,0.0,0.0,0.0,0.0,3.6223,3.6437,3.6802,3.76,3.8274,3.7584,3.7858,3.8406,3.8483,4.1456,4.4518,4.4246,4.4471,4.6261,5.2006,5.2807,5.3078,5.5683,5.6731,5.6697,5.5226,5.7171,5.9776,6.211,6.5865,6.9045,7.0669,7.112,7.1289,7.1289,7.1075,7.0534,6.9586,6.8977,6.8267,6.7286,6.6102,6.5324,6.5019,6.3869,6.3091,6.2821,6.257,6.2178,6.1704,6.0655,5.9742,5.8979,5.8524,5.8152,5.79,5.79,5.7663,5.7205,5.7205,5.6528,5.5395,5.4706,5.3976,5.3238,5.2569,5.2824,5.3627,5.4041,5.416,5.4296,0.0,0.0,0.0,0.0,0.0,0.0,0.0,0.0,0.0,0.0,0.0,0.0,0.0,0.0,0.0,0.0,0.0,0.0,3.4389,3.5243,3.6082,3.6876,3.7006,3.7022,3.6821,3.6948,3.7787,3.939,4.0167,3.995,3.8867,3.8447,3.7456,3.6092,3.6501,3.6325,3.5723,3.5789,3.5576,3.5295,3.5708,3.574,0.0,0.0,0.0,0.0,0.0,0.0,0.0,0.0,3.6658,3.6826,3.7129,3.8142,3.903,3.7927,3.8582,3.947,3.8636,4.0861,4.3507,4.3963,4.5622,4.8674,5.4635,5.5834,5.6713,6.0317,6.0757,6.025,5.9438,6.1013,6.2888,6.4377,6.7929,7.0737,7.1244,7.1289,7.1188,7.0973,7.077,7.0128,6.8842,6.8301,6.7692,6.6859,6.5425,6.4715,6.4918,6.3531,6.2753,6.2753,6.2516,6.2042,6.1298,6.0486,5.9742,5.8979,5.8254,5.79,5.79,5.79,5.7611,5.7137,5.69,5.6224,5.5277,5.504,5.4499,5.3856,5.4093,5.4363,5.4651,5.4871,5.4938,5.504,0.0,0.0,0.0,0.0,0.0,0.0,0.0,0.0,0.0,0.0,0.0,0.0,0.0,0.0,0.0,0.0,0.0,0.0,3.3203,3.3939,3.4499,3.4792,3.5114,3.5976,3.7458,3.7024,3.6795,3.6841,3.8996,3.9196,3.7493,3.7763,3.7354,3.6374,3.5832,3.6062,3.6705,3.517,3.4527,3.4626,3.5956,3.6022,0.0,0.0,0.0,0.0,0.0,0.0,0.0,0.0,3.8231,3.8836,3.9651,4.0451,4.1095,4.1058,4.1654,4.2094,4.1287,4.1276,4.1871,4.3512,4.5822,4.9678,5.7281,5.7322,5.8066,6.6237,6.441,6.1569,6.2279,6.2434,6.2922,6.4377,6.8368,7.1289,7.1289,7.1289,7.1041,7.0297,6.9553,6.8774,6.7996,6.6576,6.6,6.6724,6.5425,6.4918,6.5649,6.4309,6.3477,6.3477,6.2787,6.2042,6.1298,6.0486,5.9742,5.8979,5.8254,5.79,5.79,5.79,5.79,5.7866,5.7103,5.6799,5.6731,5.5969,5.5243,5.4668,5.5395,5.5243,5.4719,5.5428,5.5699,5.58,0.0,0.0,0.0,0.0,0.0,0.0,0.0,0.0,0.0,0.0,0.0,0.0,0.0,0.0,0.0,0.0,0.0,0.0,3.2755,3.3459,3.4031,3.4305,3.4945,3.5328,3.5388,3.614,3.7048,3.8069,3.815,3.7876,3.7216,3.692,3.6513,3.6073,3.6314,3.6325,3.6138,3.5314,3.5168,3.5533,3.5917,3.6636,3.7363,0.0,0.0,0.0,0.0,0.0,0.0,0.0,0.0,0.0,3.8615,4.0002,4.0875,3.9745,4.0369,4.1177,3.9782,4.2432,4.5519,4.5458,4.9833,5.5272,5.9624,5.9674,6.0689,6.7387,6.6846,6.5087,6.4783,6.5561,6.6068,6.5459,6.8267,7.0703,7.1244,7.0872,7.0432,7.0251,6.9553,6.8774,6.7996,6.7049,6.6339,6.6034,6.4647,6.3917,6.414,6.326,6.2719,6.2719,6.2516,6.2042,6.1298,6.0486,5.9742,5.8979,5.8254,5.79,5.79,5.79,5.7611,5.7103,5.6359,5.575,5.5175,5.4465,5.4025,5.389,5.4634,5.5108,5.548,5.6206,5.6461,5.6596,0.0,0.0,0.0,0.0,0.0,0.0,0.0,0.0,0.0,0.0,0.0,0.0,0.0,0.0,0.0,0.0,0.0,0.0,0.0,3.266,3.3208,3.3804,3.4294,3.4926,3.5711,3.6665,3.7546,3.831,3.7919,3.7166,3.6169,3.6801,3.6841,3.6444,3.7464,3.7526,3.6779,3.5894,3.5486,3.5491,3.6052,3.6863,3.7667,0.0,0.0,0.0,0.0,0.0,0.0,0.0,0.0,0.0,3.7925,3.9129,4.0076,3.9745,4.0553,4.1654,4.1947,4.4642,4.7754,4.9437,5.3838,5.8771,6.2596,6.3802,6.5222,6.918,6.8504,6.7286,6.7476,6.7692,6.7793,6.7544,6.9248,7.0703,7.0838,7.0466,6.998,6.935,6.8876,6.8199,6.7117,6.6373,6.573,6.529,6.3903,6.3193,6.3477,6.2787,6.24,6.24,6.24,6.1873,6.0825,6.0351,5.9573,5.8558,5.8118,5.79,5.79,5.7595,5.7205,5.6731,5.5716,5.5006,5.4583,5.4126,5.4126,5.4448,5.5175,5.575,5.624,5.6968,5.7239,5.7306,0.0,0.0,0.0,0.0,0.0,0.0,0.0,0.0,0.0,0.0,0.0,0.0,0.0,0.0,0.0,0.0,0.0,0.0,0.0,0.0,3.2311,3.3416,3.3651,3.4942,3.7513,3.7948,3.7994,3.7668,3.7929,3.6923,3.4774,3.7166,3.7903,3.7287,3.8874,3.9067,3.8144,3.6592,3.551,3.494,3.6167,3.6737,3.6886,3.7247,0.0,0.0,0.0,0.0,0.0,0.0,0.0,0.0,3.7492,3.8109,3.9085,4.0479,4.1654,4.3204,4.6269,4.7613,4.9379,5.4606,5.7974,6.1267,6.6119,6.8808,7.0432,7.1007,6.9553,6.8639,7.0026,6.9147,6.8673,7.006,7.0804,7.0973,7.0297,7.0082,6.9451,6.8064,6.7827,6.7252,6.5852,6.5019,6.458,6.4512,6.3193,6.2685,6.3342,6.2753,6.24,6.24,6.2333,6.1569,6.0114,6.0047,5.9302,5.79,5.79,5.7866,5.7798,5.7103,5.6731,5.6528,5.5175,5.4583,5.4499,5.4499,5.4938,5.5665,5.6409,5.6731,5.69,5.7629,5.79,5.79,0.0,0.0,0.0,0.0,0.0,0.0,0.0,0.0,0.0,0.0,0.0,0.0,0.0,0.0,0.0,0.0,0.0,0.0,0.0,0.0,3.248,3.3958,3.5539,3.6677,3.7277,3.7113,3.6712,3.6028,3.6652,3.6231,3.4987,3.6968,3.7741,3.7486,3.8918,3.8849,3.7579,3.6189,3.5363,3.498,3.5287,3.6179,3.7307,3.6758,3.6457,0.0,0.0,0.0,0.0,0.0,0.0,0.0,3.7309,3.8484,3.957,3.9305,4.158,4.4626,4.6562,4.9975,5.3972,5.8012,6.3019,6.7539,6.9833,7.0737,7.077,6.9789,7.0094,7.0647,7.1007,7.0782,7.0703,7.1007,7.0703,7.0364,7.0217,6.9147,6.8267,6.7929,6.7387,6.6677,6.5784,6.5019,6.4377,6.3781,6.2888,6.2468,6.2618,6.2502,6.24,6.24,6.1839,6.1061,6.0114,5.9539,5.8795,5.79,5.79,5.7595,5.7036,5.6867,5.6156,5.504,5.4753,5.4262,5.3754,5.3754,5.416,5.4905,5.5631,5.6274,5.69,5.7629,5.79,5.79,0.0,0.0,0.0,0.0,0.0,0.0,0.0,0.0,0.0,0.0,0.0,0.0,0.0,0.0,0.0,0.0,0.0,0.0,0.0,0.0,3.3081,3.5261,3.7271,3.8798,3.977,3.909,3.8314,3.7449,3.7031,3.6203,3.5071,3.7218,3.8161,3.8123,3.963,3.9246,3.7441,3.6337,3.5549,3.5034,3.5445,3.6156,3.6934,3.6898,3.6384,3.5745,3.6156,0.0,0.0,0.0,0.0,0.0,0.0,0.0,3.8403,3.9525,4.1617,4.4516,4.8847,5.2733,5.7054,6.3049,6.7088,6.9925,7.1019,7.1289,7.1086,7.0308,7.0748,7.1289,7.1289,7.1007,7.077,7.077,7.0161,6.9519,6.9147,6.8402,6.776,6.7421,6.7028,6.6373,6.529,6.4816,6.414,6.3057,6.2618,6.24,6.24,6.24,6.2265,6.1873,6.1501,6.0757,5.9573,5.9182,5.8626,5.79,5.79,5.7509,5.6799,5.6055,5.5141,5.4059,5.4059,5.3856,5.3518,5.389,5.4465,5.5209,5.5936,5.6697,5.7374,5.7764,5.79,5.79,0.0,0.0,0.0,0.0,0.0,0.0,0.0,0.0,0.0,0.0,0.0,0.0,0.0,0.0,0.0,0.0,0.0,0.0,0.0,0.0,0.0,3.6784,3.8781,4.0599,4.2268,4.1262,4.0175,3.9171,3.7629,3.6429,3.5645,3.7639,3.8595,3.8755,4.0076,3.957,3.7639,3.6714,3.5899,3.5298,3.6009,3.631,3.6384,3.7044,3.6413,3.5334,3.6046,3.5855,3.5261,3.5371,0.0,0.0,0.0,0.0,3.7221,3.9892,4.1654,4.4085,5.0425,5.4776,5.9434,6.7337,6.9765,7.0398,7.1142,7.1289,7.1289,7.1289,7.1188,7.1109,7.1109,7.05,7.0026,7.0184,6.9451,6.8707,6.8166,6.7895,6.7489,6.6859,6.6791,6.6216,6.4749,6.4613,6.4005,6.2516,6.24,6.24,6.24,6.2299,6.1907,6.1332,6.1028,6.0283,5.9013,5.8743,5.8389,5.79,5.7764,5.7239,5.6393,5.5141,5.4329,5.389,5.3754,5.3687,5.3754,5.4329,5.504,5.5767,5.6375,5.7137,5.79,5.79,5.7832,5.7712,0.0,0.0,0.0,0.0,0.0,0.0,0.0,0.0,0.0,0.0,3.2083,0.0,0.0,0.0,0.0,0.0,0.0,0.0,3.2816,0.0,0.0,3.8099,3.9813,4.0834,4.1103,4.0289,3.9054,3.744,3.6507,3.6696,3.7931,3.7977,3.8247,3.8726,3.8901,3.8828,3.8432,3.6927,3.6229,3.6156,3.6266,3.631,3.631,3.642,3.6303,3.6156,3.6266,3.6229,3.6229,3.6934,3.7162,0.0,0.0,0.0,3.8469,3.8901,4.1544,4.4883,4.7259,5.4081,6.179,6.7143,6.933,7.0398,7.1142,7.1289,7.1289,7.1289,7.0804,7.0353,7.0353,6.9722,6.9451,7.0116,6.8977,6.8267,6.8876,6.7793,6.6893,6.6791,6.6791,6.6216,6.4749,6.4613,6.4005,6.2516,6.24,6.24,6.24,6.1772,6.14,6.1298,5.9994,5.9216,5.9013,5.7746,5.7374,5.79,5.7239,5.6224,5.4888,5.4685,5.4905,5.5361,5.4735,5.4431,5.4482,5.4583,5.504,5.5699,5.58,5.6697,5.79,5.79,5.7476,5.7036,0.0,0.0,0.0,0.0,0.0,0.0,0.0,0.0,0.0,0.0,0.0,3.2264,0.0,0.0,0.0,3.311,3.332,3.3597,3.3883,3.5753,3.7397,3.8639,4.0235,4.1443,4.213,4.084,3.9537,3.8348,3.7007,3.7622,4.0039,3.9862,3.9977,4.0304,3.9859,3.9283,3.8571,3.6964,3.631,3.6347,3.6787,3.7522,3.8256,3.7808,3.7918,3.8182,0.0,0.0,3.642,3.7235,3.7199,3.6898,3.7345,0.0,0.0,0.0,4.0122,4.3558,4.9697,5.5291,6.0785,6.6774,6.8576,6.9113,6.9891,7.0737,7.1188,7.077,7.0432,7.0217,7.0217,6.9586,6.9045,6.8944,6.7996,6.7421,6.776,6.7231,6.6791,6.6791,6.6791,6.6216,6.4749,6.4613,6.4005,6.2516,6.2009,6.1772,6.1772,6.1061,6.0452,6.0028,5.9351,5.8607,5.778,5.7137,5.6968,5.7273,5.7374,5.707,5.6427,5.6021,5.5344,5.4448,5.4566,5.4617,5.4668,5.548,5.5784,5.5767,5.663,5.707,5.734,5.7764,5.7679,5.7442,0.0,0.0,0.0,0.0,0.0,0.0,0.0,0.0,0.0,0.0,0.0,0.0,0.0,0.0,0.0,0.0,3.4025,3.436,3.4793,3.6164,3.7595,3.8941,4.0347,4.1611,4.2735,4.1281,4.0015,3.8973,3.7892,3.8884,4.1758,4.2178,4.2834,4.3547,4.1794,4.0687,3.9916,3.7779,3.7257,3.7881,3.8476,3.9431,4.0459,4.0084,4.0304,0.0,0.0,3.7705,3.7265,3.7669,3.7412,3.7,3.7632,3.7711,0.0,0.0,0.0,4.1359,4.9776,5.3521,5.6761,6.3807,6.6035,6.6948,6.8707,7.0094,7.0872,7.0297,7.0217,7.0082,6.971,6.9147,6.8673,6.8267,6.7421,6.6859,6.7028,6.6779,6.6542,6.6542,6.6373,6.573,6.4444,6.4343,6.3802,6.2502,6.1704,6.1298,6.1298,6.0351,5.9573,5.9013,5.8829,5.8118,5.6799,5.663,5.6528,5.6528,5.7273,5.7509,5.7306,5.6765,5.5513,5.3822,5.4769,5.5141,5.5243,5.6359,5.6494,5.6071,5.6968,5.7239,5.7137,5.7494,5.7611,5.7663,0.0,0.0,0.0,0.0,0.0,0.0,0.0,0.0,0.0,0.0,0.0,0.0,3.3675,3.373,3.3883,3.4146,3.4188,3.4449,3.5034,3.6101,3.7482,3.9189,4.0077,0.0,4.185,4.0973,3.9704,3.8084,3.8819,4.0465,4.303,4.4611,4.6691,4.8894,4.465,4.314,4.349,4.0042,3.99,4.1992,4.2029,4.2103,4.2249,4.2992,4.3286,4.2992,4.0642,3.9761,3.9614,3.8872,3.8615,3.8571,3.8608,3.8304,3.7883,0.0,0.0,0.0,4.3492,4.5895,4.8853,5.6521,6.0577,6.3802,6.8132,6.9688,7.0251,7.0217,7.0217,6.9755,6.8301,6.7996,6.8199,6.891,6.7793,6.7028,6.776,6.6643,6.5784,6.5784,6.5121,6.441,6.3612,6.3545,6.326,6.2448,6.1704,6.1298,6.1298,5.9859,5.9047,5.9013,5.8321,5.7577,5.6799,5.6105,5.5767,5.5767,5.6494,5.6494,5.58,5.5767,5.531,5.46,5.6055,5.6697,5.6697,5.6765,5.6799,5.6697,5.6071,5.6664,5.7746,5.7103,5.6867,5.6968,0.0,0.0,0.0,0.0,0.0,0.0,0.0,0.0,0.0,0.0,0.0,0.0,0.0,3.3323,3.3444,3.4443,3.5301,3.5662,3.5388,3.6737,3.7546,3.7623,3.843,3.9319,4.0162,3.8777,3.8209,3.8516,3.7936,3.9668,4.3613,4.4409,4.6309,4.8916,4.6086,4.4692,4.4271,4.1434,4.0736,4.158,4.2103,4.3534,4.514,4.2828,4.4232,4.6893,4.2882,4.178,4.2258,4.247,4.1507,4.0174,0.0,3.9233,3.8447,3.7286,3.7286,3.8437,4.2044,4.4115,4.6689,5.284,5.6952,6.0201,6.2753,6.6102,6.8571,6.8132,6.8808,6.9316,6.8774,6.8233,6.7827,6.7658,6.7163,6.6893,6.7151,6.6339,6.5717,6.5717,6.5053,6.4309,6.3579,6.3091,6.2482,6.1738,6.052,5.9825,5.9825,5.8863,5.8287,5.8287,5.8017,5.7306,5.6105,5.5834,5.5462,5.5006,5.575,5.5969,5.5699,5.5699,5.5564,5.5378,5.6359,5.6528,5.6139,5.6596,5.6799,5.6833,5.7036,5.7137,5.7205,5.7408,5.7509,5.7543,0.0,0.0,0.0,0.0,0.0,0.0,0.0,0.0,0.0,0.0,0.0,0.0,0.0,0.0,3.3132,3.416,3.5512,3.6077,3.5538,3.6542,3.7004,3.6696,3.7546,3.8251,3.8726,3.7862,3.7666,3.8226,3.7854,3.9729,4.3721,4.4208,4.6025,4.8771,4.6372,4.547,4.5545,4.3006,4.2057,4.2388,4.3489,4.536,4.7296,4.5471,4.6948,4.949,4.5663,4.4305,4.4387,4.4929,4.3705,4.1866,0.0,3.9552,3.7915,3.6544,3.6797,3.7956,3.9931,4.1555,4.4025,4.9541,5.2739,5.5581,5.9607,6.3193,6.5831,6.6339,6.7455,6.8335,6.8335,6.7895,6.7455,6.7218,6.696,6.6791,6.6791,6.5967,6.5324,6.5324,6.4444,6.3666,6.3193,6.2685,6.2076,6.1366,6.0351,5.9554,5.9013,5.8524,5.8051,5.7543,5.7273,5.6697,5.5699,5.5192,5.4972,5.4972,5.5209,5.5462,5.5699,5.5699,5.5699,5.5699,5.5953,5.6055,5.6139,5.6867,5.7171,5.7171,5.7442,5.7374,5.7205,5.7442,5.7697,5.79,0.0,0.0,0.0,0.0,0.0,0.0,0.0,0.0,0.0,3.5553,0.0,0.0,0.0,0.0,0.0,3.3535,3.4832,3.5612,3.557,3.5567,3.5913,3.6674,3.7524,3.7866,3.7625,3.8351,3.8221,3.716,3.875,4.0794,4.3215,4.4153,4.6111,4.8692,4.5476,4.5385,4.7417,4.4643,4.3938,4.4847,4.6452,4.7599,4.8627,5.1022,5.1536,5.0765,4.903,4.7462,4.6177,4.6122,4.5154,4.3654,0.0,0.0,0.0,0.0,3.6197,3.6829,0.0,0.0,0.0,4.6196,4.7718,5.0085,5.8863,6.096,6.1873,6.4884,6.6102,6.6622,6.6757,6.6791,6.7028,6.776,6.7286,6.6791,6.6757,6.5527,6.458,6.458,6.326,6.24,6.24,6.24,6.2042,6.1332,6.1231,6.0588,5.9047,5.8979,5.8303,5.6867,5.6105,5.5699,5.5665,5.4262,5.4245,5.5631,5.4905,5.4938,5.5631,5.5665,5.5665,5.5631,5.4938,5.548,5.6867,5.7543,5.7866,5.7832,5.7103,5.7273,5.7832,5.7103,5.7273,5.79,0.0,0.0,0.0,0.0,0.0,0.0,3.7897,3.7685,3.7373,0.0,0.0,0.0,3.5125,3.5834,3.6592,3.7319,3.7915,3.7867,3.7003,3.6956,3.695,3.6975,3.7235,3.7589,3.8099,3.7191,3.7316,3.8552,3.8044,3.8947,4.1217,4.1713,4.2872,4.4483,4.3558,4.3711,4.4569,4.3227,4.3424,4.4847,4.6452,4.8296,5.0105,5.0225,5.227,5.4866,5.2627,5.2307,5.2721,5.1562,4.9433,4.6464,0.0,0.0,0.0,0.0,0.0,0.0,3.6919,0.0,0.0,0.0,0.0,0.0,4.9999,5.2875,5.5953,6.0013,6.1434,6.2787,6.5493,6.644,6.6859,6.7062,6.6927,6.6609,6.6068,6.5189,6.441,6.3849,6.2956,6.24,6.24,6.1907,6.1264,6.0486,5.9945,5.9235,5.8254,5.8186,5.778,5.6833,5.6596,5.5987,5.4905,5.4499,5.4228,5.4126,5.389,5.3923,5.4126,5.4668,5.4905,5.4938,5.5818,5.6427,5.6765,5.6443,5.6934,5.79,5.7697,5.773,5.79,5.7679,5.773,5.79,0.0,0.0,0.0,0.0,0.0,3.9771,3.9484,3.9261,3.8952,0.0,0.0,0.0,3.6644,3.7532,3.8344,3.8849,3.901,3.8665,3.7612,3.7409,3.7108,3.6637,3.7229,3.7625,3.7626,3.7364,3.7443,3.7933,3.7831,3.8427,3.9696,4.0218,4.1234,4.2571,4.2238,4.2614,4.3433,4.2653,4.3232,4.492,4.7599,4.9911,5.193,5.3151,5.5133,5.7152,5.6077,5.6297,5.6866,5.5244,5.1848,4.7439,0.0,0.0,0.0,0.0,0.0,0.0,0.0,0.0,3.9288,4.0527,0.0,0.0,4.7327,4.9593,5.23,5.7103,5.866,6.0148,6.3294,6.4208,6.4715,6.5303,6.5405,6.5493,6.5683,6.4783,6.4005,6.3545,6.2854,6.24,6.24,6.1738,6.096,6.0148,5.9708,5.9133,5.8389,5.8051,5.7408,5.6375,5.6341,5.5649,5.416,5.4126,5.3923,5.3518,5.3518,5.3653,5.3991,5.4735,5.5243,5.5547,5.6427,5.6968,5.7205,5.6443,5.6867,5.79,5.79,5.79,5.79,5.79,5.79,5.79,0.0,0.0,3.9709,3.9104,4.0236,4.1258,4.1282,4.086,4.0583,0.0,3.9542,3.8685,3.8644,3.9101,3.947,3.9589,3.9233,3.8718,3.7957,3.7527,3.7006,3.6248,3.7746,3.8065,3.6947,3.8306,3.8243,3.656,3.7918,3.8615,3.8718,3.9541,4.0671,4.1992,4.1397,4.1947,4.3322,4.269,4.3461,4.5434,4.9251,5.1856,5.3911,5.7838,5.9013,5.8621,5.9343,5.9673,5.9444,5.758,5.3095,4.7769,4.4626,0.0,0.0,0.0,3.9186,0.0,0.0,0.0,0.0,4.2408,4.161,0.0,4.7646,4.8612,4.9695,5.4769,5.6393,5.7645,6.0114,6.0689,6.1197,6.2429,6.2902,6.3666,6.5222,6.4343,6.3477,6.3376,6.2787,6.24,6.24,6.1738,6.096,6.0148,5.9945,5.9573,5.8912,5.8254,5.7273,5.5868,5.5834,5.5158,5.3754,5.3754,5.3754,5.3754,5.3754,5.4093,5.4735,5.5395,5.6105,5.6799,5.6799,5.7205,5.7866,5.7171,5.7306,5.79,5.79,5.79,5.79,5.79,5.79,5.79,0.0,4.1027,4.1814,4.1937,4.2774,4.3483,4.3759,4.3623,4.3717,4.4452,4.368,4.3573,4.4922,4.3732,4.3138,4.3835,4.177,4.0244,3.9794,3.9122,3.8546,3.8168,3.9704,3.9858,3.8346,3.8619,3.8581,3.8248,3.7889,3.8072,3.8718,3.9541,4.0055,4.0377,4.0883,4.1617,4.258,4.3065,4.4929,4.7783,4.9958,5.2527,5.5511,5.8877,6.0848,6.1875,6.2022,6.2536,6.2605,5.9097,5.5044,5.0712,4.6559,0.0,0.0,4.0481,0.0,0.0,0.0,0.0,0.0,0.0,4.0853,0.0,4.1894,4.2875,4.4756,4.88,5.022,5.1792,5.5294,5.6867,5.7577,5.7255,5.9216,6.1501,6.3612,6.368,6.3274,6.2685,6.2482,6.24,6.24,6.1738,6.096,6.0148,5.8998,5.8272,5.8118,5.8001,5.7476,5.663,5.6596,5.6139,5.5293,5.5259,5.5259,5.5259,5.5259,5.5361,5.5496,5.5631,5.6105,5.6799,5.6799,5.7205,5.79,5.7746,5.7764,5.79,5.79,5.79,5.79,5.79,5.79,5.79,4.1974,4.2437,4.3119,4.4195,4.4685,4.5226,4.6238,4.5924,4.574,4.6201,4.5855,4.569,4.5989,4.543,4.4978,4.4866,4.2994,4.139,4.0405,4.017,3.9674,3.8726,3.9863,4.0296,3.9892,3.9122,3.8681,3.8681,3.7889,3.7485,3.7514,3.8726,3.91,3.8778,4.0818,4.169,4.1764,4.2992,4.5369,4.8553,5.1426,5.4289,5.72,6.086,6.2475,6.2866,6.3282,6.3159,6.2278,5.8824,5.5548,5.2266,4.8511,4.709,4.6278,0.0,4.3673,4.4228,0.0,0.0,0.0,4.1766,0.0,0.0,0.0,4.2333,4.3281,4.665,4.7056,4.7699,5.071,5.186,5.2739,5.3856,5.5919,5.7881,5.9385,6.1211,6.2279,6.1907,6.1501,6.1231,6.1231,6.0588,5.9844,5.9066,5.8321,5.79,5.79,5.79,5.7374,5.6274,5.663,5.6258,5.5175,5.553,5.5699,5.5699,5.5699,5.5902,5.624,5.624,5.6664,5.734,5.734,5.7561,5.79,5.79,5.79,5.79,5.79,5.79,5.79,5.79,5.79,5.7967,4.3575,4.3673,4.4166,4.5687,4.6147,4.6745,4.8104,4.7776,4.7428,4.762,4.7774,4.7621,4.6991,4.7202,4.7321,4.7223,4.514,4.3444,4.2478,4.1894,4.0773,3.9019,3.9717,4.0304,4.0626,3.9525,3.8872,3.8681,3.7889,3.7235,3.678,3.8248,3.8652,3.8329,4.1405,4.2388,4.1902,4.3497,4.6067,4.9334,5.3115,5.5978,5.8437,6.2365,6.3429,6.289,6.3619,6.2845,6.1106,5.8403,5.5798,5.3213,5.0338,4.9424,0.0,0.0,0.0,0.0,0.0,0.0,0.0,0.0,0.0,4.2388,0.0,0.0,0.0,4.5466,4.4973,4.4702,4.65,4.694,4.7785,5.0083,5.2181,5.3687,5.4143,5.7306,5.9776,6.0351,5.9979,5.9742,5.9877,5.8945,5.8254,5.7915,5.7527,5.746,5.79,5.7764,5.7137,5.5936,5.6494,5.6156,5.4803,5.5683,5.6037,5.5902,5.6037,5.6341,5.6799,5.6799,5.7137,5.7697,5.7697,5.7764,5.79,5.79,5.79,5.79,5.79,5.79,5.79,5.79,5.79,5.8035,4.5047,4.5437,4.5554,4.5809,4.7023,4.8083,4.828,4.8767,4.9394,5.0168,5.0894,5.188,5.3282,5.2208,5.2741,5.6267,5.1127,4.8235,4.9512,4.5626,4.2184,3.9871,4.0516,4.0333,3.9011,3.9496,3.9423,3.8681,3.7889,3.7815,3.8469,3.935,4.0084,4.081,4.3305,4.437,4.4406,4.6012,4.859,5.1803,5.441,5.6466,5.8364,6.1692,6.2903,6.2827,6.2903,6.2325,6.1231,0.0,5.6968,5.4059,0.0,5.0964,5.0389,4.753,0.0,0.0,0.0,0.0,0.0,0.0,4.4302,0.0,4.2151,0.0,4.3186,4.2875,0.0,4.2638,4.2895,0.0,0.0,4.3504,4.6921,4.9458,4.8868,5.1404,5.4296,5.7002,5.7814,5.8389,5.9047,5.7288,5.6578,5.7832,5.6072,5.5835,5.7798,5.7273,5.6867,5.6697,5.6765,5.6427,5.5564,5.6934,5.7306,5.6697,5.734,5.734,5.6799,5.6799,5.6833,5.6934,5.6934,5.7306,5.79,5.79,5.79,5.79,5.79,5.79,5.79,5.79,5.79,5.8035,4.5256,4.5768,4.597,4.6532,4.7116,4.7893,4.8907,5.0508,5.1741,5.2087,5.2895,5.3606,5.4114,5.3092,5.3474,5.6121,5.2967,5.0435,4.9427,4.7425,4.4782,4.1442,4.1625,4.1479,4.0818,4.0194,3.9724,3.9386,3.8109,3.7676,3.8036,3.8843,3.9386,3.9856,4.3195,4.4957,4.5516,4.7122,4.9407,5.2171,5.4116,5.5868,5.7776,6.1961,6.326,6.2685,6.1759,6.1144,6.0362,0.0,5.5673,0.0,0.0,0.0,5.1032,5.0236,0.0,0.0,0.0,0.0,0.0,0.0,0.0,0.0,4.3856,0.0,4.2794,0.0,0.0,0.0,0.0,0.0,0.0,0.0,4.592,4.7462,4.6737,4.8428,5.0829,5.3822,5.4093,5.4499,5.5683,5.4955,5.4871,5.5903,5.4735,5.4735,5.6528,5.6325,5.6139,5.6139,5.6596,5.6258,5.5074,5.6934,5.7509,5.6799,5.7543,5.773,5.7442,5.7442,5.7442,5.7442,5.7442,5.7629,5.79,5.79,5.79,5.7934,5.8355,5.8287,5.7967,5.8389,5.8558,5.8727,4.5332,4.555,4.5676,4.6618,4.6875,4.755,4.9297,5.1046,5.2395,5.3121,5.3972,5.4754,5.5369,5.5651,5.6782,5.9314,5.7967,5.5706,5.2745,5.0868,4.8126,4.413,4.2681,4.2176,4.2616,4.0826,3.9798,3.9578,3.819,3.7713,3.8153,3.8542,3.9048,3.9827,4.3415,4.5736,4.7021,4.9077,5.1389,5.3786,5.539,5.6737,5.8217,6.1961,6.3003,6.2299,6.0899,6.0234,5.9495,5.6285,5.4938,0.0,5.4617,5.345,5.2182,5.2536,5.2164,5.1082,4.868,0.0,0.0,0.0,0.0,0.0,0.0,0.0,0.0,0.0,0.0,0.0,0.0,0.0,4.3518,4.4432,0.0,4.6143,4.5181,4.5993,4.7684,5.0473,5.1032,5.1708,5.3044,5.2638,5.2841,5.4194,5.3044,5.3179,5.531,5.5192,5.5293,5.5699,5.6021,5.5683,5.46,5.6393,5.7036,5.6528,5.7239,5.7577,5.7629,5.7832,5.7798,5.7629,5.7832,5.79,5.79,5.79,5.79,5.7949,5.8709,5.8693,5.8287,5.9032,5.9284,5.9487,4.5411,4.4949,4.4603,4.5496,4.6334,4.748,4.9139,4.9476,5.0394,5.289,5.3972,5.5742,5.8962,6.1864,6.5511,7.0372,6.8942,6.6511,6.3509,5.7398,5.2165,4.8261,4.3636,4.1874,4.3433,4.112,3.9541,3.8726,3.7925,3.83,3.9798,3.9056,3.9937,4.2286,4.4745,4.7168,4.9591,5.2821,5.5611,5.796,5.9575,6.0236,6.0382,6.13,6.1654,6.1542,6.0685,0.0,0.0,5.7254,5.5784,0.0,0.0,0.0,0.0,0.0,0.0,0.0,0.0,0.0,0.0,4.6602,0.0,0.0,0.0,0.0,4.5399,0.0,0.0,0.0,0.0,0.0,0.0,0.0,4.5244,0.0,0.0,4.3511,4.4404,4.6684,4.9492,5.1505,5.2266,5.0405,5.0371,5.3315,5.0811,5.0744,5.4448,5.3957,5.4211,5.5665,5.504,5.4651,5.4617,5.5378,5.5767,5.5733,5.6477,5.6833,5.6867,5.7577,5.7509,5.6867,5.7577,5.79,5.79,5.79,5.79,5.7949,5.8709,5.8979,5.9047,5.981,6.0047,6.0182,4.5436,4.5359,4.5244,4.5556,4.5821,4.6975,4.9822,5.1202,5.4049,5.9973,6.1012,6.3551,6.9744,7.034,7.1452,7.444,7.255,6.9105,6.4123,6.0185,5.6598,5.3267,4.8453,4.6397,4.7508,4.4599,4.2168,4.0296,4.0002,4.0149,4.07,4.0965,4.1809,4.3212,4.5617,4.8663,5.2076,5.4252,5.6602,5.8794,5.8858,6.0399,6.259,6.1299,6.0142,5.9327,6.0119,5.9511,0.0,5.7704,5.6867,5.6224,5.7205,5.6528,5.548,5.619,5.6427,0.0,0.0,0.0,5.7374,5.2164,0.0,0.0,0.0,0.0,0.0,0.0,0.0,0.0,0.0,0.0,0.0,0.0,0.0,4.4993,0.0,4.2239,4.2577,4.4336,4.6331,4.765,4.7902,4.7699,4.8173,4.9679,4.8834,4.9476,5.2182,5.257,5.3179,5.4211,5.4465,5.4617,5.4617,5.5818,5.6427,5.6427,5.6697,5.707,5.7509,5.7273,5.7306,5.7543,5.7798,5.79,5.79,5.79,5.79,5.8035,5.9235,5.9742,5.981,6.0622,6.0892,6.0994,4.6013,4.5821,4.5706,4.6013,4.6283,4.736,4.9861,5.2708,5.6857,6.3314,6.5705,6.9167,7.5322,7.6399,7.7032,7.8007,7.7424,7.3747,6.5956,6.472,6.2245,5.7503,5.4289,5.2858,5.3419,4.9691,4.6388,4.3672,4.2498,4.2094,4.2388,4.2021,4.2616,4.4011,4.5838,4.9104,5.3361,5.5831,5.8437,6.0799,5.9175,5.9686,6.1236,5.9703,5.8994,5.8932,0.0,5.9217,5.8287,5.8287,5.8152,5.8152,5.9081,5.8404,5.7457,5.8389,5.8727,5.8626,5.7814,5.9742,0.0,5.5919,5.5395,0.0,4.956,0.0,4.9442,0.0,0.0,0.0,0.0,0.0,0.0,0.0,0.0,0.0,0.0,4.1745,4.1948,4.2895,4.4384,4.5635,4.6399,4.594,4.5906,4.6684,4.6718,4.7447,4.9138,5.093,5.2536,5.3856,5.4093,5.4566,5.5378,5.5784,5.6292,5.6799,5.6799,5.7171,5.79,5.7408,5.7442,5.79,5.79,5.79,5.79,5.79,5.79,5.8069,5.9505,6.0114,6.0216,6.1298,6.167,6.1772,4.7081,4.6317,4.6052,4.6889,4.7582,4.8394,4.9433,5.3823,5.8671,6.3275,6.8237,7.2745,7.6438,8.0362,8.2401,8.1554,8.3607,8.0422,6.9654,7.0969,6.8865,6.1434,6.086,6.075,6.0823,5.593,5.182,4.8663,4.5268,4.4011,4.4773,4.2351,4.2424,4.4663,4.5553,4.8636,5.3398,5.7398,6.0982,6.3707,6.0603,5.849,5.7161,5.7004,5.8375,6.0323,5.9473,5.9183,5.9161,5.9127,5.9617,6.0224,6.0224,6.022,6.0216,6.025,6.1332,6.2042,5.9911,6.0452,6.0858,5.7881,0.0,0.0,0.0,0.0,5.2875,0.0,0.0,0.0,0.0,0.0,0.0,0.0,0.0,0.0,4.161,4.1779,4.2232,4.23,4.3518,4.521,4.7346,4.4978,4.3626,4.4432,4.4499,4.4871,4.5771,4.9172,5.2114,5.4397,5.389,5.46,5.6799,5.5412,5.5412,5.6867,5.6833,5.7171,5.79,5.7866,5.7866,5.79,5.79,5.79,5.79,5.7934,5.7967,5.8103,5.9573,6.0182,6.0385,6.1859,6.2434,6.2468,4.7197,4.7702,4.8514,4.8702,4.7889,4.8351,5.1702,5.4928,6.0544,7.0468,7.5123,8.0246,8.7478,8.8632,8.8325,8.6871,8.6259,8.325,7.6917,7.5483,7.3775,7.1276,6.7173,6.5485,6.6696,5.96,5.517,5.3749,4.8049,4.57,4.6415,4.4011,4.3212,4.391,4.5911,4.8847,5.2527,5.5967,5.9298,6.22,6.0766,6.0633,6.1111,0.0,6.0077,6.1917,6.0563,6.0803,6.1726,6.1132,6.1396,6.1959,6.1959,6.1891,6.1907,6.2482,6.3294,6.4038,6.3971,6.4681,6.4816,6.2361,6.096,5.9302,0.0,0.0,0.0,0.0,0.0,0.0,0.0,0.0,0.0,4.6293,0.0,0.0,4.1305,4.0878,4.1081,4.2164,4.1677,4.1698,4.2814,4.2205,4.2083,4.2841,4.2875,4.4181,4.7177,4.8732,5.0608,5.2807,5.3822,5.5108,5.6799,5.6427,5.6697,5.7629,5.707,5.7171,5.79,5.734,5.7374,5.79,5.79,5.79,5.7934,5.849,5.8727,5.8863,6.0419,6.1332,6.1859,6.2245,6.2753,6.3226,4.824,4.9663,5.1048,5.1048,5.2125,5.3895,5.6665,5.7973,6.2397,7.2815,7.7777,8.2477,8.8017,9.0559,9.1155,8.9468,8.7878,8.4644,7.9202,7.8998,7.7859,7.5021,7.2899,7.1872,7.2055,6.5521,6.0823,5.8228,5.173,4.8233,4.7562,4.4782,4.369,4.4113,4.5869,4.8285,5.1314,5.6331,5.97,6.1702,6.1584,6.1867,0.0,6.0859,6.1557,6.3068,6.1848,6.1732,6.2162,6.2056,6.2231,6.251,6.251,6.2457,6.2516,6.3274,6.4038,6.4749,6.5514,6.6237,6.6419,6.485,6.3835,6.2347,5.8998,5.8558,5.8355,0.0,0.0,0.0,0.0,0.0,0.0,4.4857,0.0,0.0,0.0,4.1115,4.1251,4.1745,4.1664,4.1326,4.0764,3.9851,3.958,4.0324,4.0967,4.1982,4.3457,4.7327,5.0033,5.1285,5.345,5.5446,5.7273,5.6968,5.7171,5.79,5.7476,5.7476,5.79,5.7476,5.7509,5.7934,5.8254,5.8389,5.8457,5.9201,5.9471,5.9607,6.0825,6.1941,6.2888,6.2888,6.3159,6.3545,4.9894,5.1779,5.3505,5.3395,5.7857,6.1979,6.3518,6.3403,6.6013,7.4084,7.94,8.3069,8.478,8.9493,9.1898,9.0273,8.8709,8.5451,7.982,8.1926,8.1193,7.6218,7.7781,7.8075,7.6607,7.1541,6.6623,6.1936,5.5254,5.0618,4.7929,4.4791,4.3718,4.4416,4.549,4.7537,5.0621,5.7291,6.0632,6.1457,6.2471,6.2544,6.2002,6.1986,6.2844,6.3937,6.3135,6.2441,6.1971,6.2561,6.2676,6.2562,6.2562,6.2498,6.2516,6.3274,6.4038,6.4749,6.5514,6.617,6.6508,6.5886,6.5649,6.4681,6.1298,6.0554,5.9979,5.7949,5.7543,5.7374,0.0,0.0,0.0,4.4606,0.0,0.0,0.0,4.2557,4.2638,4.188,4.2848,0.0,4.0472,3.851,3.7596,3.8147,3.9297,3.9669,3.8959,4.5669,4.9846,5.0507,5.3196,5.5666,5.79,5.7273,5.7273,5.79,5.8001,5.7983,5.79,5.8103,5.8137,5.8084,5.8829,5.9148,5.9182,5.9945,6.0385,6.0622,6.1332,6.2429,6.3646,6.3748,6.3781,6.3883,5.1505,5.351,5.5049,5.4395,6.0204,6.6705,7.1745,7.413,7.7445,8.317,8.7132,9.0126,9.1892,9.1811,9.1259,9.0348,8.8898,8.7287,8.5506,8.4727,8.3619,8.2003,8.0424,7.9449,7.9155,7.2422,6.7173,6.3662,5.5842,5.0041,4.625,4.3718,4.258,4.2774,4.4442,4.8009,5.2954,5.6232,5.8454,5.9912,6.1969,6.3161,6.3682,6.3559,6.409,6.4771,6.3914,6.3948,6.4307,6.378,6.352,6.348,6.348,6.2973,6.2516,6.3274,6.4038,6.4749,6.5514,6.5764,6.5886,6.5751,6.5222,6.4478,6.3173,6.2902,6.2598,6.1603,6.14,6.0452,5.7374,0.0,0.0,0.0,0.0,0.0,0.0,4.6312,4.5737,4.4993,4.4587,4.3518,4.1238,4.0663,4.0223,3.977,3.9398,4.0696,4.4147,0.0,4.8443,0.0,5.3991,0.0,0.0,0.0,5.7764,5.79,5.8524,5.849,5.7934,5.9167,5.937,5.8844,5.9607,5.9911,5.9979,6.0757,6.1806,6.2902,6.3037,6.3646,6.4478,6.5087,6.529,6.5324,5.5121,5.6203,5.7742,6.0012,6.5974,7.2629,7.9008,8.329,8.5609,8.4987,8.6681,8.8002,8.808,8.9792,9.0621,8.9831,8.84,8.7373,8.6983,8.5467,8.4425,8.4058,8.1305,7.9816,7.9816,7.4258,6.8752,6.3429,0.0,5.1536,4.5847,4.3873,4.291,4.3003,4.5194,4.8868,5.3537,5.6415,5.923,6.1932,6.438,6.6069,6.7117,6.6184,6.5987,6.6021,6.4351,6.4181,6.4689,6.3974,6.3425,6.3011,6.3011,6.2755,6.2516,6.3274,6.3748,6.4208,6.4918,6.5121,6.5019,6.4647,6.4309,6.3835,6.3091,6.2922,6.2821,6.2448,6.24,6.1366,5.7983,5.345,0.0,0.0,0.0,0.0,0.0,0.0,4.8105,4.6974,4.5838,4.4282,4.1982,4.1779,4.0832,3.8565,3.8768,3.9952,4.2117,0.0,4.7767,0.0,0.0,0.0,5.79,0.0,0.0,5.9032,5.9404,5.937,5.9066,5.9776,5.9911,5.9588,6.0385,6.0723,6.0825,6.1975,6.3091,6.4072,6.4072,6.4512,6.5189,6.5581,6.5933,6.6271,5.9858,6.005,6.155,6.6615,7.2436,7.8244,8.3811,8.9491,9.1494,8.6828,8.6339,8.6012,8.4978,8.7956,8.9811,8.9379,8.7898,8.6904,8.6775,8.5416,8.4462,8.4095,8.1305,7.9706,7.9559,7.5704,7.0293,0.0,0.0,0.0,0.0,4.4158,4.3555,4.42,4.6882,5.0402,0.0,0.0,6.1218,6.4952,6.6888,6.8517,6.9624,6.7889,6.7124,6.6725,6.4465,6.3961,6.4261,6.3645,6.3091,6.2618,6.2468,6.24,6.2516,6.3091,6.3376,6.3612,6.4208,6.4377,6.4241,6.3646,6.3376,6.3159,6.2719,6.2516,6.2502,6.2787,6.2719,6.1738,5.8896,5.5953,0.0,0.0,0.0,0.0,0.0,0.0,5.1285,4.9307,4.7785,4.594,4.3484,4.2672,4.1014,3.7968,3.8814,3.9614,3.9918,0.0,0.0,0.0,0.0,5.5175,5.7408,0.0,5.9351,6.0114,6.0283,6.0283,6.0114,6.0452,6.0486,6.0385,6.1197,6.1535,6.1637,6.297,6.3917,6.4613,6.4783,6.529,6.5933,6.5933,6.6305,6.6825,6.5519,6.5786,6.6948,7.1936,7.7816,8.2328,8.3689,9.0182,9.4769,9.4186,9.2278,9.1271,9.1967,8.9814,8.8615,8.9317,8.7911,8.6701,8.5967,8.5086,8.3948,8.248,8.0734,7.9449,7.8736,7.5395,7.0844,0.0,0.0,5.3434,0.0,4.3856,4.3689,4.6065,0.0,0.0,0.0,6.044,6.3743,6.7369,6.7469,6.8068,6.864,6.6778,6.6051,6.5811,6.4127,6.3557,6.3497,6.2769,6.29,6.3274,6.2618,6.24,6.2415,6.2502,6.299,6.3511,6.3579,6.3612,6.3579,6.3511,6.299,6.2651,6.324,6.2888,6.2773,6.4106,6.3869,6.2685,6.0317,5.9607,5.8287,0.0,0.0,0.0,0.0,0.0,5.69,5.3382,5.1607,4.9544,4.6665,4.3924,4.188,4.0865,4.0933,4.1576,4.2916,0.0,0.0,4.8917,5.1285,5.3619,5.5868,5.7965,5.9351,6.0114,6.0858,6.0825,6.0148,6.1535,6.1806,6.1231,6.1975,6.2299,6.2367,6.3193,6.3917,6.4681,6.5344,6.6034,6.6711,6.6711,6.6724,6.6893,7.2906,7.2178,7.3024,7.86,8.1563,8.4508,8.8477,9.1741,9.3804,9.386,9.3041,9.202,9.096,8.9659,8.8622,8.8003,8.7381,8.6664,8.5874,8.5049,8.3875,8.226,8.0661,7.9412,7.8626,7.6313,7.2129,0.0,0.0,0.0,0.0,0.0,0.0,0.0,0.0,5.6609,6.0479,6.3387,6.5783,6.7651,6.8553,6.9101,6.9096,6.7308,6.6922,6.7031,6.4929,6.4444,6.4647,6.3463,6.2956,6.2787,6.2482,6.24,6.24,6.24,6.2618,6.2854,6.2854,6.2854,6.2956,6.3376,6.3274,6.326,6.4005,6.3937,6.3903,6.4478,6.4377,6.3903,6.2956,6.1332,6.0216,0.0,0.0,0.0,0.0,0.0,5.7137,5.389,4.9747,4.6718,4.5582,4.1948,4.0447,4.2374,4.1271,4.098,0.0,0.0,0.0,4.7597,0.0,5.4329,5.5699,5.881,6.0757,6.1467,6.1806,6.1772,6.1501,6.213,6.2482,6.2632,6.2922,6.3565,6.4397,6.4681,6.5256,6.5967,6.6271,6.6812,6.7455,6.7455,6.776,6.8233,7.9169,7.7985,7.8667,8.5115,8.6069,8.7437,9.1971,9.296,9.3059,9.2686,9.2427,9.1657,8.9948,8.9106,8.8335,8.7418,8.6921,8.6297,8.549,8.4462,8.3177,8.1578,8.0183,0.0,7.8259,7.6827,7.3634,6.8605,6.4861,0.0,0.0,0.0,0.0,0.0,5.8462,6.0896,6.3836,6.6418,6.7868,6.8506,6.9135,6.9334,6.9079,6.7577,6.734,6.7516,6.561,6.5121,6.5189,6.3917,6.3159,6.2685,6.2468,6.24,6.24,6.24,6.24,6.2468,6.2651,6.2719,6.2888,6.3632,6.3815,6.4038,6.4749,6.4749,6.4647,6.4884,6.4918,6.4986,6.5222,6.3328,6.2212,6.37,0.0,0.0,0.0,6.0452,0.0,5.4262,4.9289,4.6075,4.592,4.2016,4.1056,4.4776,4.2997,4.1894,0.0,0.0,0.0,0.0,0.0,0.0,5.6003,5.9539,6.167,6.24,6.24,6.24,6.24,6.2618,6.3024,6.3511,6.3714,6.441,6.5392,6.5615,6.6,6.6508,6.6724,6.7252,6.7895,6.7895,6.8402,6.9147,8.367,8.2871,8.3563,9.1091,9.1823,9.1713,9.2649,9.3522,9.3559,9.2,9.1124,9.0629,9.0592,8.8445,8.7362,8.8133,8.6738,8.5453,8.4682,8.3104,8.1505,0.0,0.0,7.8222,7.7326,7.6533,7.5285,7.3597,0.0,0.0,6.2609,0.0,5.9171,6.163,6.4077,6.6439,6.8568,6.9476,7.0212,7.0609,6.8908,6.8227,6.8092,6.7182,6.6812,6.6711,6.5954,6.5222,6.4512,6.3748,6.3477,6.3342,6.2618,6.24,6.24,6.24,6.24,6.255,6.3274,6.3477,6.3646,6.441,6.458,6.4783,6.5514,6.5121,6.4816,6.5547,6.5683,6.5899,6.6622,6.6136,6.4938,6.2773,0.0,0.0,0.0,6.096,0.0,5.5226,5.1894,4.9729,4.9018,4.5553,4.4877,4.8646,4.6887,0.0,0.0,0.0,0.0,4.8917,5.2638,0.0,5.6765,5.981,6.167,6.24,6.24,6.24,6.2415,6.3159,6.3477,6.3545,6.4275,6.4613,6.4681,6.5392,6.5717,6.5784,6.6542,6.7252,6.7895,6.7895,6.8402,6.9214,8.9594,8.948,8.9848,9.2808,9.3639,9.3805,9.3595,9.3351,9.3073,9.2653,9.0482,8.916,8.973,8.8592,8.7692,8.7435,8.6407,8.5453,0.0,8.3104,8.1505,7.989,7.9045,7.8185,7.7326,7.7069,7.6114,7.4515,0.0,0.0,0.0,6.4273,6.5081,6.7417,6.8073,6.9374,7.1074,7.1208,7.1012,7.0562,6.9986,6.9046,6.7938,6.765,6.7252,6.6757,6.6542,6.5967,6.529,6.5087,6.4681,6.4208,6.3971,6.3903,6.3903,6.3903,6.3903,6.3937,6.4208,6.4241,6.4444,6.5155,6.5358,6.5527,6.6271,6.6271,6.617,6.6406,6.644,6.6542,6.6757,6.6609,6.6237,6.5527,6.5358,0.0,6.167,0.0,5.5531,5.1285,4.6786,4.4756,4.6583,4.4248,4.4215,4.7954,4.6684,0.0,0.0,0.0,0.0,0.0,5.438,0.0,5.8269,6.1279,6.3193,6.3903,6.3903,6.3903,6.3903,6.414,6.4512,6.5019,6.5256,6.5628,6.6115,6.6339,6.644,6.6474,6.669,6.759,6.8707,6.8707,6.9519,7.0635,9.271,9.271,9.2864,9.3989,9.4148,9.4098,9.4004,9.2811,9.1987,9.2093,8.9821,8.839,8.8886,8.7949,0.0,8.7014,8.6004,8.5123,8.4646,8.281,8.1158,7.9853,7.9045,7.8185,7.7326,7.7289,0.0,7.5784,7.3692,7.16,6.9669,6.9339,6.9992,7.1353,7.1524,7.1749,7.1978,7.1885,7.128,7.036,6.9777,6.9053,6.8335,6.803,6.7624,6.7197,6.7197,6.6576,6.5717,6.5717,6.5561,6.5392,6.5087,6.5392,6.5696,6.485,6.4613,6.4647,6.4918,6.5222,6.5595,6.6339,6.6745,6.7083,6.7557,6.7637,6.759,6.7286,6.7197,6.7151,6.6859,6.6791,6.6791,6.6791,6.5561,6.37,6.1081,0.0,5.323,0.0,0.0,0.0,0.0,4.6853,4.7462,0.0,4.9916,0.0,0.0,0.0,0.0,5.2536,5.6867,0.0,6.067,6.2835,6.414,6.4613,6.4613,6.4613,6.4613,6.5189,6.5696,6.6136,6.6711,6.7252,6.7637,6.7637,6.7637,6.7637,6.7637,6.8436,6.9519,6.9519,7.0263,7.1289,9.3364,9.3133,9.3163,9.4751,9.3813,9.3136,9.396,9.2061,9.0536,9.0659,8.9159,8.8133,8.8206,8.6811,8.6187,8.6904,0.0,0.0,8.4535,8.2296,8.0681,7.9926,7.9103,7.8295,7.7399,7.7399,7.7362,7.7289,7.5784,7.502,7.4975,7.4205,7.3692,7.3488,7.4176,7.3452,7.1676,7.169,7.1121,7.0128,6.8707,6.8538,6.9079,6.8335,6.7996,6.7895,6.7895,6.6981,6.5784,6.5784,6.6237,6.6677,6.6,6.6745,6.7489,6.5358,6.4783,6.4986,6.5683,6.6339,6.7028,6.7793,6.8538,6.9113,6.9113,6.9113,6.8876,6.8132,6.7996,6.776,6.6994,6.6859,6.6825,6.6724,6.5358,6.2753,5.8355,0.0,5.301,0.0,0.0,0.0,0.0,5.2266,5.3551,0.0,0.0,0.0,0.0,0.0,5.2638,5.69,5.9911,6.2178,6.3646,6.4377,6.4816,6.4918,6.4918,6.4918,6.4952,6.6318,6.696,6.7028,6.847,6.9113,6.9113,6.9113,6.9113,6.9113,6.9113,6.9553,7.0217,7.0217,7.0669,7.1289,0.0,0.0,9.4561,9.5058,9.4833,9.4482,9.4149,9.2061,9.0742,9.1374,8.9021,8.7509,8.8133,8.7325,8.6811,8.6978,8.4959,8.3675,8.3675,8.2003,8.0938,8.0718,7.9947,7.914,7.8295,7.8295,7.7949,7.7289,7.6922,7.634,7.5584,7.5403,7.4877,7.4058,7.3479,7.2953,7.2472,7.173,7.1252,7.1007,7.0613,7.0263,6.9925,6.9744,6.891,6.7895,6.7895,6.732,6.6542,6.6542,6.6677,6.6757,6.6588,6.7184,6.7692,6.6609,6.6677,6.7151,6.732,6.7523,6.7827,6.8605,6.8977,6.9113,6.9113,6.9113,6.9045,6.8876,6.8808,6.8571,6.7793,6.7658,6.7286,6.6136,6.326,6.0013,5.6697,5.3771,5.1032,0.0,4.9154,5.0574,5.2503,5.3179,5.4194,0.0,0.0,5.5547,5.6494,5.6765,5.7645,5.9268,6.1704,6.37,6.5155,6.5933,6.688,6.803,6.803,6.803,6.8064,6.8402,6.8571,6.8571,6.8944,6.9113,6.9113,6.9113,6.9113,6.9113,6.9113,6.9553,7.0217,7.0217,7.0669,7.1289,9.4066,9.4408,9.4645,9.5131,9.3997,9.3032,9.3024,9.0677,8.919,8.9988,8.8296,8.7161,8.7619,8.6921,8.6444,8.6444,8.527,8.4499,8.4499,8.2994,8.1929,8.1562,8.0791,7.9947,7.9192,7.9155,7.8736,7.7876,7.7023,7.633,7.577,7.5334,7.4572,7.3611,7.3029,7.254,7.2077,7.1546,7.1289,7.1255,7.0939,7.077,7.0669,7.0331,6.9968,6.963,6.963,6.9467,6.914,6.8706,6.8761,6.8897,6.8099,6.8368,6.8808,6.8064,6.8132,6.8436,6.8436,6.8673,6.9147,6.9925,7.0128,7.0128,7.0128,7.0128,7.0026,6.9654,6.9586,6.935,6.8605,6.7861,6.6914,6.5425,6.1772,5.8051,5.509,5.2401,0.0,5.0491,5.1758,5.3687,5.6258,5.7476,5.7999,5.7814,5.8355,0.0,5.8321,6.0689,6.1772,6.1163,6.3666,6.554,6.6677,6.7489,6.8267,6.9113,6.9113,6.9113,6.9113,6.9451,6.9586,6.962,6.9958,7.0128,7.0128,7.0128,7.0128,7.0128,7.0128,7.0364,7.0703,7.0703,7.0973,7.1289,9.4186,9.4091,9.3935,9.4536,9.2585,9.1034,9.1471,8.9146,8.7565,8.8133,8.7509,8.6978,8.6978,8.6407,8.5967,8.5967,8.5967,8.5857,8.5637,8.4352,8.3287,8.259,8.1782,8.0975,8.0183,7.9816,7.9302,7.8589,7.6713,7.5718,7.5545,7.4535,7.3552,7.2582,7.2582,7.2099,7.1289,7.1289,7.1289,7.1255,7.0635,7.0848,7.1478,7.0833,7.105,7.1688,7.1688,7.1687,7.1542,7.0665,7.0793,7.1057,6.9573,6.962,7.0082,6.9451,6.935,6.9417,6.9316,6.9789,7.0466,7.1007,7.1222,7.1289,7.1289,7.1289,7.112,7.05,7.0364,7.0128,6.9417,6.803,6.6385,6.4715,6.0486,5.6445,5.3687,0.0,5.1217,5.3416,5.5462,5.7728,6.0351,6.2361,6.2564,6.0332,6.2327,6.297,6.1366,6.4309,6.5175,6.3294,6.5797,6.7523,6.8233,6.891,6.9316,6.9451,6.9451,6.9451,6.9451,7.006,7.0364,7.0398,7.1041,7.1289,7.1289,7.1289,7.1289,7.1289,7.1289,7.1289,7.1289,7.1289,7.1289,7.1289,9.1909,9.2513,9.2806,9.2339,9.2468,9.2187,9.0966,8.98,8.8812,8.828,8.7509,8.6978,8.6978,8.6885,8.6811,8.6811,8.6811,8.6261,8.4866,8.4535,8.4352,8.4242,8.3471,8.2663,8.1856,7.9837,7.8736,7.8589,7.6713,7.5369,7.4498,7.3512,7.2477,7.1546,7.1546,7.1434,7.1289,7.1289,7.1289,7.1289,7.1176,7.1705,7.2527,7.2444,7.2099,7.1688,7.1688,7.0767,6.9527,6.939,6.9428,6.9453,6.9212,6.962,7.0184,7.006,7.0466,7.0838,7.0195,7.0567,7.1007,7.05,7.0838,7.1289,7.1289,7.1289,7.1255,7.1154,7.1142,7.0906,7.0161,6.8774,6.6846,6.412,5.8863,5.4499,5.2739,0.0,5.257,5.4228,5.8524,6.1772,6.2868,6.3274,6.4086,6.5472,6.4884,6.5087,6.6609,6.7252,6.7387,6.7049,6.8166,6.9113,6.9845,6.998,7.0331,7.0951,7.0951,7.0951,7.0951,7.1075,7.1142,7.112,7.1255,7.1289,7.1289,7.1289,7.1289,7.1289,7.1289,7.1289,7.1289,7.1289,7.1289,7.1289,9.1532,9.2247,9.2818,9.247,9.2002,9.1471,9.0719,8.9913,8.9253,8.8886,8.8519,8.8115,8.7692,8.7655,8.7472,8.7014,8.7399,8.7142,8.5967,8.549,8.5233,8.5233,8.4058,8.303,8.2223,8.0681,7.9393,7.8386,7.6517,7.4888,7.3472,7.2435,7.172,7.1289,7.1289,7.1289,7.1289,7.1289,7.16,7.2056,7.1523,7.1917,7.2735,7.2193,7.2136,7.2277,7.2277,7.2131,7.1833,7.1269,7.1113,7.0986,7.0461,7.0534,7.0804,7.0804,7.1041,7.1244,7.0872,7.1041,7.1222,7.0872,7.1075,7.1289,7.1289,7.1289,7.1289,7.1289,7.1289,7.121,7.0872,6.8876,6.6609,6.4424,5.9099,0.0,0.0,5.4634,5.5428,5.8964,6.2212,6.4783,6.6373,6.6542,6.6779,6.7354,6.6779,6.6812,6.7861,6.8301,6.8741,6.9113,6.9485,7.006,7.0804,7.0804,7.0973,7.1289,7.1289,7.1289,7.1289,7.1289,7.1289,7.1289,7.1289,7.1289,7.1289,7.1289,7.1289,7.1289,7.1289,7.1289,7.1289,7.1289,7.1289,7.1289,9.1028,9.1664,9.2212,9.2398,9.1584,9.0812,9.0629,9.006,8.962,8.9436,8.94,8.9143,8.8536,8.85,8.8243,8.7601,8.7949,8.7949,8.7308,8.6518,8.6077,8.6077,8.4535,8.3324,8.248,8.1256,7.9837,7.8204,7.6138,7.4327,7.2776,7.1764,7.1289,7.1289,7.1289,7.1289,7.1289,7.1289,7.1754,7.2385,7.16,7.1917,7.2728,7.196,7.2142,7.2797,7.2797,7.3166,7.3492,7.2728,7.2435,7.2321,7.1546,7.1289,7.1289,7.1289,7.1289,7.1289,7.1289,7.1289,7.1289,7.1289,7.1289,7.1289,7.1289,7.1289,7.1289,7.1289,7.1289,7.1289,7.1289,6.9125,6.6745,6.4884,0.0,0.0,0.0,5.7611,5.8743,6.3443,6.529,6.6948,6.891,6.9248,6.9113,6.847,6.8605,6.8707,6.8707,6.9282,6.9857,7.0432,7.0466,7.0737,7.1289,7.1289,7.1289,7.1289,7.1289,7.1289,7.1289,7.1289,7.1289,7.1289,7.1289,7.1289,7.1289,7.1289,7.1289,7.1289,7.1289,7.1289,7.1289,7.1289,7.1289,7.1289,8.9301,8.9584,8.991,9.0663,9.1307,9.1473,9.0702,9.0555,9.0244,8.951,8.94,8.9363,8.9326,8.9326,8.929,8.9216,8.861,8.8169,8.8133,8.7362,8.6904,8.6904,8.538,8.4132,8.3344,8.0812,7.9088,7.8204,7.5383,7.3608,7.2776,7.1764,7.1289,7.1289,7.1289,7.1289,7.1289,7.1289,7.1356,7.139,7.1334,7.1917,7.2776,7.2714,7.2735,7.2797,7.2797,7.2236,7.1501,7.1434,7.139,7.1401,7.1334,7.1289,7.1289,7.1289,7.1289,7.1289,7.1289,7.1289,7.1289,7.1289,7.1289,7.1289,7.1289,7.1289,7.1289,7.1289,7.1289,7.1289,7.1289,7.0004,6.7996,6.5087,0.0,0.0,6.0047,6.0486,6.2042,6.5175,6.6846,6.8098,6.9011,6.9722,7.0116,7.0026,7.0669,7.1052,7.1052,7.1086,7.1154,7.1222,7.1222,7.1255,7.1289,7.1289,7.1289,7.1289,7.1289,7.1289,7.1289,7.1289,7.1289,7.1289,7.1289,7.1289,7.1289,7.1289,7.1289,7.1289,7.1289,7.1289,7.1289,7.1289,7.1289,7.1289,8.9958,9.0529,9.0996,9.1289,9.1583,9.1693,9.14,9.1326,9.1216,9.0922,9.0886,9.0702,9.0207,9.0134,8.995,8.9436,8.9583,8.9271,8.828,8.8372,8.7822,8.6334,8.5196,8.4242,8.3418,8.0814,7.8729,7.726,7.5043,7.3566,7.2776,7.2427,7.2215,7.2257,7.288,7.2469,7.1356,7.1982,7.2215,7.2185,7.1568,7.1917,7.2714,7.212,7.1873,7.1873,7.1873,7.1622,7.1289,7.1289,7.1289,7.1289,7.1289,7.1289,7.1412,7.2034,7.2666,7.3023,7.2406,7.1764,7.1289,7.1289,7.1289,7.1289,7.1289,7.1289,7.1289,7.1289,7.1289,7.1289,7.1289,7.0094,6.8707,6.759,0.0,6.3565,6.4174,6.4106,6.4952,6.7523,6.8707,6.962,7.0398,7.0737,7.0872,7.0872,7.112,7.1289,7.1289,7.1289,7.1289,7.1289,7.1289,7.1289,7.1289,7.1289,7.1289,7.1289,7.1289,7.1289,7.1289,7.1289,7.1289,7.1289,7.1289,7.1289,7.1289,7.1289,7.1289,7.1289,7.1289,7.1289,7.1289,7.1289,7.1289,7.1289,9.006,9.0886,9.151,9.1767,9.1803,9.1803,9.1803,9.1803,9.1803,9.1803,9.1803,9.1583,9.1033,9.0996,9.0739,9.0207,9.0445,9.0152,8.9014,8.9014,8.8152,8.6261,8.5416,8.4437,8.3322,8.093,7.8562,7.6197,7.4934,7.3788,7.2797,7.3111,7.309,7.2838,7.3831,7.3186,7.1379,7.2385,7.2624,7.2257,7.159,7.171,7.2257,7.1534,7.1289,7.1289,7.1289,7.1289,7.1356,7.1666,7.1764,7.1808,7.2142,7.2249,7.2385,7.3084,7.3753,7.4062,7.305,7.23,7.171,7.1379,7.1289,7.1289,7.1289,7.1289,7.1289,7.1289,7.1289,7.1289,7.1289,7.0466,6.9654,6.918,6.7557,6.6643,6.7421,6.7286,6.776,6.9586,7.0229,7.0737,7.1255,7.1289,7.1289,7.1289,7.1289,7.1289,7.1289,7.1289,7.1289,7.1289,7.1289,7.1289,7.1289,7.1289,7.1289,7.1289,7.1289,7.1289,7.1289,7.1289,7.1289,7.1289,7.1289,7.1289,7.1289,7.1289,7.1289,7.1289,7.1289,7.1289,7.1289,7.1289,7.1289,7.1289,8.9253,9.006,9.0849,9.1657,9.1803,9.1803,9.1803,9.1803,9.1803,9.1803,9.1803,9.1803,9.1803,9.1803,9.1803,9.1803,9.1069,9.0592,9.0592,8.9087,8.7839,8.7014,8.6224,8.491,8.3062,8.1164,7.8515,7.5113,7.5028,7.4266,7.2838,7.3866,7.3788,7.2859,7.3831,7.3186,7.1379,7.2385,7.2215,7.1289,7.1289,7.1289,7.1289,7.1289,7.1289,7.1289,7.1312,7.1312,7.1457,7.2456,7.2818,7.3003,7.4001,7.4326,7.4345,7.4345,7.4345,7.4136,7.3125,7.2852,7.2561,7.1568,7.1289,7.1289,7.1289,7.1289,7.1289,7.1289,7.1289,7.1289,7.1289,7.1289,7.0816,6.935,6.9722,6.9958,6.9214,6.9755,7.0466,7.1188,7.1289,7.1289,7.1289,7.1289,7.1289,7.1289,7.1289,7.1289,7.1289,7.1289,7.1289,7.1289,7.1289,7.1289,7.1289,7.1289,7.1289,7.1289,7.1289,7.1289,7.1289,7.1289,7.1289,7.1289,7.1289,7.1289,7.1289,7.1289,7.1289,7.1289,7.1289,7.1289,7.1289,7.1289,7.1289,7.1289,9.0922,9.1289,9.151,9.1767,9.1803,9.1803,9.1803,9.1803,9.1803,9.1803,9.1803,9.1803,9.1803,9.1289,9.1179,9.173,9.1069,9.0354,8.9803,8.8225,8.7252,8.7014,8.571,8.4711,8.4106,8.0623,7.8309,7.726,7.5433,7.4656,7.4903,7.4479,7.4139,7.3885,7.4158,7.3186,7.1379,7.2385,7.2215,7.1289,7.1289,7.1289,7.1289,7.1289,7.1289,7.1401,7.2099,7.2364,7.2498,7.3512,7.4237,7.4863,7.5723,7.647,7.7056,7.7056,7.7553,7.7935,7.6893,7.6019,7.4802,7.1993,7.1289,7.1289,7.1289,7.1289,7.1289,7.1289,7.1289,7.1289,7.1289,7.1289,7.1176,7.0737,7.0838,7.0906,7.0647,7.0816,7.1075,7.1255,7.1289,7.1289,7.1289,7.1289,7.1289,7.1289,7.1289,7.1289,7.1289,7.1289,7.1289,7.1289,7.1289,7.1289,7.1289,7.1289,7.1289,7.1289,7.1289,7.1289,7.1289,7.1289,7.1289,7.1289,7.1289,7.1289,7.1289,7.1289,7.1289,7.1289,7.1289,7.1289,7.1289,7.1289,7.1289,7.1289,9.1179,9.1583,9.1803,9.1803,9.1803,9.1803,9.1803,9.1803,9.1803,9.1803,9.1803,9.1693,9.1363,9.0886,9.0665,9.0849,9.0391,8.9767,8.8959,8.8023,8.7325,8.7014,8.5747,8.475,8.3984,8.1436,7.9287,7.7557,7.6423,7.5637,7.5192,7.4976,7.446,7.3714,7.412,7.3186,7.1379,7.2385,7.2215,7.1334,7.1732,7.1895,7.196,7.2321,7.249,7.2561,7.3206,7.3392,7.3552,7.4554,7.5693,7.6822,7.7308,7.8092,7.8811,7.8811,7.8764,7.8532,7.7775,7.6343,7.4624,7.2686,7.2157,7.2157,7.2157,7.2157,7.2157,7.2157,7.2157,7.2157,7.2157,7.2157,7.2157,7.2157,7.1921,7.1751,7.1751,7.1751,7.165,7.1323,7.1819,7.2056,7.1751,7.1751,7.1616,7.1323,7.1289,7.1289,7.1289,7.1289,7.1289,7.1289,7.1289,7.1289,7.1289,7.1289,7.1289,7.1289,7.1289,7.1289,7.1289,7.1289,7.1289,7.1289,7.1289,7.1289,7.1289,7.1289,7.1289,7.1289,7.1289,7.1289,7.1289,7.1289,7.1289,7.1289,9.0537,9.1289,9.1803,9.1803,9.1803,9.1803,9.1803,9.173,9.1693,9.1693,9.162,9.1326,9.0592,9.0445,9.0097,8.9473,8.9326,8.8959,8.8243,8.8133,8.7766,8.7014,8.6297,8.5091,8.3282,8.3046,8.0977,7.7007,7.7792,7.6948,7.4548,7.537,7.4718,7.2838,7.3768,7.3166,7.1501,7.2427,7.2321,7.1644,7.2561,7.2941,7.3009,7.3947,7.4291,7.431,7.4385,7.4423,7.4608,7.5777,7.7327,7.8809,7.8883,7.9412,7.9984,7.9904,7.8674,7.7271,7.6901,7.5048,7.3307,7.3708,7.3772,7.3669,7.3534,7.35,7.35,7.35,7.35,7.35,7.35,7.35,7.35,7.35,7.2935,7.2496,7.2496,7.2496,7.2259,7.1582,7.2631,7.3161,7.2462,7.2326,7.2022,7.1357,7.1289,7.1323,7.1391,7.1323,7.1323,7.1391,7.1323,7.1289,7.1289,7.1289,7.1289,7.1289,7.1289,7.1289,7.1289,7.1289,7.1289,7.1289,7.1289,7.1289,7.1289,7.1289,7.1289,7.1289,7.1289,7.1289,7.1289,7.1289,7.1289,7.1289,9.151,9.1693,9.1803,9.1803,9.1803,9.1803,9.1803,9.1253,9.0849,9.0849,9.0317,8.984,8.9693,8.9124,8.8904,8.9363,8.8812,8.839,8.8206,8.7619,8.7161,8.7014,8.6848,8.6248,8.5215,8.3349,8.1602,8.005,7.8812,7.7576,7.6391,7.5759,7.4511,7.2797,7.3044,7.288,7.2477,7.2693,7.3145,7.367,7.3905,7.3966,7.3986,7.4215,7.4291,7.4404,7.5174,7.5475,7.5848,7.8154,7.962,8.0608,8.1232,8.1525,8.1505,8.0669,8.0135,7.9611,7.8713,7.7411,7.6348,7.6452,7.5857,7.4897,7.3747,7.35,7.35,7.35,7.35,7.35,7.35,7.35,7.35,7.35,7.3364,7.3263,7.3263,7.3263,7.3206,7.3037,7.28,7.2563,7.2428,7.1887,7.1458,7.1289,7.1289,7.1526,7.2124,7.1616,7.1582,7.2157,7.1616,7.1289,7.1289,7.1289,7.1289,7.1289,7.1289,7.1289,7.1289,7.1289,7.1289,7.1289,7.1289,7.1289,7.1289,7.1289,7.1289,7.1289,7.1289,7.1289,7.1289,7.1289,7.1289,7.1289,9.1143,9.1546,9.1803,9.1803,9.1473,9.1216,9.1216,9.0555,9.0024,9.0024,8.9657,8.9253,8.8849,8.8776,8.8793,8.8812,8.8096,8.7619,8.7619,8.7234,8.6978,8.6978,8.6978,8.6444,8.5233,8.4352,8.3141,8.1562,8.0207,7.8415,7.6301,7.6192,7.4977,7.2818,7.3292,7.3532,7.3532,7.3532,7.3846,7.4329,7.4812,7.5012,7.5048,7.5545,7.5737,7.5806,7.6313,7.6785,7.7413,7.9196,8.0314,8.0968,8.0883,8.1112,8.123,8.0144,7.9209,7.8448,7.8244,7.6882,7.5766,7.6839,7.6386,7.5608,7.5202,7.51,7.5202,7.5564,7.5666,7.5564,7.5168,7.51,7.4999,7.4593,7.4255,7.4018,7.4018,7.4018,7.3883,7.3567,7.3781,7.3849,7.3477,7.3105,7.2732,7.2394,7.236,7.236,7.2394,7.236,7.2191,7.1887,7.1853,7.1684,7.1289,7.1289,7.1289,7.1289,7.1289,7.1289,7.1289,7.1289,7.1289,7.1289,7.1289,7.1289,7.1289,7.1289,7.1289,7.1289,7.1289,7.1289,7.1289,7.1289,7.1289,7.1289,9.0464,9.1253,9.1803,9.1803,9.1253,9.0776,9.0629,9.0024,8.951,8.9216,8.9179,8.8886,8.8096,8.8592,8.8702,8.8059,8.7399,8.6978,8.6978,8.6978,8.6978,8.6978,8.6978,8.639,8.5049,8.5527,8.4626,8.2186,8.1489,7.9349,7.5979,7.6823,7.5705,7.309,7.4101,7.4554,7.4554,7.4554,7.4647,7.4903,7.5701,7.6061,7.6164,7.7134,7.7509,7.7546,7.7693,7.828,7.9103,7.9779,8.0534,8.0996,7.9951,8.0081,8.0348,7.9083,7.7692,7.6691,7.7105,7.5789,7.4718,7.6623,7.6589,7.6284,7.7096,7.7164,7.7266,7.7874,7.8,7.7807,7.7198,7.6995,7.669,7.6014,7.527,7.4796,7.4796,7.4796,7.4559,7.395,7.483,7.5236,7.4492,7.4424,7.4153,7.3567,7.35,7.3274,7.28,7.3105,7.28,7.1718,7.2022,7.1921,7.1289,7.1289,7.1289,7.1289,7.1289,7.1289,7.1289,7.1289,7.1289,7.1289,7.1289,7.1289,7.1289,7.1289,7.1289,7.1289,7.1289,7.1289,7.1289,7.1289,7.1289,7.1289,9.0592,9.1253,9.1803,9.1803,9.1693,9.14,9.0702,9.0519,8.9931,8.8536,8.8353,8.8059,8.7252,8.7234,8.7271,8.7161,8.7051,8.6978,8.6978,8.6978,8.6978,8.6978,8.6978,8.6904,8.6684,8.6114,8.4626,8.2186,8.1846,8.0352,7.7829,7.7954,7.6642,7.4139,7.5138,7.5597,7.5597,7.5597,7.6077,7.6925,7.7035,7.7082,7.7207,7.8102,7.8405,7.8516,7.9213,7.9984,8.0681,8.0791,8.1379,8.1855,8.0784,8.0514,8.0218,7.8105,7.7827,7.7991,7.7172,7.7174,7.7493,7.7797,7.7797,7.7874,7.8653,7.8314,7.7899,7.8,7.8,7.7967,7.7874,7.7333,7.686,7.6758,7.6082,7.554,7.554,7.554,7.5506,7.5405,7.5033,7.4458,7.3713,7.3669,7.3635,7.35,7.35,7.3713,7.4265,7.3206,7.2732,7.3172,7.2056,7.1391,7.1289,7.1289,7.1289,7.1289,7.1289,7.1289,7.1289,7.1289,7.1289,7.1289,7.1289,7.1289,7.1289,7.1289,7.1289,7.1289,7.1289,7.1289,7.1289,7.1289,7.1289,7.1289,8.9344,9.0262,9.0996,9.0555,9.0482,9.0188,8.9381,8.962,8.9363,8.7766,8.7912,8.8059,8.7729,8.7655,8.7876,8.8299,8.7528,8.6978,8.6978,8.6978,8.6978,8.6978,8.6978,8.6811,8.6334,8.6407,8.5527,8.3544,8.2957,8.1394,7.8925,7.9504,7.8357,7.5836,7.6903,7.7373,7.7373,7.7373,7.7891,7.8699,7.8699,7.8699,7.8736,7.9103,7.9265,7.9376,8.0167,8.0681,8.0968,8.0835,8.1698,8.2561,8.0902,8.0636,8.0697,7.909,7.8454,7.8122,7.7639,7.7764,7.8102,7.8517,7.8619,7.8822,7.9566,7.9464,7.9228,7.9228,7.9228,7.9092,7.8686,7.801,7.7502,7.7502,7.686,7.6352,7.6352,7.6724,7.6826,7.642,7.5676,7.51,7.4762,7.4728,7.4728,7.4728,7.4728,7.4695,7.4603,7.3961,7.3409,7.2902,7.2259,7.1718,7.1289,7.1289,7.1289,7.1289,7.1289,7.1289,7.1289,7.1289,7.1289,7.1289,7.1289,7.1289,7.1289,7.1289,7.1289,7.1289,7.1289,7.1289,7.1289,7.1289,7.1289,7.1289]}]]